[[{"header":{"parameterUnit":"m.s-1","parameterCategory":1,"la1":31.0,"la2":29.5877,"lo1":-88.7671,"lo2":-86.6584,"dy":0.0162,"dx":0.0185,"nx":115,"ny":88,"refTime":"2023-05-15T06:00:00:Z","depth":0,"parameterNumber":2,"parameterNumberName":"U-component_of_WINDS"},"data":[0.0,0.0,0.0,0.0,0.0,0.0,0.0,0.0,0.0,0.0,0.0,0.0,0.0,0.0,0.0,0.0,0.0,0.0,0.0,0.0,0.0,0.0,0.0,0.0,0.0,0.0,0.0,0.0,0.0,0.0,0.0,0.0,0.0,0.0,0.0,0.0,0.0,0.0,0.0,0.0,0.0,0.0,0.0,0.0,0.0,0.0,0.0,0.0,0.0,0.0,0.0,0.0,0.0,0.0,0.0,0.0,0.0,0.0,0.0,0.0,0.0,0.0,0.0,0.0,0.0,0.0,0.0,0.0,0.0,0.0,0.0,0.0,0.0,0.0,0.0,0.0,0.0,0.0,0.0,0.0,0.0,0.0,0.0,0.0,0.0,0.0,0.0,0.0,0.0,0.0,0.0,0.0,0.0,0.0,0.0,0.0,0.0,0.0,0.0,0.0,0.0,0.0,0.0,0.0,0.0,0.0,0.0,0.0,0.0,0.0,0.0,0.0,0.0,0.0,0.0,0.0,0.0,0.0,0.0,0.0,0.0,0.0,0.0,0.0,0.0,0.0,0.0,0.0,0.0,0.0,0.0,0.0,0.0,0.0,0.0,0.0,0.0,0.0,0.0,0.0,0.0,0.0,0.0,0.0,0.0,0.0,0.0,0.0,0.0,0.0,0.0,0.0,0.0,0.0,0.0,0.0,0.0,0.0,0.0,0.0,0.0,0.0,0.0,0.0,0.0,0.0,0.0,0.0,0.0,0.0,0.0,0.0,0.0,0.0,0.0,0.0,0.0,0.0,0.0,0.0,0.0,0.0,0.0,0.0,0.0,0.0,0.0,0.0,0.0,0.0,0.0,0.0,0.0,0.0,0.0,0.0,0.0,0.0,0.0,0.0,0.0,0.0,0.0,0.0,0.0,0.0,0.0,0.0,0.0,0.0,0.0,0.0,0.0,0.0,0.0,0.0,0.0,0.0,0.0,0.0,0.0,0.0,0.0,0.0,0.0,0.0,0.0,0.0,0.0,0.0,0.0,0.0,0.0,0.0,0.0,0.0,0.0,0.0,0.0,0.0,0.0,0.0,0.0,0.0,0.0,0.0,0.0,0.0,0.0,0.0,0.0,0.0,0.0,0.0,0.0,0.0,0.0,0.0,0.0,0.0,0.0,0.0,0.0,0.0,0.0,0.0,0.0,0.0,0.0,0.0,0.0,0.0,0.0,0.0,0.0,0.0,0.0,0.0,0.0,0.0,0.0,0.0,0.0,0.0,0.0,0.0,0.0,0.0,0.0,0.0,0.0,0.0,0.0,0.0,0.0,0.0,0.0,0.0,0.0,0.0,0.0,0.0,0.0,0.0,0.0,0.0,0.0,0.0,0.0,0.0,0.0,0.0,0.0,0.0,0.0,0.0,0.0,0.0,0.0,0.0,0.0,0.0,0.0,0.0,0.0,0.0,0.0,0.0,0.0,0.0,0.0,0.0,0.0,0.0,0.0,0.0,0.0,0.0,0.0,0.0,0.0,0.0,0.0,0.0,0.0,0.0,0.0,0.0,0.0,0.0,0.0,0.0,0.0,0.0,0.0,0.0,0.0,0.0,0.0,0.0,0.0,0.0,0.0,0.0,0.0,0.0,0.0,0.0,0.0,0.0,0.0,0.0,0.0,0.0,0.0,0.0,0.0,0.0,0.0,0.0,0.0,0.0,0.0,0.0,0.0,0.0,0.0,0.0,0.0,0.0,0.0,0.0,0.0,0.0,0.0,0.0,0.0,0.0,0.0,0.0,0.0,0.0,0.0,0.0,0.0,0.0,0.0,0.0,0.0,0.0,0.0,0.0,0.0,0.0,0.0,0.0,0.0,0.0,0.0,0.0,0.0,0.0,0.0,0.0,0.0,0.0,0.0,0.0,0.0,0.0,0.0,0.0,0.0,0.0,0.0,0.0,0.0,0.0,0.0,0.0,0.0,0.0,0.0,0.0,0.0,0.0,0.0,0.0,0.0,0.0,0.0,0.0,0.0,0.0,0.0,0.0,0.0,0.0,0.0,0.0,0.0,0.0,0.0,0.0,0.0,0.0,0.0,0.0,0.0,0.0,0.0,0.0,0.0,0.0,0.0,0.0,0.0,0.0,0.0,0.0,0.0,0.0,0.0,0.0,0.0,0.0,0.0,0.0,0.0,0.0,0.0,0.0,0.0,0.0,0.0,0.0,0.0,0.0,0.0,0.0,0.0,0.0,0.0,0.0,0.0,0.0,0.0,0.0,0.0,0.0,0.0,0.0,0.0,0.0,0.0,0.0,0.0,0.0,0.0,0.0,0.0,0.0,0.0,0.0,0.0,0.0,0.0,0.0,0.0,0.0,0.0,0.0,0.0,0.0,0.0,0.0,0.0,0.0,0.0,0.0,0.0,0.0,0.0,0.0,0.0,0.0,0.0,0.0,0.0,0.0,0.0,0.0,0.0,0.0,0.0,0.0,0.0,0.0,0.0,0.0,0.0,0.0,0.0,0.0,0.0,0.0,0.0,0.0,0.0,0.0,0.0,0.0,0.0,0.0,0.0,0.0,0.0,0.0,0.0,0.0,0.0,0.0,0.0,0.0,0.0,0.0,0.0,0.0,0.0,0.0,0.0,0.0,0.0,0.0,0.0,0.0,0.0,0.0,0.0,0.0,0.0,0.0,0.0,0.0,0.0,0.0,0.0,0.0,0.0,0.0,0.0,0.0,0.0,0.0,0.0,0.0,0.0,0.0,0.0,0.0,0.0,0.0,0.0,0.0,0.0,0.0,0.0,0.0,0.0,0.0,0.0,0.0,0.0,0.0,0.0,0.0,0.0,0.0,0.0,0.0,0.0,0.0,0.0,0.0,0.0,0.0,0.0,0.0,0.0,0.0,0.0,0.0,0.0,0.0,0.0,0.0,0.0,0.0,0.0,0.0,0.0,0.0,0.0,0.0,0.0,0.0,0.0,0.0,0.0,0.0,0.0,0.0,0.0,0.0,0.0,0.0,0.0,0.0,0.0,0.0,0.0,0.0,0.0,0.0,0.0,0.0,0.0,0.0,0.0,0.0,0.0,0.0,0.0,0.0,0.0,0.0,0.0,0.0,0.0,0.0,0.0,0.0,0.0,0.0,0.0,0.0,0.0,0.0,0.0,0.0,0.0,0.0,0.0,0.0,0.0,0.0,0.0,0.0,0.0,0.0,0.0,0.0,0.0,0.0,0.0,0.0,0.0,0.0,0.0,0.0,0.0,0.0,0.0,0.0,0.0,0.0,0.0,0.0,0.0,0.0,0.0,0.0,0.0,0.0,0.0,0.0,0.0,0.0,0.0,0.0,0.0,0.0,0.0,0.0,0.0,0.0,0.0,0.0,0.0,0.0,0.0,0.0,0.0,0.0,0.0,0.0,0.0,0.0,0.0,0.0,0.0,0.0,0.0,0.0,0.0,0.0,0.0,0.0,0.0,0.0,0.0,0.0,0.0,0.0,0.0,0.0,0.0,0.0,0.0,0.0,0.0,0.0,0.0,0.0,0.0,0.0,0.0,0.0,0.0,0.0,0.0,0.0,0.0,0.0,0.0,0.0,0.0,0.0,0.0,0.0,0.0,0.0,0.0,0.0,0.0,0.0,0.0,0.0,0.0,0.0,0.0,0.0,0.0,0.0,0.0,0.0,0.0,0.0,0.0,0.0,0.0,0.0,0.0,0.0,0.0,0.0,0.0,0.0,0.0,0.0,0.0,0.0,0.0,0.0,0.0,0.0,0.0,0.0,0.0,0.0,0.0,0.0,0.0,0.0,0.0,0.0,0.0,0.0,0.0,0.0,0.0,0.0,0.0,0.0,0.0,0.0,0.0,0.0,0.0,0.0,0.0,0.0,0.0,0.0,0.0,0.0,0.0,0.0,0.0,0.0,0.0,0.0,0.0,0.0,0.0,0.0,0.0,0.0,0.0,0.0,0.0,0.0,0.0,0.0,0.0,0.0,0.0,0.0,0.0,0.0,0.0,0.0,0.0,0.0,0.0,0.0,0.0,0.0,0.0,0.0,0.0,0.0,0.0,0.0,0.0,0.0,0.0,0.0,0.0,0.0,0.0,0.0,0.0,0.0,0.0,0.0,0.0,0.0,0.0,0.0,0.0,0.0,0.0,0.0,0.0,0.0,0.0,0.0,0.0,0.0,0.0,0.0,0.0,0.0,0.0,0.0,0.0,0.0,0.0,0.0,0.0,0.0,0.0,0.0,0.0,0.0,0.0,0.0,0.0,0.0,0.0,0.0,0.0,0.0,0.0,0.0,-0.2016,0.0,0.0,0.0,0.0,0.0,0.0,0.0,0.0,0.0,0.0,0.0,0.0,0.0,0.0,0.0,0.0,0.0,0.0,0.0,0.0,0.0,0.0,0.0,0.0,0.0,0.0,0.0,0.0,0.0,0.0,0.0,0.0,0.0,0.0,0.0,0.0,0.0,0.0,0.0,0.0,0.0,0.0,0.0,0.0,0.0,0.0,0.0,0.0,0.0,0.0,0.0,0.0,0.0,0.0,0.0,0.0,0.0,0.0,0.0,0.0,0.0,0.0,0.0,0.0,0.0,0.0,0.0,0.0,0.0,0.0,0.0,0.0,0.0,0.0,0.0,0.0,0.0,0.0,0.0,0.0,0.0,0.0,0.0,0.0,0.0,0.0,0.0,0.0,0.0,0.0,0.0,0.0,0.0,0.0,0.0,0.0,0.0,0.0,0.0,0.0,0.0,0.0,0.0,0.0,0.0,0.0,0.0,0.0,0.0,0.0,-0.3036,-0.3222,-0.3237,-0.3103,-0.2686,0.0,0.0,0.0,0.0,0.0,0.0,0.0,0.0,0.0,0.0,0.0,0.0,0.0,0.0,0.0,0.0,0.0,0.0,0.0,0.0,0.0,0.0,0.0,0.0,0.0,0.0,0.0,0.0,0.0,0.0,0.0,0.0,0.0,0.0,0.0,0.0,0.0,0.0,0.0,0.0,0.0,0.0,0.0,0.0,0.0,0.0,0.0,0.0,0.0,0.0,0.0,0.0,0.0,0.0,0.0,0.0,0.0,0.0,0.0,0.0,0.0,0.0,0.0,0.0,0.0,0.0,0.0,0.0,0.0,0.0,0.0,0.0,0.0,0.0,0.0,0.0,0.0,0.0,0.0,0.0,0.0,0.0,0.0,0.0,0.0,0.0,0.0,0.0,0.0,0.0,0.0,0.0,0.0,0.0,0.0,0.0,0.0,0.0,0.0,0.0,0.0,0.0,0.0,0.0,0.0,0.0,0.0,0.0,0.0,0.0,0.0,0.0,-0.3913,-0.3837,-0.3621,0.0,0.0,0.0,0.0,0.0,0.0,0.0,0.0,0.0,0.0,0.0,0.0,0.0,0.0,0.0,0.0,0.0,0.0,0.0,0.0,0.0,0.0,0.0,0.0,0.0,0.0,0.0,0.0,0.0,0.0,0.0,0.0,0.0,0.0,0.0,0.0,0.0,0.0,0.0,0.0,0.0,0.0,0.0,0.0,0.0,0.0,0.0,0.0,0.0,0.0,0.0,0.0,0.0,0.0,0.0,0.0,0.0,0.0,0.0,0.0,0.0,0.0,0.0,0.0,0.0,0.0,0.0,0.0,0.0,0.0,0.0,0.0,0.0,0.0,0.0,0.0,0.0,0.0,0.0,0.0,0.0,0.0,0.0,0.0,0.0,0.0,0.0,0.0,0.0,0.0,0.0,0.0,0.0,0.0,0.0,0.0,0.0,0.0,0.0,0.0,0.0,0.0,0.0,0.0,0.0,0.0,0.0,0.0,0.0,0.0,-0.4732,-0.5731,-0.5775,0.0,-0.4822,0.0,0.0,0.0,0.0,0.0,0.0,0.0,0.0,0.0,0.0,0.0,0.0,0.0,0.0,0.0,0.0,0.0,0.0,0.0,0.0,0.0,0.0,0.0,0.0,0.0,0.0,0.0,0.0,0.0,0.0,0.0,0.0,0.0,0.0,0.0,0.0,0.0,0.0,0.0,0.0,0.0,0.0,0.0,0.0,0.0,0.0,0.0,0.0,0.0,0.0,0.0,0.0,0.0,0.0,0.0,0.0,0.0,0.0,0.0,0.0,0.0,0.0,0.0,0.0,0.0,0.0,0.0,0.0,0.0,0.0,0.0,0.0,0.0,0.0,0.0,0.0,0.0,0.0,0.0,0.0,0.0,0.0,0.0,0.0,0.0,0.0,0.0,0.0,0.0,0.0,0.0,0.0,0.0,0.0,0.0,0.0,0.0,0.0,0.0,0.0,0.0,0.0,0.0,0.0,0.0,0.0,0.0,0.0,0.0,0.0,-0.555,-0.619,-0.6133,-0.598,0.0,0.0,0.0,0.0,0.0,0.0,0.0,0.0,0.0,0.0,0.0,0.0,0.0,0.0,0.0,0.0,0.0,0.0,0.0,0.0,0.0,0.0,0.0,0.0,0.0,0.0,0.0,0.0,0.0,0.0,0.0,0.0,0.0,0.0,0.0,0.0,0.0,0.0,0.0,0.0,0.0,0.0,0.0,0.0,0.0,0.0,0.0,0.0,0.0,0.0,0.0,0.0,0.0,0.0,0.0,0.0,0.0,0.0,0.0,0.0,0.0,0.0,0.0,0.0,0.0,0.0,0.0,0.0,0.0,0.0,0.0,0.0,0.0,0.0,0.0,0.0,0.0,0.0,0.0,0.0,0.0,0.0,0.0,0.0,0.0,0.0,0.0,0.0,0.0,0.0,0.0,0.0,0.0,0.0,0.0,0.0,0.0,0.0,0.0,0.0,0.0,0.0,0.0,0.0,0.0,0.0,0.0,0.0,0.0,0.0,-0.6212,-0.6309,-0.6503,-0.636,-0.6261,-0.6286,0.0,0.0,0.0,0.0,0.0,0.0,0.0,0.0,0.0,0.0,0.0,0.0,0.0,0.0,0.0,0.0,0.0,0.0,0.0,0.0,0.0,0.0,0.0,0.0,0.0,0.0,0.0,0.0,0.0,0.0,0.0,0.0,0.0,0.0,0.0,0.0,0.0,0.0,0.0,0.0,0.0,0.0,0.0,0.0,0.0,0.0,0.0,0.0,0.0,0.0,0.0,0.0,0.0,0.0,0.0,0.0,0.0,0.0,0.0,0.0,0.0,0.0,0.0,0.0,0.0,0.0,0.0,0.0,0.0,0.0,0.0,0.0,0.0,0.0,0.0,0.0,0.0,0.0,0.0,0.0,0.0,0.0,0.0,0.0,0.0,0.0,0.0,0.0,0.0,0.0,0.0,0.0,0.0,0.0,0.0,0.0,0.0,0.0,0.0,0.0,0.0,0.0,0.0,0.0,0.0,0.0,0.0,0.0,-0.6905,-0.6978,-0.7049,-0.7049,-0.6842,-0.667,0.0,0.0,0.0,0.0,0.0,0.0,0.0,0.0,0.0,0.0,0.0,0.0,0.0,0.0,0.0,0.0,0.0,0.0,0.0,0.0,0.0,0.0,0.0,0.0,0.0,0.0,0.0,0.0,0.0,0.0,0.0,0.0,0.0,0.0,0.0,0.0,0.0,0.0,0.0,0.0,0.0,0.0,0.0,0.0,0.0,0.0,0.0,0.0,0.0,0.0,0.0,0.0,0.0,0.0,0.0,0.0,0.0,0.0,0.0,0.0,0.0,0.0,0.0,0.0,0.0,0.0,0.0,0.0,0.0,0.0,0.0,0.0,0.0,0.0,0.0,0.0,0.0,0.0,0.0,0.0,0.0,0.0,0.0,0.0,0.0,0.0,0.0,0.0,0.0,0.0,0.0,0.0,0.0,0.0,0.0,0.0,0.0,0.0,0.0,0.0,0.0,0.0,0.0,0.0,0.0,0.0,0.0,0.0,0.0,-0.6596,-0.7095,-0.766,-0.821,-0.7212,-0.7005,0.0,0.0,0.0,0.0,0.0,0.0,0.0,0.0,0.0,0.0,0.0,0.0,0.0,0.0,0.0,0.0,0.0,0.0,0.0,0.0,0.0,0.0,0.0,0.0,0.0,0.0,0.0,0.0,0.0,0.0,0.0,0.0,0.0,0.0,0.0,0.0,0.0,0.0,0.0,0.0,0.0,0.0,0.0,0.0,0.0,0.0,0.0,0.0,0.0,0.0,0.0,0.0,0.0,0.0,0.0,0.0,0.0,0.0,0.0,0.0,0.0,0.0,0.0,0.0,0.0,0.0,0.0,0.0,0.0,0.0,0.0,0.0,0.0,0.0,0.0,0.0,0.0,0.0,0.0,0.0,0.0,0.0,0.0,0.0,0.0,0.0,0.0,0.0,0.0,0.0,0.0,0.0,0.0,0.0,0.0,0.0,0.0,0.0,0.0,0.0,0.0,0.0,0.0,0.0,0.0,0.0,0.0,0.0,0.0,-0.7173,0.0,-0.8641,-0.9044,-0.7846,-0.7436,0.0,0.0,0.0,0.0,0.0,0.0,0.0,0.0,0.0,0.0,0.0,0.0,0.0,0.0,0.0,0.0,0.0,0.0,0.0,0.0,0.0,0.0,0.0,0.0,0.0,0.0,0.0,0.0,0.0,0.0,0.0,0.0,0.0,0.0,0.0,0.0,0.0,0.0,0.0,0.0,0.0,0.0,0.0,0.0,0.0,0.0,0.0,0.0,0.0,0.0,0.0,0.0,0.0,0.0,0.0,0.0,0.0,0.0,0.0,0.0,0.0,0.0,0.0,0.0,0.0,0.0,0.0,0.0,0.0,0.0,0.0,0.0,0.0,0.0,0.0,0.0,0.0,0.0,0.0,0.0,0.0,0.0,0.0,0.0,0.0,0.0,0.0,0.0,0.0,0.0,0.0,0.0,0.0,0.0,0.0,0.0,0.0,0.0,0.0,0.0,0.0,0.0,0.0,0.0,0.0,0.0,0.0,0.0,-0.7026,-0.8784,-0.9665,-1.0001,-0.962,-0.8773,-0.7877,0.0,0.0,0.0,0.0,0.0,0.0,0.0,0.0,0.0,0.0,0.0,0.0,0.0,0.0,0.0,0.0,0.0,0.0,0.0,0.0,0.0,0.0,0.0,0.0,0.0,0.0,0.0,0.0,0.0,0.0,0.0,0.0,0.0,0.0,0.0,0.0,0.0,0.0,0.0,0.0,0.0,0.0,0.0,0.0,0.0,0.0,0.0,0.0,0.0,0.0,0.0,0.0,0.0,0.0,0.0,0.0,0.0,0.0,0.0,0.0,0.0,0.0,0.0,0.0,0.0,0.0,0.0,0.0,0.0,0.0,0.0,0.0,0.0,0.0,0.0,0.0,0.0,0.0,0.0,0.0,0.0,0.0,0.0,0.0,0.0,0.0,0.0,0.0,0.0,0.0,0.0,0.0,0.0,0.0,0.0,0.0,0.0,0.0,0.0,0.0,0.0,0.0,0.0,0.0,0.0,0.0,0.0,0.0,0.0,-0.7788,-0.975,-1.0867,-1.0841,-0.9464,-0.9006,0.0,0.0,0.0,0.0,0.0,0.0,0.0,0.0,0.0,0.0,0.0,0.0,0.0,0.0,0.0,0.0,0.0,0.0,0.0,0.0,0.0,0.0,0.0,0.0,0.0,0.0,0.0,0.0,0.0,0.0,0.0,0.0,0.0,0.0,0.0,0.0,0.0,0.0,0.0,0.0,0.0,0.0,0.0,0.0,0.0,0.0,0.0,0.0,0.0,0.0,0.0,0.0,0.0,0.0,0.0,0.0,0.0,0.0,0.0,0.0,0.0,0.0,0.0,0.0,0.0,0.0,0.0,0.0,0.0,0.0,0.0,0.0,0.0,0.0,0.0,0.0,0.0,0.0,0.0,0.0,0.0,0.0,0.0,0.0,0.0,0.0,0.0,0.0,0.0,0.0,0.0,0.0,0.0,0.0,0.0,0.0,0.0,0.0,0.0,0.0,0.0,0.0,0.0,0.0,0.0,0.0,0.0,0.0,0.0,-0.8558,-1.055,-1.1766,-1.1984,-1.0377,-0.9827,-1.0215,0.0,0.0,0.0,0.0,0.0,0.0,0.0,0.0,0.0,0.0,0.0,0.0,0.0,0.0,0.0,0.0,0.0,0.0,0.0,0.0,0.0,0.0,0.0,0.0,0.0,0.0,0.0,0.0,0.0,0.0,0.0,0.0,0.0,0.0,0.0,0.0,0.0,0.0,0.0,0.0,0.0,0.0,0.0,0.0,0.0,0.0,0.0,0.0,0.0,0.0,0.0,0.0,0.0,0.0,0.0,0.0,0.0,0.0,0.0,0.0,0.0,0.0,0.0,0.0,0.0,0.0,0.0,0.0,0.0,0.0,0.0,0.0,0.0,0.0,0.0,0.0,0.0,0.0,0.0,0.0,0.0,0.0,0.0,0.0,0.0,0.0,0.0,0.0,0.0,0.0,0.0,0.0,0.0,0.0,0.0,0.0,0.0,0.0,0.0,0.0,0.0,0.0,0.0,0.0,0.0,0.0,0.0,0.0,-1.0534,-1.2024,-1.2745,-1.2736,-1.1488,-1.0327,0.0,0.0,0.0,0.0,0.0,0.0,0.0,0.0,0.0,0.0,0.0,0.0,0.0,0.0,0.0,0.0,0.0,0.0,0.0,0.0,0.0,0.0,0.0,0.0,0.0,0.0,0.0,0.0,0.0,0.0,0.0,0.0,0.0,0.0,0.0,0.0,0.0,0.0,0.0,0.0,0.0,0.0,0.0,0.0,0.0,0.0,0.0,0.0,0.0,0.0,0.0,0.0,0.0,0.0,0.0,0.0,0.0,0.0,0.0,0.0,0.0,0.0,0.0,0.0,0.0,0.0,0.0,0.0,0.0,0.0,0.0,0.0,0.0,0.0,0.0,0.0,0.0,0.0,0.0,0.0,0.0,0.0,0.0,0.0,0.0,0.0,0.0,0.0,0.0,0.0,0.0,0.0,0.0,0.0,0.0,0.0,0.0,0.0,0.0,0.0,0.0,0.0,0.0,0.0,0.0,0.0,0.0,0.0,0.0,-1.1624,-1.3057,-1.3719,-1.3282,-1.1939,-1.1123,0.0,0.0,0.0,0.0,0.0,0.0,0.0,0.0,0.0,0.0,0.0,0.0,0.0,0.0,0.0,0.0,0.0,0.0,0.0,0.0,0.0,0.0,0.0,0.0,0.0,0.0,0.0,0.0,0.0,0.0,0.0,0.0,0.0,0.0,0.0,0.0,0.0,0.0,0.0,0.0,0.0,0.0,0.0,0.0,0.0,0.0,0.0,0.0,0.0,0.0,0.0,0.0,0.0,0.0,0.0,0.0,0.0,0.0,0.0,0.0,0.0,0.0,0.0,0.0,0.0,0.0,0.0,0.0,0.0,0.0,0.0,0.0,0.0,0.0,0.0,0.0,0.0,0.0,0.0,0.0,0.0,0.0,0.0,0.0,0.0,0.0,0.0,0.0,0.0,0.0,0.0,0.0,0.0,0.0,0.0,0.0,0.0,0.0,0.0,0.0,0.0,0.0,0.0,0.0,0.0,0.0,0.0,0.0,-1.0541,-1.214,-1.3538,-1.4108,-1.3845,-1.2685,-1.1804,0.0,0.0,0.0,0.0,0.0,0.0,0.0,0.0,0.0,0.0,0.0,0.0,0.0,0.0,0.0,0.0,0.0,0.0,0.0,0.0,0.0,0.0,0.0,0.0,0.0,0.0,0.0,0.0,0.0,0.0,0.0,0.0,0.0,0.0,0.0,0.0,0.0,0.0,0.0,0.0,0.0,0.0,0.0,0.0,0.0,0.0,0.0,0.0,0.0,0.0,0.0,0.0,0.0,0.0,0.0,0.0,0.0,0.0,0.0,0.0,0.0,0.0,0.0,0.0,0.0,0.0,0.0,0.0,0.0,0.0,0.0,0.0,0.0,0.0,0.0,0.0,0.0,0.0,0.0,0.0,0.0,0.0,0.0,0.0,0.0,0.0,0.0,0.0,0.0,0.0,0.0,0.0,0.0,0.0,0.0,0.0,0.0,0.0,0.0,0.0,0.0,0.0,0.0,0.0,0.0,0.0,0.0,0.0,-1.0311,-1.2404,-1.3668,-1.4298,-1.4274,-1.3417,-1.236,0.0,0.0,0.0,0.0,0.0,0.0,0.0,0.0,0.0,0.0,0.0,0.0,0.0,0.0,0.0,0.0,0.0,0.0,0.0,0.0,0.0,0.0,0.0,0.0,0.0,0.0,0.0,0.0,0.0,0.0,0.0,0.0,0.0,0.0,0.0,0.0,0.0,0.0,0.0,0.0,0.0,0.0,0.0,0.0,0.0,0.0,0.0,0.0,0.0,0.0,0.0,0.0,0.0,0.0,0.0,0.0,0.0,0.0,0.0,0.0,0.0,0.0,0.0,0.0,0.0,0.0,0.0,0.0,0.0,0.0,0.0,0.0,0.0,0.0,0.0,0.0,0.0,0.0,0.0,0.0,0.0,0.0,0.0,0.0,0.0,0.0,0.0,0.0,0.0,0.0,0.0,0.0,0.0,0.0,0.0,0.0,0.0,0.0,0.0,0.0,0.0,0.0,0.0,0.0,0.0,0.0,0.0,0.0,-1.1443,-1.268,-1.377,-1.4298,-1.4292,-1.2962,-1.2082,0.0,0.0,0.0,0.0,0.0,0.0,0.0,0.0,0.0,0.0,0.0,0.0,0.0,0.0,0.0,0.0,0.0,0.0,0.0,0.0,0.0,0.0,0.0,0.0,0.0,0.0,0.0,0.0,0.0,0.0,0.0,0.0,0.0,0.0,0.0,0.0,0.0,0.0,0.0,0.0,0.0,0.0,0.0,0.0,0.0,0.0,0.0,0.0,-1.4653,0.0,0.0,0.0,0.0,0.0,0.0,0.0,0.0,0.0,0.0,0.0,0.0,0.0,0.0,0.0,0.0,0.0,0.0,0.0,0.0,0.0,0.0,0.0,0.0,0.0,0.0,0.0,0.0,0.0,0.0,0.0,0.0,0.0,0.0,0.0,0.0,0.0,0.0,0.0,0.0,0.0,0.0,0.0,0.0,0.0,0.0,0.0,0.0,0.0,0.0,0.0,0.0,0.0,0.0,0.0,0.0,0.0,0.0,0.0,-1.1832,-1.2389,-1.3185,-1.3414,-1.321,-1.2145,-1.1417,0.0,0.0,0.0,0.0,0.0,0.0,0.0,0.0,0.0,0.0,0.0,0.0,0.0,0.0,0.0,0.0,0.0,0.0,0.0,0.0,0.0,0.0,0.0,0.0,0.0,0.0,0.0,0.0,0.0,0.0,0.0,0.0,0.0,0.0,0.0,0.0,0.0,0.0,0.0,0.0,0.0,0.0,0.0,0.0,0.0,0.0,0.0,0.0,0.0,0.0,0.0,0.0,0.0,0.0,0.0,0.0,0.0,0.0,0.0,0.0,0.0,0.0,0.0,0.0,0.0,0.0,0.0,0.0,0.0,0.0,0.0,0.0,0.0,0.0,0.0,0.0,0.0,0.0,0.0,0.0,0.0,0.0,0.0,0.0,0.0,0.0,0.0,0.0,0.0,0.0,0.0,0.0,0.0,0.0,0.0,0.0,0.0,0.0,0.0,0.0,0.0,0.0,0.0,0.0,0.0,0.0,0.0,-1.0983,-1.1607,-1.1886,-1.2305,-1.2328,-1.1873,-1.1077,-1.039,-0.9993,0.0,0.0,0.0,0.0,0.0,0.0,0.0,0.0,0.0,0.0,0.0,0.0,0.0,0.0,0.0,0.0,0.0,0.0,0.0,0.0,0.0,0.0,0.0,0.0,0.0,0.0,0.0,0.0,0.0,0.0,0.0,0.0,0.0,0.0,0.0,0.0,0.0,0.0,-0.8673,-0.9887,0.0,0.0,0.0,0.0,0.0,0.0,0.0,0.0,-1.7875,0.0,0.0,0.0,0.0,0.0,0.0,0.0,0.0,0.0,0.0,0.0,0.0,0.0,0.0,0.0,0.0,0.0,0.0,0.0,0.0,0.0,0.0,0.0,0.0,0.0,0.0,0.0,0.0,0.0,0.0,0.0,0.0,0.0,0.0,0.0,0.0,0.0,0.0,0.0,0.0,0.0,0.0,0.0,0.0,0.0,0.0,0.0,0.0,0.0,0.0,0.0,0.0,0.0,0.0,0.0,0.0,-0.9922,-0.982,-1.028,-1.1268,-1.1626,-1.1658,-1.1263,-1.0202,-0.9171,-0.8365,0.0,0.0,0.0,0.0,0.0,0.0,0.0,0.0,0.0,0.0,0.0,0.0,0.0,0.0,0.0,0.0,0.0,0.0,0.0,0.0,0.0,0.0,0.0,0.0,0.0,0.0,0.0,0.0,0.0,0.0,0.0,0.0,0.0,0.0,0.0,0.0,0.0,0.0,0.0,-1.2642,-1.3502,0.0,0.0,0.0,0.0,0.0,0.0,0.0,0.0,-2.0066,0.0,0.0,0.0,0.0,0.0,0.0,0.0,0.0,0.0,0.0,0.0,0.0,0.0,0.0,0.0,0.0,0.0,0.0,0.0,0.0,0.0,0.0,0.0,0.0,0.0,0.0,0.0,0.0,0.0,0.0,0.0,0.0,0.0,0.0,0.0,0.0,0.0,0.0,0.0,0.0,0.0,0.0,0.0,0.0,0.0,0.0,0.0,0.0,0.0,0.0,0.0,0.0,0.0,0.0,0.0,-0.9452,-0.9734,-1.0125,-1.072,-1.0733,-1.0485,-0.9989,-0.9056,-0.8125,0.0,0.0,0.0,0.0,0.0,0.0,0.0,0.0,0.0,0.0,0.0,0.0,0.0,0.0,0.0,0.0,0.0,0.0,0.0,0.0,0.0,0.0,0.0,0.0,0.0,0.0,0.0,0.0,0.0,0.0,0.0,0.0,0.0,0.0,0.0,0.0,0.0,0.0,0.0,0.0,-1.3886,-1.507,-1.7159,0.0,0.0,0.0,0.0,0.0,0.0,-2.0634,-2.1219,0.0,0.0,0.0,0.0,0.0,0.0,0.0,0.0,0.0,0.0,0.0,0.0,0.0,0.0,0.0,0.0,0.0,0.0,0.0,0.0,0.0,0.0,0.0,0.0,0.0,0.0,0.0,0.0,0.0,0.0,0.0,0.0,0.0,0.0,0.0,0.0,0.0,0.0,0.0,0.0,0.0,0.0,0.0,0.0,0.0,0.0,0.0,0.0,0.0,0.0,0.0,0.0,0.0,0.0,0.0,-0.8795,-0.9428,-0.9811,-0.9985,-0.971,-0.9316,-0.8524,-0.7839,-0.7168,0.0,0.0,0.0,0.0,0.0,0.0,0.0,0.0,0.0,0.0,0.0,0.0,0.0,0.0,0.0,0.0,0.0,0.0,0.0,0.0,0.0,0.0,0.0,0.0,0.0,0.0,0.0,0.0,0.0,0.0,0.0,0.0,0.0,0.0,0.0,0.0,0.0,0.0,0.0,0.0,0.0,-1.6519,-1.8404,-1.8416,0.0,0.0,0.0,0.0,-2.0625,-2.1995,0.0,0.0,0.0,0.0,0.0,0.0,0.0,0.0,0.0,0.0,0.0,0.0,0.0,0.0,0.0,0.0,0.0,0.0,0.0,0.0,0.0,0.0,0.0,0.0,0.0,0.0,0.0,0.0,0.0,0.0,0.0,0.0,0.0,0.0,0.0,0.0,0.0,0.0,0.0,0.0,0.0,0.0,0.0,0.0,0.0,0.0,0.0,0.0,0.0,0.0,0.0,0.0,0.0,0.0,0.0,0.0,-0.7635,-0.7912,-0.8239,-0.8601,-0.8333,-0.8038,-0.7743,-0.6978,-0.6522,0.0,0.0,0.0,0.0,0.0,0.0,0.0,0.0,0.0,0.0,0.0,0.0,0.0,0.0,0.0,0.0,0.0,0.0,0.0,0.0,0.0,0.0,0.0,0.0,0.0,0.0,0.0,0.0,0.0,0.0,0.0,0.0,0.0,0.0,0.0,0.0,0.0,0.0,0.0,0.0,0.0,-1.8267,-1.923,-1.99,-2.0711,0.0,0.0,-2.3192,-2.425,-2.5217,0.0,0.0,0.0,0.0,0.0,0.0,0.0,0.0,0.0,0.0,0.0,0.0,0.0,0.0,0.0,0.0,0.0,0.0,0.0,0.0,0.0,0.0,0.0,0.0,0.0,0.0,0.0,0.0,0.0,0.0,0.0,0.0,0.0,0.0,0.0,0.0,0.0,0.0,0.0,0.0,0.0,0.0,0.0,0.0,0.0,0.0,0.0,0.0,0.0,0.0,0.0,0.0,0.0,0.0,0.0,-0.6169,-0.682,-0.7389,-0.7861,-0.812,-0.7739,-0.7441,-0.7338,-0.662,-0.5993,0.0,0.0,0.0,0.0,0.0,0.0,0.0,0.0,0.0,0.0,0.0,0.0,0.0,0.0,0.0,0.0,0.0,0.0,0.0,0.0,0.0,0.0,0.0,0.0,0.0,0.0,0.0,0.0,0.0,0.0,0.0,0.0,0.0,0.0,0.0,0.0,0.0,0.0,0.0,0.0,0.0,0.0,-2.0974,-2.1396,0.0,0.0,0.0,-2.4336,-2.4534,0.0,0.0,0.0,0.0,0.0,0.0,0.0,0.0,0.0,0.0,0.0,0.0,0.0,0.0,0.0,0.0,0.0,0.0,0.0,0.0,0.0,0.0,0.0,0.0,0.0,0.0,0.0,0.0,0.0,0.0,0.0,0.0,0.0,0.0,0.0,0.0,0.0,0.0,0.0,0.0,0.0,0.0,0.0,0.0,0.0,0.0,0.0,0.0,0.0,0.0,0.0,0.0,0.0,0.0,0.0,0.0,0.0,-0.6276,-0.7015,-0.7545,-0.7726,-0.7338,-0.7138,-0.7132,-0.6311,0.0,0.0,0.0,0.0,0.0,0.0,0.0,0.0,0.0,0.0,0.0,0.0,0.0,0.0,0.0,0.0,0.0,0.0,0.0,0.0,0.0,0.0,0.0,0.0,0.0,0.0,0.0,-0.5218,0.0,0.0,0.0,0.0,0.0,0.0,0.0,0.0,0.0,0.0,0.0,0.0,0.0,0.0,-1.9768,-2.2206,-2.2833,-2.3607,0.0,0.0,-2.5315,-2.5121,-2.6396,-2.6641,0.0,0.0,0.0,0.0,0.0,0.0,0.0,0.0,0.0,0.0,0.0,0.0,0.0,0.0,0.0,0.0,0.0,0.0,0.0,0.0,0.0,0.0,0.0,0.0,0.0,0.0,0.0,0.0,0.0,0.0,0.0,0.0,0.0,0.0,0.0,0.0,0.0,0.0,0.0,0.0,0.0,0.0,0.0,0.0,0.0,0.0,0.0,0.0,0.0,0.0,0.0,0.0,0.0,0.0,0.0,-0.606,-0.6786,-0.7155,-0.7021,-0.6942,-0.6845,-0.6839,-0.6395,-0.5966,0.0,0.0,0.0,0.0,0.0,0.0,0.0,0.0,0.0,0.0,0.0,0.0,0.0,0.0,0.0,0.0,0.0,0.0,0.0,0.0,0.0,0.0,0.0,0.0,0.0,0.0,0.0,0.0,0.0,0.0,0.0,0.0,0.0,0.0,0.0,0.0,0.0,0.0,0.0,0.0,0.0,-2.0883,-2.2274,-2.4034,-2.5665,0.0,0.0,-2.6465,-2.711,-2.8771,-2.8945,-2.6074,0.0,0.0,0.0,0.0,0.0,0.0,0.0,0.0,0.0,0.0,0.0,0.0,0.0,0.0,0.0,0.0,0.0,0.0,0.0,0.0,0.0,0.0,0.0,0.0,0.0,0.0,0.0,0.0,0.0,0.0,0.0,0.0,0.0,0.0,0.0,0.0,0.0,0.0,0.0,0.0,0.0,0.0,0.0,0.0,0.0,0.0,0.0,0.0,0.0,0.0,0.0,0.0,0.0,-0.5613,-0.5617,-0.6322,-0.6672,-0.6617,-0.6534,-0.6539,-0.6539,-0.6184,-0.586,0.0,0.0,0.0,0.0,0.0,0.0,0.0,0.0,0.0,0.0,0.0,0.0,0.0,0.0,0.0,0.0,0.0,0.0,0.0,0.0,0.0,0.0,0.0,0.0,0.0,0.0,0.0,0.0,-1.0202,-1.0402,-1.1165,0.0,0.0,0.0,0.0,0.0,0.0,0.0,0.0,0.0,0.0,-2.173,-2.4181,-2.5487,0.0,0.0,-2.7701,-2.7644,-2.8334,-2.861,-2.8066,-2.6396,-2.5518,0.0,0.0,0.0,0.0,0.0,0.0,0.0,0.0,0.0,0.0,0.0,0.0,0.0,0.0,0.0,0.0,0.0,0.0,0.0,0.0,0.0,0.0,0.0,0.0,0.0,0.0,0.0,0.0,0.0,0.0,0.0,0.0,0.0,0.0,0.0,0.0,0.0,0.0,0.0,0.0,0.0,0.0,0.0,0.0,0.0,0.0,0.0,0.0,0.0,0.0,0.0,0.0,-0.5566,-0.5617,-0.6045,-0.6384,-0.6623,-0.6434,-0.6437,-0.6434,-0.6126,-0.5921,0.0,0.0,0.0,0.0,0.0,0.0,0.0,0.0,0.0,0.0,0.0,0.0,0.0,0.0,0.0,0.0,0.0,0.0,0.0,0.0,0.0,0.0,0.0,0.0,0.0,0.0,0.0,0.0,-1.2152,-1.2059,-1.2641,0.0,0.0,0.0,0.0,0.0,0.0,0.0,0.0,0.0,0.0,-2.2653,-2.5326,-2.6277,-2.7133,-2.7912,-2.7842,-2.7901,-2.8186,-2.8028,-2.7367,-2.6267,0.0,0.0,0.0,0.0,0.0,0.0,0.0,0.0,0.0,0.0,0.0,0.0,0.0,0.0,0.0,0.0,0.0,0.0,0.0,0.0,0.0,0.0,0.0,0.0,0.0,0.0,0.0,0.0,0.0,0.0,0.0,0.0,0.0,0.0,0.0,0.0,0.0,0.0,0.0,0.0,0.0,0.0,0.0,0.0,0.0,0.0,0.0,0.0,0.0,0.0,0.0,0.0,0.0,-0.5741,-0.6263,-0.6152,-0.6395,-0.6936,-0.6642,-0.6437,-0.6434,-0.6328,-0.6154,-0.5901,0.0,0.0,0.0,0.0,0.0,0.0,0.0,0.0,0.0,0.0,0.0,0.0,0.0,0.0,0.0,0.0,0.0,0.0,0.0,0.0,0.0,0.0,0.0,0.0,0.0,0.0,-1.2686,-1.3044,-1.304,0.0,0.0,0.0,0.0,0.0,0.0,0.0,0.0,0.0,0.0,-2.1595,-2.3778,-2.5272,-2.6399,-2.7022,-2.6692,-2.6836,-2.6767,-2.6602,-2.7273,-2.7266,0.0,0.0,0.0,0.0,0.0,0.0,0.0,0.0,0.0,0.0,0.0,0.0,0.0,0.0,0.0,0.0,0.0,0.0,0.0,0.0,0.0,0.0,0.0,0.0,0.0,0.0,0.0,-0.447,-0.452,0.0,0.0,0.0,0.0,0.0,0.0,0.0,0.0,0.0,0.0,0.0,-0.5961,-0.5948,0.0,0.0,0.0,0.0,0.0,0.0,0.0,0.0,0.0,0.0,0.0,0.0,-0.612,-0.6635,-0.6557,-0.6777,-0.7325,-0.6736,-0.6437,-0.6437,-0.6401,-0.623,-0.5912,0.0,0.0,0.0,0.0,0.0,0.0,0.0,0.0,0.0,0.0,0.0,0.0,0.0,0.0,0.0,0.0,0.0,0.0,0.0,0.0,0.0,0.0,0.0,0.0,0.0,-1.1784,0.0,0.0,0.0,0.0,0.0,0.0,0.0,0.0,0.0,0.0,0.0,-1.7507,-1.9916,-2.2042,-2.3946,-2.5605,-2.6353,-2.693,0.0,0.0,0.0,0.0,0.0,0.0,0.0,0.0,0.0,0.0,0.0,0.0,0.0,0.0,-2.183,-1.9284,-1.8606,-1.8484,-1.8702,0.0,0.0,0.0,0.0,0.0,0.0,0.0,0.0,0.0,0.0,0.0,0.0,0.0,0.0,0.0,0.0,-0.4732,0.0,0.0,0.0,0.0,0.0,0.0,0.0,0.0,-0.6108,-0.635,-0.6581,-0.6569,-0.6468,0.0,-0.6482,-0.649,0.0,0.0,0.0,0.0,0.0,0.0,0.0,0.0,-0.6237,-0.6615,-0.672,-0.6918,-0.7319,-0.6836,-0.6637,-0.6637,-0.6592,-0.6537,-0.6256,-0.6048,-0.586,0.0,0.0,0.0,0.0,0.0,0.0,0.0,0.0,0.0,0.0,0.0,0.0,0.0,0.0,0.0,0.0,0.0,0.0,0.0,0.0,0.0,0.0,0.0,-1.2567,0.0,0.0,0.0,0.0,0.0,0.0,0.0,0.0,0.0,-1.5779,-1.7067,-1.8973,-2.1508,-2.309,-2.4395,-2.5605,0.0,0.0,0.0,0.0,0.0,0.0,0.0,-2.6049,-2.5975,-2.5447,-2.5187,-2.5597,-2.6141,-2.6162,-2.5028,0.0,0.0,-2.0636,-1.974,-1.9408,-1.9633,-1.9594,-1.9784,-2.0324,-2.0074,-1.9941,0.0,0.0,0.0,0.0,0.0,0.0,0.0,0.0,-0.5911,-0.5766,0.0,-0.5778,0.0,0.0,0.0,0.0,0.0,0.0,0.0,0.0,-0.7285,-0.7541,-0.723,-0.7227,-0.7419,-0.7708,-0.7234,-0.7234,-0.7778,-0.717,0.0,0.0,0.0,0.0,0.0,0.0,-0.6242,-0.6388,-0.6623,-0.6807,-0.7027,-0.7042,-0.7045,-0.7033,-0.7113,-0.6985,-0.6948,-0.6719,-0.6619,-0.6362,-0.6079,0.0,0.0,0.0,0.0,0.0,0.0,0.0,0.0,0.0,0.0,0.0,0.0,0.0,0.0,0.0,0.0,0.0,0.0,0.0,0.0,-1.298,0.0,0.0,0.0,0.0,0.0,0.0,0.0,0.0,0.0,0.0,-1.763,-1.8929,-2.0716,-2.3511,0.0,0.0,0.0,0.0,-2.5683,-2.4977,-2.4997,-2.5256,-2.5485,-2.6141,-2.655,-2.5908,0.0,0.0,-2.6096,-2.5738,-2.5148,-2.326,-2.2675,-2.2266,-2.2559,-2.0952,-1.9708,-2.024,-1.9909,-1.983,-2.0483,-2.0542,-2.0416,-0.8405,0.0,0.0,0.0,0.0,-0.6753,-0.6729,-0.6728,-0.6731,-0.6662,-0.6614,-0.6656,0.0,0.0,0.0,0.0,0.0,0.0,-0.6926,-0.7213,-0.7491,-0.7657,-0.7811,-0.7811,-0.801,-0.8307,-0.8105,-0.8304,-0.8991,-0.8536,-0.7816,-0.6876,0.0,0.0,0.0,0.0,-0.7316,-0.7668,-0.7763,-0.7784,-0.7736,-0.7441,-0.7241,-0.7135,-0.7198,-0.7116,-0.7081,-0.7037,-0.6938,-0.6771,-0.6575,0.0,0.0,0.0,0.0,0.0,0.0,0.0,0.0,0.0,0.0,0.0,0.0,0.0,0.0,0.0,0.0,0.0,0.0,0.0,-1.303,-1.3719,-1.3902,0.0,0.0,0.0,0.0,0.0,0.0,0.0,0.0,0.0,-1.9302,-2.0215,-2.1345,0.0,0.0,-2.5204,-2.5023,-2.528,-2.5669,-2.5934,0.0,0.0,0.0,-2.6147,-2.5912,-2.6267,-2.7092,-2.7444,-2.711,-2.6727,-2.6385,-2.5691,-2.4323,-2.3178,-2.2959,-2.1774,-2.0979,-2.1353,-2.1249,-2.1145,-2.1556,-2.1544,-2.151,-1.1239,-1.0591,-0.9464,-0.845,-0.7749,-0.7869,-0.7848,-0.7866,-0.7581,-0.7495,-0.7707,-0.7495,-0.7136,-0.66,-0.6424,0.0,0.0,0.0,-0.7286,-0.7713,-0.7713,-0.776,-0.8035,-0.8137,-0.8336,-0.8535,-0.8531,-0.8832,-0.9438,-0.9029,-0.8453,-0.7826,0.0,0.0,-0.7171,-0.7513,-0.7819,-0.809,-0.8157,-0.7936,-0.772,-0.7932,-0.7935,-0.7733,-0.7637,-0.7595,-0.7413,-0.741,-0.7346,-0.7305,-0.7069,-0.6835,0.0,0.0,0.0,0.0,0.0,0.0,0.0,0.0,0.0,0.0,0.0,-0.7573,-0.8181,0.0,0.0,0.0,-1.2759,-1.3544,-1.3896,-1.4215,0.0,0.0,0.0,0.0,0.0,0.0,0.0,-1.6144,-1.6962,-1.8095,-1.9842,-2.0596,-2.1675,-2.3885,-2.5011,-2.5509,-2.528,0.0,-2.5798,-2.6143,-2.6074,-2.6212,-2.6717,-2.6504,-2.6467,-2.6938,-2.7317,-2.7281,-2.67,-2.6547,-2.6127,-2.529,-2.4016,-2.2824,-2.2375,-2.155,-2.1081,-2.1653,-2.1435,-2.1232,-2.1692,-2.1643,-2.1509,-1.3653,-1.3661,-1.0576,-0.9072,-0.8864,-0.8808,-0.8917,-0.911,-0.8428,-0.8252,-0.8508,-0.8174,-0.7788,-0.7341,-0.7341,0.0,0.0,-0.754,-0.7713,-0.8038,-0.8038,-0.8038,-0.8137,-0.8333,-0.8432,-0.8531,-0.8726,-0.8928,-0.9232,-0.873,-0.8652,-0.8991,-0.8361,-0.7809,-0.7429,-0.7743,-0.7918,-0.8028,-0.8055,-0.7819,-0.7307,-0.8319,-0.873,-0.8432,-0.8432,-0.8336,-0.8038,-0.8038,-0.7967,-0.7818,-0.7498,-0.7269,-0.7112,0.0,0.0,0.0,0.0,0.0,0.0,0.0,0.0,0.0,0.0,0.0,0.0,0.0,0.0,0.0,-1.3176,0.0,-1.4731,-1.4545,0.0,0.0,0.0,-1.6119,-1.598,-1.6175,-1.6452,-1.674,0.0,0.0,-1.9546,0.0,-2.176,-2.4565,-2.5576,-2.5879,-2.5852,-2.5977,-2.6013,-2.6139,-2.6013,-2.6151,-2.6527,-2.6966,-2.7206,-2.7142,-2.7373,-2.6747,-2.5415,-2.5168,-2.4608,-2.2895,-2.2212,-2.1792,-2.1343,-2.1001,-2.0773,-2.1145,-2.0841,-2.054,-2.113,-2.1151,-2.1159,-1.4476,-1.4055,-1.2931,-1.1848,-1.0914,-1.1061,-1.0414,-0.9217,-0.9019,-0.8605,-0.8181,-0.8021,-0.7838,-0.7667,-0.7767,-0.7784,-0.7721,-0.8028,-0.8199,-0.8333,-0.8528,-0.8821,-0.9217,-0.8825,-0.9023,-0.9525,-0.9229,-0.9232,-0.9529,-0.9426,-0.9106,-0.8867,-0.8732,-0.8459,-0.8346,-0.8379,-0.8455,-0.8568,-0.8718,-0.8542,-0.7829,-0.8836,-0.9038,-0.8432,-0.8432,-0.8333,-0.8336,-0.8137,-0.7967,-0.7824,-0.7983,-0.7907,-0.756,-0.7567,0.0,0.0,0.0,0.0,0.0,0.0,0.0,0.0,0.0,-0.9478,-1.0463,0.0,-1.244,0.0,-1.4175,-1.4906,-1.5276,-1.5016,0.0,0.0,-1.6613,-1.6966,-1.6327,-1.6475,-1.6754,-1.7048,-1.7301,-1.7914,-1.8939,-2.0048,-2.1213,-2.2647,-2.4361,-2.5313,-2.5048,-2.5811,-2.6435,-2.6426,-2.6417,-2.6472,-2.6545,-2.6488,-2.6144,-2.5459,-2.5368,-2.4902,-2.3651,-2.3168,-2.2718,-2.1939,-2.1167,-2.081,-2.1115,-2.0751,-2.0581,-2.1011,-2.1082,-2.0972,-2.1207,-2.1459,-2.1668,-1.4824,-1.4468,-1.4013,-1.327,-1.237,-1.1585,-1.0699,-0.9715,-0.9316,-0.892,-0.8528,-0.8137,-0.7994,-0.7913,-0.8014,-0.8014,-0.8112,-0.829,-0.8468,-0.8736,-0.8759,-0.8962,-0.933,-0.9061,-0.9267,-0.9742,-0.9542,-0.9585,-0.9864,-0.9868,-0.9758,-0.945,-0.945,-0.9307,-0.9114,-0.8674,-0.8641,-0.8825,-0.8935,-0.8969,-0.8937,-0.9341,-0.9241,-0.874,-0.874,-0.8503,-0.8237,-0.8041,-0.8001,-0.7919,-0.8024,-0.799,-0.7797,-0.7861,-0.7778,0.0,0.0,0.0,0.0,0.0,0.0,0.0,0.0,0.0,0.0,0.0,-1.3414,0.0,-1.5039,0.0,-1.579,-1.5676,-1.5828,-1.6488,-1.7204,-1.7374,-1.6896,-1.7048,-1.7244,-1.7341,-1.7482,-1.7862,-1.8435,-1.9252,-2.0019,-2.0761,-2.2409,-2.3946,-2.4723,-2.5217,-2.5569,-2.5907,-2.5679,-2.5348,-2.5348,-2.5165,-2.4837,-2.4247,-2.4105,-2.3661,-2.2543,-2.185,-2.1325,-2.0869,-2.0113,-1.9685,-2.0089,-1.9928,-1.9754,-1.9911,-2.02,-2.0489,-2.0596,-2.0553,-2.0485,-1.5005,-1.4773,-1.4419,-1.397,-1.3346,-1.1389,-1.0609,-1.0605,-0.9809,-0.9312,-0.9118,-0.8432,-0.8137,-0.8137,-0.8058,-0.8254,-0.8435,-0.8553,-0.8725,-0.9139,-0.9014,-0.9037,-0.9278,-0.9357,-0.9477,-0.9815,-1.0022,-1.0207,-1.0364,-1.0369,-1.0268,-1.0164,-1.0164,-1.006,-0.9735,-0.8936,-0.8582,-0.8759,-0.8855,-0.913,-0.9778,-0.9447,-0.9232,-0.9045,-0.9045,-0.8675,-0.8048,-0.8038,-0.8028,-0.8007,-0.7902,-0.7892,-0.7997,-0.7883,-0.79,0.0,-0.8083,0.0,0.0,0.0,0.0,0.0,0.0,0.0,0.0,-1.3326,-1.4423,-1.5153,-1.5821,-1.6188,-1.643,-1.6328,-1.6521,-1.7174,-1.7475,-1.7583,-1.7555,-1.7589,-1.7589,-1.7589,-1.7589,-1.7695,-1.8003,-1.8259,-1.8694,-1.9493,-2.0608,-2.2237,-2.4055,-2.4275,-2.4326,-2.4889,-2.4394,-2.3969,-2.3903,-2.3759,-2.3601,-2.3127,-2.2928,-2.2638,-2.1302,-2.075,-2.0347,-1.9881,-1.9313,-1.894,-1.9022,-1.9043,-1.8803,-1.8858,-1.9057,-1.9308,-1.9614,-1.9313,-1.8857,-1.5107,-1.4981,-1.4518,-1.4166,-1.3642,-1.1883,-1.1385,-1.196,-1.1184,-1.0109,-0.8924,-0.8619,-0.8524,-0.8641,-0.8664,-0.8747,-0.8733,-0.9168,-0.9276,-0.9187,-0.9585,-0.9953,-1.031,-1.0113,-1.0591,-1.1653,-1.1344,-1.1268,-1.12,-1.12,-1.0785,-0.9851,-0.9851,-0.9746,-0.9537,0.0,0.0,0.0,-0.8921,-0.9037,-0.8973,-0.8836,-0.8667,-0.8578,-0.8574,0.0,-0.8336,-0.8137,-0.798,-0.7865,-0.814,0.0,0.0,0.0,0.0,0.0,0.0,0.0,0.0,0.0,0.0,0.0,-1.3914,-1.4078,-1.3884,-1.4727,-1.5474,-1.6005,-1.6427,-1.6769,-1.699,-1.7219,-1.7337,-1.7495,-1.762,-1.7647,-1.7582,-1.7589,-1.7589,-1.7589,-1.7589,-1.7702,-1.7976,-1.8259,-1.8694,-1.9227,-1.9808,-2.0601,-2.1762,-2.3023,-2.3871,-2.4086,-2.3624,-2.3326,-2.3145,-2.279,-2.2241,-2.151,-2.1191,-2.0658,-1.9444,-1.922,-1.9312,-1.9331,-1.8871,-1.883,-1.9662,-1.9205,-1.861,-1.9141,-1.8679,-1.8531,-1.9273,-1.954,-1.965,-1.5185,0.0,-1.4678,-1.4439,0.0,-1.2699,-1.2349,-1.264,-1.1184,-1.0113,-0.9324,-0.8817,-0.8722,-0.8836,-0.9109,-0.9135,-0.9156,-0.9532,-0.9717,-0.982,-0.9919,-1.0281,-1.0581,-1.0789,-1.1041,-1.1344,-1.1549,-1.1393,-1.1056,-1.1061,-1.0852,-1.021,-1.0214,-1.021,-1.0103,-1.0,-0.9769,-0.9205,-0.9404,-0.9446,-0.9526,-0.9657,-0.9507,-0.919,0.0,0.0,0.0,0.0,0.0,0.0,0.0,0.0,0.0,0.0,0.0,-0.9972,-1.0734,-1.1596,-1.2554,-1.3114,-1.372,-1.4472,-1.5136,-1.5392,-1.5281,-1.585,-1.6393,-1.6697,-1.7055,-1.7219,-1.7364,-1.7483,-1.7589,-1.7589,-1.7589,-1.7589,-1.7589,-1.7589,-1.7589,-1.7589,-1.7589,-1.7649,-1.7789,-1.7922,-1.8212,-1.8624,-1.8926,-1.9423,-2.0029,-2.1204,-2.2024,-2.1961,-2.1654,-2.1386,-2.1209,-2.1056,-2.0735,-1.9997,-1.9733,-1.9396,-1.8576,-1.845,-1.8505,-1.8569,-1.8325,-1.8275,-1.8703,-1.8422,-1.8051,-1.8386,-1.8112,-1.7986,-1.8406,-1.8683,-1.8856,-1.53,-1.5457,-1.5034,-1.4829,-1.467,-1.3537,-1.2861,-1.2464,0.0,0.0,0.0,-0.9091,-0.8903,-0.9026,-0.9403,-0.967,-0.9646,-0.9819,-1.0067,-1.0379,-1.0266,-1.029,-1.0428,-1.105,-1.1072,-1.0692,-1.1429,-1.1509,-1.0907,-1.0911,-1.0802,-1.0692,-1.0692,-1.0692,-1.0692,-1.0692,-1.0442,-0.9953,-0.991,-0.9965,-1.0321,-1.0408,-1.0285,-0.9945,-0.9811,-0.956,-0.9089,-0.9048,-0.8967,-0.8836,-0.9438,-0.9557,-0.8965,-1.0181,-1.0721,-1.0197,-1.0965,-1.1918,-1.3002,-1.334,-1.4025,-1.5239,-1.5927,-1.6393,-1.6407,-1.6685,-1.7029,-1.7259,-1.7483,-1.7582,-1.7589,-1.7589,-1.7589,-1.7589,-1.7589,-1.7589,-1.7589,-1.7589,-1.7589,-1.7589,-1.7589,-1.7589,-1.7595,-1.7602,-1.7702,-1.7969,-1.8306,-1.8476,-1.8899,-1.9647,-2.0168,-1.987,-1.9733,-1.9358,-1.9294,-1.9361,-1.908,-1.8821,-1.8793,-1.861,-1.8296,-1.8115,-1.8016,-1.8122,-1.7799,-1.7694,-1.7687,-1.7799,-1.7589,-1.7589,-1.7589,-1.7589,-1.7589,-1.7589,-1.7932,-1.5469,-1.5493,-1.5421,-1.5258,-1.4951,-1.3362,-1.1918,-1.0686,-1.0826,-1.0549,-0.9855,-0.9587,-0.9657,-0.9991,-1.0063,-1.0059,-1.014,-1.0208,-1.0327,0.0,-1.0335,-1.0408,-1.044,-1.0666,-1.1172,-1.1742,-1.1964,-1.1864,-1.1782,-1.1787,-1.1455,-1.0802,-1.0692,-1.0692,-1.0692,-1.0692,-1.0668,-1.0506,-1.0142,-0.9968,-1.0099,-0.9754,-0.9579,-0.9463,-0.9335,-0.9229,-0.9078,-0.8948,-0.8851,-0.8829,-0.9063,-0.9244,-0.9447,-0.978,-1.0277,-1.1062,-1.1736,-1.2547,-1.3644,-1.414,-1.5002,-1.6008,-1.6419,-1.6703,-1.6756,-1.718,-1.7542,-1.7589,-1.7582,-1.7589,-1.7589,-1.7589,-1.7589,-1.7589,-1.7589,-1.7589,-1.7589,-1.7589,-1.7589,-1.7589,-1.7589,-1.7589,-1.7589,-1.7589,-1.7689,-1.7956,-1.7996,-1.8136,-1.8583,-1.9092,-1.9346,-1.9101,-1.8989,-1.8842,-1.8582,-1.8562,-1.8471,-1.819,-1.8105,-1.8099,-1.7813,-1.7694,-1.7799,-1.822,-1.7905,-1.7793,-1.8108,-1.7898,-1.7694,-1.7589,-1.7589,-1.7589,-1.7589,-1.7582,-1.7793,-1.571,-1.5587,-1.503,-1.47,-1.4482,-1.2683,-1.1291,-1.0268,-1.0598,-1.0435,-1.0042,-0.9908,-1.0048,-1.0176,-1.0355,-1.0396,-1.0318,-1.0493,-1.053,-1.0461,-1.0538,-1.0574,-1.0582,-1.1202,-1.1345,-1.135,-1.1787,-1.1787,-1.1345,-1.135,-1.1131,-1.0692,-1.0692,-1.0692,-1.0692,-1.0692,-1.0692,-1.0692,-1.0498,-1.0349,-1.0345,-1.017,-1.013,-1.013,-1.0048,-0.9965,-0.977,-0.9688,-0.9602,-0.9607,-0.9994,-1.0128,-0.9927,-1.0936,-1.1716,-1.203,-1.3152,-1.4091,-1.4696,-1.5083,-1.5609,-1.6269,-1.6546,-1.6784,-1.7045,-1.7422,-1.7582,-1.7589,-1.7589,-1.7589,-1.7589,-1.7589,-1.7589,-1.7589,-1.7589,-1.7589,-1.7589,-1.7589,-1.7589,-1.7589,-1.7589,-1.7589,-1.7589,-1.7589,-1.7622,-1.7776,-1.7796,-1.7862,-1.7989,-1.8218,-1.8447,-1.8333,-1.8331,-1.8174,-1.803,-1.7996,-1.7898,-1.7799,-1.7806,-1.7694,-1.7582,-1.7589,-1.7694,-1.7905,-1.7799,-1.7687,-1.7898,-1.7799,-1.7589,-1.7589,-1.7589,-1.7589,-1.7582,-1.7687,-1.7905,-1.5345,-1.5221,-1.44,-1.39,-1.3567,-1.2126,-1.1015,-1.0294,-1.0432,-1.0412,-1.0294,-1.0282,-1.0282,-1.0298,-1.0547,-1.0605,-1.0509,-1.0631,-1.0692,-1.0692,-1.0692,-1.0692,-1.0802,-1.1455,-1.135,-1.0802,-1.135,-1.135,-1.0802,-1.0692,-1.0692,-1.0692,-1.0692,-1.0692,-1.0692,-1.0692,-1.0692,-1.0692,-1.0692,-1.0692,-1.0692,-1.0692,-1.0692,-1.0692,-1.0761,-1.0679,-1.044,-1.0567,-1.0476,-1.0264,-1.1044,-1.1132,-1.0551,-1.2148,-1.3034,-1.2857,-1.4021,-1.506,-1.5407,-1.57,-1.5953,-1.6281,-1.6573,-1.6854,-1.7208,-1.7448,-1.7589,-1.7589,-1.7589,-1.7589,-1.7589,-1.7589,-1.7589,-1.7589,-1.7589,-1.7589,-1.7589,-1.7589,-1.7589,-1.7589,-1.7589,-1.7589,-1.7589,-1.7589,-1.7595,-1.7595,-1.7589,-1.7589,-1.7589,-1.7589,-1.7695,-1.7809,-1.7736,-1.7609,-1.7589,-1.7589,-1.7582,-1.7589,-1.7589,-1.7582,-1.7589,-1.7589,-1.7589,-1.7694,-1.7589,-1.7582,-1.7589,-1.7589,-1.7589,-1.7589,-1.7589,-1.7589,-1.7589,-1.7799,-1.8122,-1.3614,-1.3506,-1.3372,-1.294,-1.2181,-1.1946,-1.1389,-1.074,-1.066,-1.0664,-1.0623,-1.0639,-1.0631,-1.0647,-1.0655,-1.066,-1.0664,-1.0684,-1.0692,-1.0692,-1.0692,-1.0692,-1.0692,-1.0802,-1.0802,-1.0692,-1.0802,-1.0802,-1.0692,-1.0692,-1.0692,-1.0692,-1.0692,-1.0692,-1.0692,-1.0692,-1.0692,-1.0692,-1.0692,-1.0692,-1.0692,-1.0692,-1.0692,-1.0692,-1.0866,-1.0774,-1.0436,-1.1043,-1.1035,-1.0456,-1.1578,-1.2084,-1.1403,-1.2556,-1.319,-1.2986,-1.3796,-1.4484,-1.5063,-1.5593,-1.5926,-1.6314,-1.66,-1.6947,-1.7455,-1.7555,-1.7589,-1.7589,-1.7589,-1.7589,-1.7589,-1.7589,-1.7589,-1.7589,-1.7589,-1.7589,-1.7589,-1.7589,-1.7589,-1.7589,-1.7589,-1.7589,-1.7589,-1.7589,-1.7589,-1.7589,-1.7589,-1.7589,-1.7589,-1.7589,-1.7589,-1.7635,-1.7589,-1.7589,-1.7589,-1.7589,-1.7589,-1.7589,-1.7589,-1.7589,-1.7589,-1.7589,-1.7589,-1.7589,-1.7589,-1.7589,-1.7589,-1.7589,-1.7589,-1.7589,-1.7589,-1.7589,-1.7582,-1.7799,-1.8122,-1.329,-1.3295,-1.2758,-1.2001,-1.124,-1.124,-1.1017,-1.0692,-1.0692,-1.0692,-1.0692,-1.0692,-1.0692,-1.0692,-1.0692,-1.0692,-1.0692,-1.0692,-1.0692,-1.0692,-1.0692,-1.0692,-1.0692,-1.0692,-1.0692,-1.0692,-1.0692,-1.0692,-1.0692,-1.0692,-1.0692,-1.0692,-1.0692,-1.0692,-1.0692,-1.0692,-1.0692,-1.0692,-1.0684,-1.0794,-1.0907,-1.0802,-1.0802,-1.0903,-1.0841,-1.0804,-1.0791,-1.0967,-1.0979,-1.1045,-1.1562,-1.1911,-1.2014,-1.2876,-1.349,-1.3702,-1.4588,-1.5351,-1.5803,-1.5996,-1.6273,-1.6487,-1.6773,-1.7081,-1.7301,-1.7475,-1.7589,-1.7589,-1.7589,-1.7589,-1.7589,-1.7589,-1.7589,-1.7589,-1.7589,-1.7589,-1.7589,-1.7589,-1.7589,-1.7589,-1.7589,-1.7589,-1.7589,-1.7589,-1.7589,-1.7589,-1.7589,-1.7589,-1.7589,-1.7589,-1.7589,-1.7589,-1.7589,-1.7589,-1.7589,-1.7589,-1.7589,-1.7589,-1.7589,-1.7589,-1.7589,-1.7589,-1.7589,-1.7589,-1.7589,-1.7589,-1.7589,-1.7589,-1.7589,-1.7589,-1.7582,-1.7687,-1.7799,-1.7799,-1.8122,-1.2531,-1.2536,-1.1887,-1.124,-1.0692,-1.0692,-1.0692,-1.0692,-1.0692,-1.0692,-1.0692,-1.0692,-1.0692,-1.0692,-1.0692,-1.0692,-1.0692,-1.0692,-1.0692,-1.0692,-1.0692,-1.0692,-1.0692,-1.0692,-1.0692,-1.0692,-1.0692,-1.0692,-1.0692,-1.0692,-1.0692,-1.0692,-1.0692,-1.0692,-1.0798,-1.0692,-1.0802,-1.0907,-1.0785,-1.0899,-1.1126,-1.1131,-1.1131,-1.124,-1.1131,-1.1131,-1.1236,-1.1402,-1.1635,-1.169,-1.213,-1.25,-1.2842,-1.3622,-1.4255,-1.4631,-1.5364,-1.5823,-1.5952,-1.6129,-1.64,-1.6493,-1.6879,-1.7181,-1.7288,-1.7462,-1.7575,-1.7589,-1.7589,-1.7589,-1.7589,-1.7589,-1.7589,-1.7589,-1.7589,-1.7589,-1.7589,-1.7589,-1.7589,-1.7589,-1.7589,-1.7589,-1.7589,-1.7589,-1.7589,-1.7589,-1.7589,-1.7589,-1.7589,-1.7589,-1.7589,-1.7589,-1.7589,-1.7589,-1.7589,-1.7589,-1.7589,-1.7589,-1.7589,-1.7589,-1.7589,-1.7589,-1.7589,-1.7589,-1.7589,-1.7589,-1.7589,-1.7589,-1.7589,-1.7589,-1.7582,-1.7687,-1.7799,-1.7694,-1.7905,-1.0798,-1.0794,-1.0802,-1.0794,-1.0688,-1.0676,-1.068,-1.0651,-1.0672,-1.068,-1.0676,-1.068,-1.0688,-1.0692,-1.0692,-1.0692,-1.0692,-1.0692,-1.0692,-1.0692,-1.0692,-1.0692,-1.0692,-1.0692,-1.0692,-1.0692,-1.0692,-1.0692,-1.0692,-1.0692,-1.0692,-1.0692,-1.0692,-1.0798,-1.1021,-1.0802,-1.1021,-1.135,-1.1004,-1.1004,-1.1564,-1.1686,-1.1796,-1.1682,-1.1787,-1.1787,-1.1769,-1.2894,-1.3087,-1.2009,-1.3681,-1.4381,-1.3862,-1.469,-1.5356,-1.5625,-1.575,-1.5655,-1.5441,-1.5959,-1.6328,-1.6212,-1.6817,-1.7268,-1.7495,-1.7562,-1.7582,-1.7589,-1.7589,-1.7589,-1.7589,-1.7589,-1.7589,-1.7589,-1.7589,-1.7589,-1.7589,-1.7589,-1.7589,-1.7589,-1.7589,-1.7589,-1.7589,-1.7589,-1.7589,-1.7589,-1.7589,-1.7589,-1.7589,-1.7589,-1.7589,-1.7589,-1.7589,-1.7589,-1.7589,-1.7589,-1.7589,-1.7589,-1.7589,-1.7589,-1.7589,-1.7589,-1.7589,-1.7589,-1.7589,-1.7589,-1.7589,-1.7589,-1.7589,-1.7589,-1.7589,-1.7694,-1.7694,-1.7694,-1.7799,-1.0526,-1.0526,-1.0526,-1.0526,-1.0517,-1.0404,-1.0355,-1.0355,-1.0355,-1.0424,-1.0517,-1.0642,-1.0699,-1.0692,-1.0692,-1.0692,-1.0692,-1.0692,-1.0692,-1.0692,-1.0692,-1.0692,-1.0692,-1.0692,-1.0692,-1.0692,-1.0692,-1.0692,-1.0692,-1.0692,-1.0692,-1.0692,-1.0692,-1.0802,-1.0802,-1.0907,-1.1131,-1.1236,-1.1227,-1.1442,-1.1782,-1.2114,-1.2228,-1.2114,-1.1896,-1.2005,-1.2441,-1.2474,-1.2476,-1.276,-1.3169,-1.3324,-1.3639,-1.4383,-1.5341,-1.6016,-1.5932,-1.5817,-1.5919,-1.6288,-1.658,-1.677,-1.7158,-1.7448,-1.7555,-1.7589,-1.7589,-1.7589,-1.7589,-1.7589,-1.7589,-1.7589,-1.7589,-1.7589,-1.7589,-1.7589,-1.7589,-1.7589,-1.7589,-1.7589,-1.7589,-1.7589,-1.7589,-1.7589,-1.7589,-1.7589,-1.7589,-1.7589,-1.7589,-1.7589,-1.7589,-1.7589,-1.7589,-1.7589,-1.7589,-1.7589,-1.7589,-1.7589,-1.7589,-1.7589,-1.7589,-1.7589,-1.7589,-1.7589,-1.7589,-1.7589,-1.7589,-1.7589,-1.7589,-1.7589,-1.7589,-1.7589,-1.7589,-1.7589,-1.7694,-1.0347,-1.0347,-1.0347,-1.0351,-1.0331,-1.0213,-1.016,-1.0168,-1.0225,-1.0322,-1.0428,-1.0605,-1.067,-1.0603,-1.0607,-1.057,-1.0542,-1.0631,-1.0692,-1.0692,-1.0692,-1.0692,-1.0692,-1.0692,-1.0692,-1.0692,-1.0692,-1.0692,-1.0692,-1.0692,-1.0692,-1.0802,-1.0802,-1.0911,-1.1131,-1.124,-1.1345,-1.1455,-1.1551,-1.1769,-1.211,-1.2332,-1.2436,-1.2332,-1.2001,-1.2114,-1.2663,-1.2332,-1.245,-1.3087,-1.3138,-1.3545,-1.4276,-1.4914,-1.5611,-1.6288,-1.6233,-1.6139,-1.6202,-1.6633,-1.6887,-1.6912,-1.7368,-1.7589,-1.7589,-1.7589,-1.7589,-1.7589,-1.7589,-1.7589,-1.7589,-1.7589,-1.7589,-1.7589,-1.7589,-1.7589,-1.7589,-1.7589,-1.7589,-1.7589,-1.7589,-1.7589,-1.7589,-1.7589,-1.7589,-1.7589,-1.7589,-1.7589,-1.7589,-1.7589,-1.7589,-1.7589,-1.7589,-1.7589,-1.7589,-1.7589,-1.7589,-1.7589,-1.7589,-1.7589,-1.7589,-1.7589,-1.7589,-1.7589,-1.7589,-1.7589,-1.7589,-1.7589,-1.7589,-1.7589,-1.7589,-1.7589,-1.7589,-1.7589,-1.7694,-1.0164,-1.016,-1.0164,-1.016,-1.0152,-1.0119,-1.014,-1.0144,-1.0306,-1.0367,-1.0412,-1.0586,-1.057,-1.0473,-1.0357,-1.0245,-1.0282,-1.0505,-1.0647,-1.0664,-1.0684,-1.0692,-1.0692,-1.0692,-1.0692,-1.0692,-1.0692,-1.0692,-1.0692,-1.0692,-1.0802,-1.1017,-1.1017,-1.135,-1.1896,-1.1678,-1.1787,-1.211,-1.1878,-1.1878,-1.2323,-1.2436,-1.2436,-1.2436,-1.2327,-1.2332,-1.2441,-1.2876,-1.3106,-1.3229,-1.4118,-1.5366,-1.5878,-1.6293,-1.6593,-1.67,-1.668,-1.6447,-1.6085,-1.6706,-1.6892,-1.6737,-1.7171,-1.7589,-1.7589,-1.7589,-1.7589,-1.7589,-1.7589,-1.7589,-1.7582,-1.7549,-1.7555,-1.7589,-1.7589,-1.7589,-1.7589,-1.7589,-1.7589,-1.7589,-1.7589,-1.7589,-1.7589,-1.7589,-1.7589,-1.7589,-1.7589,-1.7589,-1.7589,-1.7589,-1.7589,-1.7589,-1.7589,-1.7589,-1.7589,-1.7589,-1.7589,-1.7589,-1.7589,-1.7589,-1.7589,-1.7589,-1.7589,-1.7589,-1.7589,-1.7589,-1.7589,-1.7589,-1.7589,-1.7589,-1.7589,-1.7589,-1.7589,-1.7589,-1.7589,-1.0087,-0.9973,-0.9969,-0.9969,-0.9953,-0.9843,-0.9795,-0.9815,-0.9981,-1.0123,-1.0266,-1.0436,-1.0485,-1.0444,-1.0325,-1.0331,-1.018,-1.0286,-1.0391,-1.0509,-1.0631,-1.0684,-1.0688,-1.0692,-1.0692,-1.0692,-1.0692,-1.0692,-1.0692,-1.0692,-1.0798,-1.1017,-1.1126,-1.1345,-1.1787,-1.1787,-1.2005,-1.1996,-1.2105,-1.2214,-1.2327,-1.2436,-1.2436,-1.2436,-1.2436,-1.2436,-1.2436,-1.255,-1.3166,-1.3944,-1.4006,-1.4613,-1.5766,-1.5897,-1.6195,-1.6859,-1.6807,-1.668,-1.6534,-1.6907,-1.7121,-1.6992,-1.7368,-1.7555,-1.7589,-1.7589,-1.7589,-1.7589,-1.7589,-1.7589,-1.7555,-1.7388,-1.7382,-1.7562,-1.7589,-1.7575,-1.7589,-1.7589,-1.7589,-1.7589,-1.7589,-1.7589,-1.7589,-1.7589,-1.7589,-1.7589,-1.7589,-1.7589,-1.7589,-1.7589,-1.7589,-1.7589,-1.7589,-1.7589,-1.7589,-1.7589,-1.7589,-1.7589,-1.7589,-1.7589,-1.7589,-1.7589,-1.7589,-1.7589,-1.7589,-1.7589,-1.7589,-1.7589,-1.7589,-1.7589,-1.7589,-1.7589,-1.7589,-1.7589,-1.7589,-0.9896,-0.9795,-0.9791,-0.9791,-0.9778,-0.9669,-0.9628,-0.9652,-0.9807,-0.9953,-1.0095,-1.0327,-1.0396,-1.0347,-1.0229,-1.0124,-1.0079,-1.0024,-1.0084,-1.0274,-1.0497,-1.059,-1.0611,-1.0668,-1.0692,-1.0692,-1.0692,-1.0692,-1.0692,-1.0692,-1.0911,-1.124,-1.1236,-1.1564,-1.1896,-1.2114,-1.2114,-1.211,-1.2332,-1.2436,-1.2436,-1.2436,-1.2436,-1.2436,-1.2649,-1.2866,-1.2866,-1.3192,-1.3619,-1.425,-1.4333,-1.5211,-1.645,-1.6407,-1.6594,-1.7118,-1.7148,-1.7001,-1.6927,-1.7154,-1.7255,-1.7228,-1.7415,-1.7582,-1.7589,-1.7589,-1.7589,-1.7589,-1.7475,-1.7462,-1.7515,-1.7321,-1.7255,-1.7382,-1.7408,-1.7468,-1.7542,-1.7589,-1.7589,-1.7589,-1.7589,-1.7589,-1.7589,-1.7589,-1.7589,-1.7589,-1.7589,-1.7589,-1.7589,-1.7589,-1.7589,-1.7589,-1.7589,-1.7589,-1.7589,-1.7589,-1.7589,-1.7589,-1.7589,-1.7589,-1.7589,-1.7589,-1.7589,-1.7589,-1.7589,-1.7589,-1.7589,-1.7589,-1.7589,-1.7589,-1.7589,-1.7589,-1.7589,-1.7589,-1.7589,-0.9632,-0.9624,-0.9628,-0.964,-0.964,-0.9628,-0.9624,-0.9652,-0.9811,-0.9892,-0.9973,-1.0253,-1.0306,-1.0072,-0.9943,-0.9844,-0.9819,-0.9808,-0.9804,-0.9919,-1.0233,-1.044,-1.0517,-1.0635,-1.0688,-1.0692,-1.0692,-1.0692,-1.0802,-1.0802,-1.1017,-1.1564,-1.1673,-1.1896,-1.2223,-1.2436,-1.2327,-1.2327,-1.2436,-1.2436,-1.2436,-1.2545,-1.2545,-1.2654,-1.3295,-1.3722,-1.383,-1.4476,-1.4578,-1.4261,-1.5388,-1.6529,-1.7338,-1.7569,-1.7482,-1.7528,-1.7569,-1.7402,-1.7281,-1.7382,-1.7455,-1.7275,-1.7435,-1.7589,-1.7589,-1.7589,-1.7589,-1.7575,-1.7382,-1.7321,-1.7475,-1.7321,-1.7174,-1.7032,-1.7188,-1.7301,-1.7535,-1.7589,-1.7589,-1.7589,-1.7589,-1.7589,-1.7589,-1.7589,-1.7589,-1.7589,-1.7589,-1.7589,-1.7589,-1.7589,-1.7589,-1.7589,-1.7589,-1.7589,-1.7589,-1.7589,-1.7589,-1.7589,-1.7589,-1.7589,-1.7589,-1.7589,-1.7589,-1.7589,-1.7589,-1.7589,-1.7589,-1.7589,-1.7589,-1.7589,-1.7589,-1.7589,-1.7589,-1.7589,-1.7589,-0.9624,-0.9624,-0.9624,-0.9624,-0.9624,-0.9624,-0.9624,-0.9648,-0.9811,-0.9872,-0.9937,-1.0128,-1.0032,-0.9666,-0.9658,-0.9462,-0.9373,-0.9369,-0.9457,-0.9762,-1.0067,-1.0383,-1.0582,-1.0664,-1.0692,-1.0692,-1.0692,-1.0916,-1.1253,-1.1135,-1.135,-1.1896,-1.1891,-1.2005,-1.2332,-1.2436,-1.2436,-1.2436,-1.2436,-1.2441,-1.255,-1.3315,-1.3532,-1.3511,-1.4153,-1.4691,-1.4793,-1.5547,-1.5867,-1.5743,-1.6409,-1.716,-1.7542,-1.7408,-1.7395,-1.7555,-1.7582,-1.7562,-1.7502,-1.7535,-1.7535,-1.7488,-1.7528,-1.7582,-1.7589,-1.7589,-1.7589,-1.7575,-1.7495,-1.7364,-1.7272,-1.7198,-1.7161,-1.7141,-1.7154,-1.7261,-1.7508,-1.7589,-1.7589,-1.7589,-1.7589,-1.7589,-1.7589,-1.7589,-1.7589,-1.7589,-1.7589,-1.7589,-1.7589,-1.7589,-1.7589,-1.7589,-1.7589,-1.7589,-1.7589,-1.7589,-1.7589,-1.7589,-1.7589,-1.7589,-1.7589,-1.7589,-1.7589,-1.7589,-1.7589,-1.7589,-1.7589,-1.7589,-1.7589,-1.7589,-1.7589,-1.7589,-1.7589,-1.7589,-1.7589,-0.9624,-0.9624,-0.9624,-0.9624,-0.9624,-0.9624,-0.9624,-0.9644,-0.9726,-0.9778,-0.9819,-0.9965,-0.9883,-0.9489,-0.9384,-0.9236,-0.9149,-0.9141,-0.9207,-0.9494,-1.0006,-1.0351,-1.0615,-1.0692,-1.0692,-1.0692,-1.0692,-1.1029,-1.1476,-1.1244,-1.1459,-1.1891,-1.2001,-1.211,-1.2332,-1.2436,-1.2436,-1.2436,-1.2436,-1.255,-1.3207,-1.3759,-1.418,-1.4374,-1.512,-1.5654,-1.608,-1.6617,-1.6829,-1.6909,-1.7219,-1.7408,-1.7542,-1.7428,-1.7415,-1.7582,-1.7589,-1.7589,-1.7589,-1.7589,-1.7589,-1.7582,-1.7589,-1.7589,-1.7589,-1.7589,-1.7589,-1.7582,-1.7488,-1.735,-1.7272,-1.7198,-1.7235,-1.7301,-1.7221,-1.7281,-1.7549,-1.7589,-1.7589,-1.7589,-1.7589,-1.7589,-1.7589,-1.7589,-1.7589,-1.7589,-1.7589,-1.7589,-1.7589,-1.7589,-1.7589,-1.7589,-1.7589,-1.7589,-1.7589,-1.7589,-1.7589,-1.7589,-1.7589,-1.7589,-1.7589,-1.7589,-1.7589,-1.7589,-1.7589,-1.7589,-1.7589,-1.7589,-1.7589,-1.7589,-1.7589,-1.7589,-1.7589,-1.7589,-1.7589,-0.9557,-0.9553,-0.9533,-0.9529,-0.9525,-0.9529,-0.9525,-0.9529,-0.9537,-0.9541,-0.9673,-0.9795,-0.9645,-0.9454,-0.9221,-0.9041,-0.903,-0.9101,-0.9168,-0.9485,-0.9883,-1.0294,-1.0607,-1.0789,-1.0798,-1.0798,-1.0802,-1.1135,-1.1468,-1.135,-1.1568,-1.2005,-1.211,-1.2219,-1.2545,-1.2545,-1.2441,-1.2545,-1.2422,-1.2743,-1.3619,-1.4169,-1.4702,-1.5114,-1.5974,-1.6723,-1.7259,-1.7477,-1.7477,-1.7589,-1.7589,-1.7569,-1.7582,-1.7575,-1.7575,-1.7575,-1.7589,-1.7589,-1.7589,-1.7589,-1.7589,-1.7589,-1.7589,-1.7589,-1.7589,-1.7589,-1.7589,-1.7589,-1.7341,-1.7388,-1.7488,-1.7348,-1.7341,-1.7462,-1.7335,-1.7355,-1.7508,-1.7589,-1.7589,-1.7589,-1.7589,-1.7589,-1.7589,-1.7589,-1.7589,-1.7589,-1.7589,-1.7589,-1.7589,-1.7589,-1.7589,-1.7589,-1.7589,-1.7589,-1.7589,-1.7589,-1.7589,-1.7589,-1.7589,-1.7589,-1.7589,-1.7589,-1.7589,-1.7589,-1.7589,-1.7589,-1.7589,-1.7589,-1.7589,-1.7589,-1.7589,-1.7589,-1.7589,-1.7589,-1.7589,-0.9229,-0.9217,-0.8984,-0.8924,-0.8924,-0.9027,-0.913,-0.9236,-0.9027,-0.9225,-0.9438,-0.9478,-0.9295,-0.9195,-0.9007,-0.8877,-0.8907,-0.8914,-0.9114,-0.975,-0.9884,-1.0156,-1.0461,-1.0837,-1.0903,-1.0903,-1.1236,-1.1455,-1.1559,-1.1782,-1.2005,-1.2232,-1.2446,-1.2659,-1.3202,-1.2772,-1.2758,-1.3181,-1.2714,-1.2586,-1.3244,-1.4663,-1.553,-1.5843,-1.6717,-1.7371,-1.7477,-1.7589,-1.7589,-1.7589,-1.7589,-1.7589,-1.7589,-1.7589,-1.7589,-1.7589,-1.7589,-1.7589,-1.7589,-1.7589,-1.7589,-1.7589,-1.7589,-1.7589,-1.7589,-1.7589,-1.7589,-1.7582,-1.7528,-1.7508,-1.7555,-1.7535,-1.7515,-1.7542,-1.7515,-1.7488,-1.7569,-1.7589,-1.7589,-1.7589,-1.7589,-1.7589,-1.7589,-1.7589,-1.7589,-1.7589,-1.7589,-1.7589,-1.7589,-1.7589,-1.7589,-1.7589,-1.7589,-1.7589,-1.7589,-1.7589,-1.7589,-1.7589,-1.7589,-1.7589,-1.7589,-1.7589,-1.7589,-1.7589,-1.7589,-1.7589,-1.7589,-1.7589,-1.7589,-1.7589,-1.7589,-1.7589,-1.7589,-1.7589,-1.7589,-0.9149,-0.9071,-0.8981,-0.8896,-0.8832,-0.8825,-0.8928,-0.8931,-0.8829,-0.8924,-0.9126,-0.9027,-0.9031,-0.9042,-0.8811,-0.8747,-0.8743,-0.8948,-0.9236,-0.9776,-0.9927,-1.0172,-1.0515,-1.1029,-1.124,-1.124,-1.1459,-1.1673,-1.1891,-1.201,-1.2165,-1.2569,-1.2816,-1.3272,-1.3738,-1.3247,-1.33,-1.3388,-1.2916,-1.267,-1.3434,-1.4955,-1.6268,-1.6599,-1.7252,-1.7589,-1.7589,-1.7589,-1.7589,-1.7589,-1.7589,-1.7589,-1.7589,-1.7589,-1.7589,-1.7589,-1.7589,-1.7589,-1.7589,-1.7589,-1.7589,-1.7589,-1.7589,-1.7589,-1.7589,-1.7589,-1.7589,-1.7589,-1.7582,-1.7582,-1.7589,-1.7582,-1.7589,-1.7589,-1.7589,-1.7589,-1.7589,-1.7589,-1.7589,-1.7589,-1.7589,-1.7589,-1.7589,-1.7589,-1.7589,-1.7589,-1.7589,-1.7589,-1.7589,-1.7589,-1.7589,-1.7589,-1.7589,-1.7589,-1.7589,-1.7589,-1.7589,-1.7589,-1.7589,-1.7589,-1.7589,-1.7589,-1.7589,-1.7477,-1.7477,-1.7589,-1.7589,-1.7589,-1.7477,-1.7582,-1.7582,-1.7589,-1.7589,-1.7483,-1.7483,-0.9164,-0.901,-0.8987,-0.8881,-0.8641,-0.8627,-0.8627,-0.8726,-0.8726,-0.8726,-0.8836,-0.8744,-0.8892,-0.8907,-0.8849,-0.8808,-0.8915,-0.9123,-0.9503,-0.9904,-1.0128,-1.0355,-1.0642,-1.1212,-1.1533,-1.1577,-1.1791,-1.2005,-1.2119,-1.2242,-1.2321,-1.2788,-1.3406,-1.3847,-1.4077,-1.3853,-1.3727,-1.3825,-1.3004,-1.3101,-1.4308,-1.5506,-1.6704,-1.7252,-1.7477,-1.7589,-1.7589,-1.7589,-1.7589,-1.7589,-1.7589,-1.7589,-1.7589,-1.7589,-1.7589,-1.7589,-1.7589,-1.7589,-1.7589,-1.7589,-1.7589,-1.7589,-1.7589,-1.7589,-1.7589,-1.7589,-1.7589,-1.7589,-1.7589,-1.7589,-1.7589,-1.7589,-1.7589,-1.7589,-1.7589,-1.7589,-1.7589,-1.7589,-1.7589,-1.7589,-1.7589,-1.7589,-1.7589,-1.7589,-1.7589,-1.7589,-1.7589,-1.7589,-1.7589,-1.7589,-1.7589,-1.7589,-1.7589,-1.7589,-1.7589,-1.7153,-1.716,-1.7153,-1.7265,-1.7153,-1.7153,-1.6836,-1.6617,-1.7153,-1.7259,-1.7265,-1.7153,-1.7047,-1.7047,-1.7265,-1.7265,-1.716,-1.716,-1.7265,-1.7265,-0.869,-0.8539,-0.8525,-0.8282,-0.8151,-0.8141,-0.8244,-0.8432,-0.824,-0.8435,-0.8752,-0.8776,-0.8936,-0.9282,-0.9212,-0.9387,-0.9514,-0.9615,-0.9939,-1.0297,-1.0305,-1.0493,-1.1091,-1.1379,-1.1562,-1.1864,-1.211,-1.211,-1.2114,-1.2232,-1.2335,-1.2562,-1.3302,-1.4179,-1.45,-1.4288,-1.4153,-1.4454,-1.3296,-1.3281,-1.4742,-1.628,-1.7252,-1.7589,-1.7589,-1.7589,-1.7589,-1.7589,-1.7589,-1.7589,-1.7589,-1.7589,-1.7589,-1.7589,-1.7589,-1.7589,-1.7589,-1.7589,-1.7589,-1.7589,-1.7589,-1.7589,-1.7589,-1.7589,-1.7589,-1.7589,-1.7589,-1.7589,-1.7589,-1.7589,-1.7589,-1.7589,-1.7589,-1.7589,-1.7589,-1.7589,-1.7589,-1.7589,-1.7589,-1.7589,-1.7589,-1.7589,-1.7589,-1.7589,-1.7589,-1.7589,-1.7589,-1.7589,-1.7589,-1.7589,-1.7589,-1.7589,-1.7589,-1.7589,-1.7589,-1.6942,-1.6511,-1.6405,-1.6399,-1.608,-1.5974,-1.5547,-1.5547,-1.5974,-1.6293,-1.6293,-1.6187,-1.6299,-1.6187,-1.6187,-1.6405,-1.663,-1.6518,-1.6411,-1.6418,-0.8629,-0.8598,-0.8523,-0.8364,-0.818,-0.8157,-0.821,-0.8155,-0.822,-0.8258,-0.8501,-0.8713,-0.8998,-0.9354,-0.9482,-0.9598,-0.9758,-0.9902,-1.0142,-1.0506,-1.0576,-1.0822,-1.141,-1.1536,-1.1697,-1.1982,-1.2223,-1.2327,-1.2223,-1.2327,-1.2454,-1.288,-1.3738,-1.4711,-1.5068,-1.4717,-1.4928,-1.4984,-1.3709,-1.3357,-1.5062,-1.6698,-1.7477,-1.7589,-1.7589,-1.7589,-1.7589,-1.7589,-1.7589,-1.7589,-1.7589,-1.7589,-1.7589,-1.7589,-1.7589,-1.7589,-1.7589,-1.7589,-1.7589,-1.7589,-1.7589,-1.7589,-1.7589,-1.7589,-1.7589,-1.7589,-1.7589,-1.7589,-1.7589,-1.7589,-1.7589,-1.7589,-1.7589,-1.7589,-1.7589,-1.7589,-1.7589,-1.7589,-1.7589,-1.7589,-1.7589,-1.7589,-1.7589,-1.7589,-1.7589,-1.7589,-1.7589,-1.7589,-1.7589,-1.7589,-1.7589,-1.7477,-1.7477,-1.7153,-1.7047,-1.6405,-1.5761,-1.5654,-1.5541,-1.5328,-1.5114,-1.4798,-1.4583,-1.4798,-1.49,-1.5221,-1.5441,-1.5547,-1.5221,-1.5114,-1.5441,-1.566,-1.5553,-1.5452,-1.5565,-0.862,-0.8713,-0.8713,-0.8557,-0.8336,-0.8313,-0.8248,-0.817,-0.8258,-0.8313,-0.8436,-0.8769,-0.9159,-0.9417,-0.9644,-0.9899,-1.0021,-1.0089,-1.0446,-1.0824,-1.087,-1.1216,-1.1742,-1.1896,-1.1996,-1.2105,-1.2332,-1.2327,-1.2219,-1.2327,-1.2698,-1.3271,-1.4467,-1.5327,-1.5603,-1.5584,-1.5869,-1.5399,-1.4248,-1.3896,-1.5453,-1.6797,-1.7589,-1.7589,-1.7589,-1.7589,-1.7589,-1.7589,-1.7589,-1.7589,-1.7589,-1.7589,-1.7589,-1.7589,-1.7589,-1.7589,-1.7589,-1.7589,-1.7589,-1.7589,-1.7589,-1.7589,-1.7589,-1.7589,-1.7589,-1.7589,-1.7589,-1.7589,-1.7589,-1.7589,-1.7589,-1.7589,-1.7589,-1.7589,-1.7589,-1.7589,-1.7589,-1.7589,-1.7589,-1.7589,-1.7589,-1.7589,-1.7589,-1.7589,-1.7589,-1.7589,-1.7589,-1.7589,-1.7589,-1.7589,-1.7589,-1.7371,-1.7153,-1.6723,-1.6293,-1.5761,-1.5227,-1.4793,-1.4685,-1.4471,-1.4363,-1.4153,-1.4046,-1.3722,-1.3835,-1.4153,-1.4476,-1.4583,-1.4369,-1.4369,-1.4583,-1.4691,-1.4379,-1.4493,-1.4708,-0.8623,-0.8713,-0.8713,-0.8611,-0.8472,-0.8459,-0.8448,-0.8421,-0.8442,-0.8459,-0.8469,-0.8927,-0.9326,-0.9681,-1.0241,-1.055,-1.0562,-1.066,-1.0862,-1.1337,-1.1197,-1.1516,-1.2105,-1.2005,-1.2219,-1.2332,-1.2436,-1.2219,-1.2327,-1.2436,-1.2961,-1.3857,-1.4784,-1.5893,-1.6459,-1.6381,-1.6421,-1.6111,-1.5246,-1.5453,-1.6903,-1.747,-1.7582,-1.7589,-1.7589,-1.7589,-1.7589,-1.7589,-1.7589,-1.7589,-1.7589,-1.7589,-1.7589,-1.7589,-1.7589,-1.7589,-1.7589,-1.7589,-1.7589,-1.7589,-1.7589,-1.7589,-1.7589,-1.7589,-1.7589,-1.7589,-1.7589,-1.7589,-1.7589,-1.7589,-1.7589,-1.7589,-1.7589,-1.7589,-1.7589,-1.7589,-1.7589,-1.7589,-1.7589,-1.7589,-1.7589,-1.7589,-1.7589,-1.7589,-1.7589,-1.7589,-1.7589,-1.7589,-1.7477,-1.7371,-1.7371,-1.7153,-1.673,-1.6293,-1.5541,-1.5007,-1.4476,-1.3938,-1.383,-1.3722,-1.3506,-1.3403,-1.2975,-1.2866,-1.2975,-1.3083,-1.33,-1.3408,-1.3408,-1.3511,-1.3727,-1.3516,-1.3202,-1.3418,-1.3851,-0.8125,-0.8288,-0.8507,-0.8534,-0.8408,-0.8401,-0.8454,-0.8513,-0.8574,-0.8611,-0.8749,-0.9313,-0.9817,-1.0155,-1.0558,-1.0688,-1.0692,-1.0802,-1.1131,-1.1564,-1.1564,-1.1891,-1.2219,-1.2327,-1.2436,-1.2866,-1.2762,-1.2758,-1.2649,-1.2683,-1.2937,-1.416,-1.5022,-1.5961,-1.6944,-1.6776,-1.6877,-1.69,-1.6685,-1.6903,-1.7364,-1.7589,-1.7589,-1.7589,-1.7589,-1.7589,-1.7589,-1.7589,-1.7589,-1.7589,-1.7589,-1.7589,-1.7589,-1.7589,-1.7589,-1.7589,-1.7589,-1.7589,-1.7589,-1.7589,-1.7589,-1.7589,-1.7589,-1.7589,-1.7589,-1.7589,-1.7589,-1.7589,-1.7589,-1.7589,-1.7589,-1.7589,-1.7589,-1.7589,-1.7589,-1.7589,-1.7589,-1.7589,-1.7589,-1.7589,-1.7589,-1.7589,-1.7477,-1.7477,-1.7477,-1.7589,-1.7371,-1.7153,-1.6942,-1.6723,-1.6723,-1.673,-1.6299,-1.5761,-1.49,-1.4153,-1.3727,-1.3295,-1.3083,-1.2866,-1.2758,-1.2436,-1.2436,-1.2436,-1.2654,-1.2654,-1.2441,-1.2545,-1.2866,-1.2866,-1.2871,-1.2762,-1.2659,-1.2881,-1.331,-0.7826,-0.7937,-0.8377,-0.8426,-0.8336,-0.8445,-0.8494,-0.8621,-0.872,-0.8771,-0.8903,-0.9428,-1.0139,-1.0582,-1.0688,-1.0692,-1.0692,-1.1017,-1.124,-1.1568,-1.1896,-1.2114,-1.2327,-1.2436,-1.2866,-1.3727,-1.3083,-1.3295,-1.364,-1.3707,-1.3847,-1.4589,-1.5649,-1.6404,-1.7045,-1.7251,-1.7456,-1.7397,-1.747,-1.747,-1.7589,-1.7589,-1.7589,-1.7589,-1.7589,-1.7589,-1.7589,-1.7589,-1.7589,-1.7589,-1.7589,-1.7589,-1.7589,-1.7589,-1.7589,-1.7589,-1.7589,-1.7589,-1.7589,-1.7589,-1.7589,-1.7589,-1.7589,-1.7589,-1.7589,-1.7589,-1.7589,-1.7589,-1.7589,-1.7589,-1.7589,-1.7589,-1.7589,-1.7589,-1.7589,-1.7589,-1.7589,-1.7582,-1.7371,-1.7153,-1.7153,-1.7371,-1.7265,-1.7259,-1.7265,-1.7477,-1.7265,-1.6723,-1.6405,-1.608,-1.608,-1.6086,-1.5761,-1.5227,-1.4369,-1.3619,-1.3083,-1.2762,-1.2545,-1.2436,-1.2436,-1.2436,-1.2436,-1.2436,-1.2327,-1.2332,-1.2223,-1.2332,-1.2436,-1.2545,-1.2545,-1.2436,-1.2436,-1.255,-1.2663,-0.7826,-0.7718,-0.8263,-0.8478,-0.8462,-0.8699,-0.8799,-0.8866,-0.8899,-0.8903,-0.8986,-0.9467,-1.012,-1.055,-1.0631,-1.0643,-1.068,-1.1017,-1.1341,-1.1673,-1.1896,-1.2223,-1.2332,-1.2545,-1.2871,-1.3619,-1.3516,-1.3943,-1.4736,-1.4967,-1.5325,-1.5816,-1.6416,-1.7439,-1.7929,-1.7928,-1.7793,-1.7675,-1.7589,-1.7589,-1.7589,-1.7589,-1.7589,-1.7589,-1.7589,-1.7589,-1.7589,-1.7589,-1.7589,-1.7589,-1.7589,-1.7589,-1.7589,-1.7589,-1.7589,-1.7589,-1.7589,-1.7589,-1.7589,-1.7589,-1.7589,-1.7589,-1.7589,-1.7589,-1.7589,-1.7589,-1.7589,-1.7589,-1.7589,-1.7589,-1.7589,-1.7589,-1.7589,-1.7589,-1.7589,-1.7589,-1.7582,-1.7371,-1.7153,-1.6723,-1.6617,-1.6617,-1.6405,-1.6193,-1.6723,-1.6942,-1.598,-1.5441,-1.5654,-1.5547,-1.5441,-1.5334,-1.5114,-1.4583,-1.383,-1.3186,-1.2762,-1.2545,-1.2436,-1.2436,-1.2436,-1.2436,-1.2327,-1.2223,-1.2223,-1.2114,-1.2005,-1.211,-1.2219,-1.2223,-1.2223,-1.211,-1.2001,-1.2114,-1.2005,-0.749,-0.7607,-0.8045,-0.8263,-0.8484,-0.8598,-0.8712,-0.8937,-0.8937,-0.9099,-0.9226,-0.9652,-1.0035,-1.0293,-1.0375,-1.0543,-1.0845,-1.1074,-1.1467,-1.176,-1.211,-1.2332,-1.2436,-1.2654,-1.3078,-1.4046,-1.4051,-1.4256,-1.5155,-1.5808,-1.601,-1.6381,-1.712,-1.7709,-1.8275,-1.8176,-1.7829,-1.7702,-1.7589,-1.7589,-1.7589,-1.7589,-1.7589,-1.7589,-1.7589,-1.7589,-1.7589,-1.7589,-1.7589,-1.7589,-1.7589,-1.7589,-1.7589,-1.7589,-1.7589,-1.7589,-1.7589,-1.7589,-1.7589,-1.7589,-1.7589,-1.7589,-1.7589,-1.7589,-1.7589,-1.7589,-1.7589,-1.7589,-1.7589,-1.7589,-1.7589,-1.7589,-1.7589,-1.7589,-1.7589,-1.7595,-1.7483,-1.7265,-1.6829,-1.6299,-1.5867,-1.5654,-1.5334,-1.5013,-1.5761,-1.6293,-1.5227,-1.4369,-1.4583,-1.4798,-1.4691,-1.4583,-1.4369,-1.3938,-1.3186,-1.2758,-1.2436,-1.2436,-1.2327,-1.2327,-1.2327,-1.2219,-1.211,-1.2114,-1.2005,-1.1787,-1.1787,-1.1891,-1.1891,-1.2005,-1.1896,-1.1787,-1.1678,-1.1568,-1.1568,-0.7493,-0.7715,-0.8156,-0.8374,-0.8595,-0.8598,-0.8823,-0.904,-0.8992,-0.9215,-0.9602,-0.9694,-0.9961,-1.0088,-1.0241,-1.0472,-1.0818,-1.122,-1.1518,-1.1909,-1.2177,-1.2318,-1.2441,-1.2871,-1.3614,-1.4578,-1.4917,-1.5115,-1.6091,-1.6649,-1.6998,-1.7278,-1.7672,-1.8379,-1.8189,-1.7923,-1.7595,-1.7589,-1.7589,-1.7589,-1.7589,-1.7589,-1.7589,-1.7589,-1.7589,-1.7589,-1.7589,-1.7589,-1.7589,-1.7589,-1.7589,-1.7589,-1.7589,-1.7589,-1.7589,-1.7589,-1.7589,-1.7589,-1.7589,-1.7589,-1.7589,-1.7589,-1.7589,-1.7589,-1.7589,-1.7589,-1.7589,-1.7589,-1.7589,-1.7589,-1.7589,-1.7589,-1.7589,-1.7589,-1.7635,-1.7536,-1.7292,-1.6955,-1.6411,-1.5867,-1.5441,-1.512,-1.4583,-1.4261,-1.4261,-1.49,-1.4583,-1.3835,-1.3624,-1.3835,-1.3835,-1.3727,-1.3727,-1.3192,-1.2654,-1.2436,-1.2327,-1.2332,-1.2332,-1.2223,-1.2223,-1.2001,-1.1891,-1.1782,-1.1678,-1.1568,-1.1459,-1.1459,-1.1459,-1.1568,-1.1568,-1.1459,-1.124,-1.1131,-1.124,-0.7709,-0.8045,-0.8592,-0.892,-0.891,-0.893,-0.9037,-0.9329,-0.9204,-0.9279,-0.968,-0.977,-0.9871,-1.0193,-1.029,-1.0522,-1.0843,-1.1371,-1.1688,-1.1958,-1.2271,-1.2318,-1.2654,-1.3186,-1.3938,-1.5013,-1.5559,-1.6217,-1.7258,-1.7705,-1.8046,-1.8322,-1.8503,-1.8864,-1.8477,-1.7896,-1.7609,-1.7589,-1.7589,-1.7595,-1.7642,-1.7622,-1.7589,-1.7662,-1.7602,-1.7589,-1.7589,-1.7589,-1.7589,-1.7589,-1.7589,-1.7589,-1.7589,-1.7589,-1.7589,-1.7589,-1.7589,-1.7589,-1.7589,-1.7589,-1.7589,-1.7589,-1.7589,-1.7589,-1.7589,-1.7589,-1.7589,-1.7589,-1.7589,-1.7589,-1.7589,-1.7582,-1.7477,-1.749,-1.753,-1.7218,-1.6861,-1.6099,-1.5446,-1.5013,-1.4905,-1.4691,-1.4153,-1.3619,-1.3186,-1.3295,-1.3511,-1.3295,-1.3088,-1.298,-1.3083,-1.3083,-1.3083,-1.2975,-1.2545,-1.2436,-1.2327,-1.2332,-1.2223,-1.2114,-1.1896,-1.1782,-1.1673,-1.1564,-1.1459,-1.1131,-1.1021,-1.0911,-1.1131,-1.124,-1.124,-1.1131,-1.0911,-1.0802,-1.0911,-0.7804,-0.8243,-0.8659,-0.9191,-0.9544,-0.9428,-0.9323,-0.9511,-0.9481,-0.9583,-0.975,-0.9955,-1.0056,-1.0297,-1.0552,-1.0826,-1.1115,-1.1358,-1.1773,-1.213,-1.2299,-1.2318,-1.2654,-1.3295,-1.4153,-1.5007,-1.5873,-1.6518,-1.6819,-1.7849,-1.802,-1.8069,-1.8737,-1.8831,-1.8497,-1.807,-1.7829,-1.7629,-1.7602,-1.7662,-1.7822,-1.7702,-1.7662,-1.7829,-1.7675,-1.7589,-1.7589,-1.7589,-1.7589,-1.7589,-1.7589,-1.7589,-1.7589,-1.7589,-1.7589,-1.7589,-1.7589,-1.7589,-1.7589,-1.7589,-1.7589,-1.7589,-1.7589,-1.7589,-1.7589,-1.7589,-1.7589,-1.7589,-1.7589,-1.7589,-1.7589,-1.6935,-1.6829,-1.7153,-1.7067,-1.6424,-1.598,-1.4911,-1.4159,-1.3938,-1.3722,-1.3511,-1.3083,-1.3083,-1.2758,-1.2649,-1.2866,-1.2866,-1.2654,-1.2654,-1.2654,-1.2654,-1.2654,-1.2545,-1.2436,-1.2219,-1.2114,-1.2114,-1.1896,-1.1787,-1.1568,-1.1459,-1.135,-1.124,-1.1021,-1.0802,-1.0802,-1.0802,-1.0802,-1.0907,-1.0911,-1.0911,-1.0802,-1.0692,-1.0802,-0.7708,-0.8214,-0.8784,-0.9302,-0.9823,-0.9644,-0.9507,-0.9497,-0.9596,-0.9653,-0.9852,-1.0166,-1.0315,-1.0473,-1.0766,-1.1076,-1.1318,-1.167,-1.187,-1.2252,-1.2417,-1.2432,-1.2762,-1.3511,-1.4476,-1.5221,-1.6092,-1.6932,-1.7079,-1.7764,-1.819,-1.8483,-1.8709,-1.8751,-1.8537,-1.8183,-1.7876,-1.7669,-1.7602,-1.7655,-1.7736,-1.7716,-1.7675,-1.7742,-1.7695,-1.7589,-1.7589,-1.7589,-1.7589,-1.7589,-1.7589,-1.7589,-1.7589,-1.7589,-1.7589,-1.7589,-1.7589,-1.7589,-1.7589,-1.7589,-1.7589,-1.7589,-1.7589,-1.7589,-1.7589,-1.7589,-1.7589,-1.7589,-1.7589,-1.7371,-1.7047,-1.6399,-1.618,-1.6505,-1.6105,-1.5571,-1.5227,-1.4266,-1.3619,-1.3295,-1.2975,-1.2654,-1.2327,-1.2436,-1.2436,-1.2327,-1.2327,-1.2327,-1.2327,-1.2327,-1.2223,-1.2332,-1.2223,-1.2114,-1.2114,-1.2001,-1.1896,-1.19,-1.1678,-1.1459,-1.135,-1.1131,-1.1021,-1.0911,-1.0802,-1.0802,-1.0692,-1.0692,-1.0802,-1.0802,-1.0802,-1.0802,-1.0692,-1.0692,-1.0692,-0.7648,-0.8088,-0.8745,-0.936,-0.9669,-0.9538,-0.9545,-0.9489,-0.9478,-0.9689,-0.9916,-1.0242,-1.0475,-1.0745,-1.1115,-1.1433,-1.1581,-1.1962,-1.2079,-1.228,-1.2483,-1.2521,-1.3083,-1.4051,-1.49,-1.5654,-1.6518,-1.7285,-1.7563,-1.815,-1.8612,-1.9083,-1.9285,-1.9005,-1.8624,-1.8283,-1.7949,-1.7695,-1.7595,-1.7662,-1.7742,-1.7649,-1.7662,-1.7695,-1.7655,-1.7595,-1.7589,-1.7589,-1.7589,-1.7589,-1.7589,-1.7589,-1.7589,-1.7589,-1.7589,-1.7589,-1.7589,-1.7589,-1.7589,-1.7589,-1.7589,-1.7589,-1.7589,-1.7589,-1.7589,-1.7477,-1.7259,-1.7153,-1.7047,-1.673,-1.6299,-1.5861,-1.5535,-1.5351,-1.4956,-1.473,-1.4589,-1.4046,-1.3295,-1.2975,-1.2762,-1.2436,-1.2332,-1.2327,-1.2327,-1.211,-1.2005,-1.2114,-1.2114,-1.2005,-1.2005,-1.2005,-1.1896,-1.1678,-1.1678,-1.1678,-1.1564,-1.1568,-1.135,-1.1126,-1.1021,-1.0911,-1.0911,-1.0802,-1.0802,-1.0692,-1.0692,-1.0692,-1.0692,-1.0692,-1.0692,-1.0692,-1.0692,-1.0692,-1.0692,-0.7946,-0.8336,-0.922,-0.9611,-0.976,-0.9685,-0.9589,-0.961,-0.9606,-0.9722,-1.0079,-1.0389,-1.0649,-1.0961,-1.1571,-1.1756,-1.2201,-1.2572,-1.2601,-1.2719,-1.293,-1.3176,-1.3727,-1.4476,-1.5221,-1.608,-1.6935,-1.7595,-1.7716,-1.819,-1.8771,-1.9272,-1.9305,-1.9065,-1.8784,-1.8504,-1.807,-1.7729,-1.7622,-1.7702,-1.7749,-1.7689,-1.7736,-1.7789,-1.7662,-1.7615,-1.7589,-1.7589,-1.7589,-1.7589,-1.7589,-1.7589,-1.7589,-1.7589,-1.7589,-1.7589,-1.7589,-1.7589,-1.7589,-1.7589,-1.7589,-1.7589,-1.7589,-1.7589,-1.7477,-1.7153,-1.6829,-1.6723,-1.6405,-1.5873,-1.5441,-1.5007,-1.4787,-1.4487,-1.4083,-1.3753,-1.3619,-1.3403,-1.2758,-1.2654,-1.2441,-1.2327,-1.2223,-1.2223,-1.211,-1.1896,-1.1787,-1.1896,-1.1896,-1.1787,-1.1678,-1.1787,-1.1678,-1.1463,-1.1459,-1.1459,-1.1345,-1.1236,-1.1017,-1.0907,-1.0802,-1.0802,-1.0692,-1.0692,-1.0692,-1.0692,-1.0692,-1.0692,-1.0692,-1.0696,-1.0696,-1.0692,-1.0692,-1.0692,-1.0692,-0.8119,-0.8494,-0.9259,-0.9642,-0.9782,-0.9673,-0.9624,-0.9636,-0.9697,-0.99,-1.0252,-1.0657,-1.1026,-1.1194,-1.1828,-1.2163,-1.2079,-1.3023,-1.3176,-1.2748,-1.3295,-1.3511,-1.3938,-1.4583,-1.5435,-1.6293,-1.7047,-1.7589,-1.7722,-1.8043,-1.8577,-1.8951,-1.9098,-1.9005,-1.8758,-1.8504,-1.8243,-1.7896,-1.7716,-1.7802,-1.7802,-1.7756,-1.7822,-1.7903,-1.7716,-1.7615,-1.7589,-1.7589,-1.7589,-1.7589,-1.7589,-1.7589,-1.7589,-1.7589,-1.7589,-1.7589,-1.7589,-1.7589,-1.7589,-1.7589,-1.7589,-1.7589,-1.7589,-1.7589,-1.7265,-1.6942,-1.6617,-1.6299,-1.5547,-1.4905,-1.4476,-1.4046,-1.4046,-1.3938,-1.33,-1.2762,-1.2654,-1.2654,-1.2436,-1.2332,-1.2114,-1.211,-1.2001,-1.211,-1.2001,-1.1564,-1.1455,-1.1459,-1.1459,-1.1455,-1.1459,-1.1459,-1.135,-1.1135,-1.1131,-1.1131,-1.1021,-1.1017,-1.0911,-1.0802,-1.0692,-1.0692,-1.0692,-1.0692,-1.0692,-1.0692,-1.0692,-1.0692,-1.0692,-1.0708,-1.0741,-1.0761,-1.0741,-1.0692,-1.0692,-0.8358,-0.845,-0.9191,-0.9581,-0.964,-0.9628,-0.9628,-0.9652,-0.9924,-1.0092,-1.0356,-1.0979,-1.1283,-1.1465,-1.2027,-1.2351,-1.2754,-1.3449,-1.3619,-1.2654,-1.3619,-1.3938,-1.4153,-1.4691,-1.5648,-1.6399,-1.7054,-1.7622,-1.7709,-1.7976,-1.8283,-1.8497,-1.8758,-1.8798,-1.8684,-1.8457,-1.8257,-1.8238,-1.7809,-1.7695,-1.7816,-1.7776,-1.7702,-1.7862,-1.7742,-1.7589,-1.7589,-1.7589,-1.7589,-1.7589,-1.7589,-1.7589,-1.7589,-1.7589,-1.7589,-1.7589,-1.7589,-1.7589,-1.7589,-1.7589,-1.7589,-1.7589,-1.7589,-1.7477,-1.7047,-1.6405,-1.5974,-1.5654,-1.4905,-1.4051,-1.3619,-1.3403,-1.3295,-1.3186,-1.2758,-1.2545,-1.2545,-1.2436,-1.2332,-1.2114,-1.2005,-1.1891,-1.1673,-1.1673,-1.1678,-1.1236,-1.1126,-1.1236,-1.1126,-1.1126,-1.1126,-1.124,-1.1021,-1.0911,-1.0911,-1.0911,-1.0802,-1.0692,-1.0692,-1.0692,-1.0692,-1.0692,-1.0692,-1.0692,-1.0692,-1.0692,-1.0692,-1.0696,-1.0724,-1.0785,-1.0818,-1.0842,-1.0818,-1.0785,-1.0773,-0.8663,-0.8733,-0.9275,-0.9565,-0.9632,-0.9624,-0.9727,-0.9954,-1.0272,-1.0343,-1.0446,-1.1006,-1.1376,-1.1589,-1.221,-1.2675,-1.3311,-1.4078,-1.4035,-1.3835,-1.4153,-1.4476,-1.4583,-1.4905,-1.5867,-1.6935,-1.7503,-1.7563,-1.7702,-1.7875,-1.817,-1.8437,-1.8591,-1.8584,-1.8704,-1.8457,-1.821,-1.8406,-1.7983,-1.7635,-1.7682,-1.7921,-1.8,-1.7808,-1.7595,-1.7589,-1.7589,-1.7589,-1.7589,-1.7589,-1.7589,-1.7589,-1.7589,-1.7589,-1.7589,-1.7589,-1.7589,-1.7589,-1.7589,-1.7589,-1.7589,-1.7582,-1.7477,-1.7153,-1.6617,-1.5761,-1.5227,-1.4798,-1.4266,-1.3408,-1.2866,-1.2758,-1.2758,-1.2545,-1.2436,-1.2436,-1.2327,-1.2223,-1.2114,-1.1896,-1.1787,-1.1564,-1.1345,-1.1236,-1.124,-1.1131,-1.1126,-1.1017,-1.0911,-1.0911,-1.1021,-1.1021,-1.0911,-1.0802,-1.0692,-1.0692,-1.0692,-1.0692,-1.0692,-1.0692,-1.07,-1.0733,-1.0757,-1.0708,-1.0692,-1.0757,-1.0781,-1.0712,-1.0753,-1.0867,-1.096,-1.1013,-1.1041,-1.1021,-1.0976,-0.8916,-0.8924,-0.9399,-0.9624,-0.9624,-0.9624,-0.9727,-0.988,-1.0332,-1.0455,-1.0474,-1.1136,-1.1521,-1.1759,-1.2375,-1.2991,-1.3837,-1.4933,-1.4556,-1.4261,-1.4583,-1.4905,-1.5013,-1.512,-1.6187,-1.7153,-1.7483,-1.7569,-1.7615,-1.7722,-1.7936,-1.8116,-1.821,-1.8417,-1.8624,-1.831,-1.8299,-1.8692,-1.7996,-1.7635,-1.7589,-1.782,-1.7928,-1.7709,-1.7675,-1.7629,-1.7589,-1.7589,-1.7589,-1.7589,-1.7589,-1.7589,-1.7589,-1.7589,-1.7589,-1.7589,-1.7589,-1.7589,-1.7595,-1.7595,-1.7589,-1.7582,-1.7153,-1.6723,-1.6293,-1.5435,-1.4476,-1.4046,-1.3408,-1.2654,-1.2654,-1.2545,-1.2545,-1.2436,-1.2332,-1.2332,-1.2223,-1.2114,-1.1787,-1.1459,-1.135,-1.1236,-1.1017,-1.1021,-1.0911,-1.0911,-1.0911,-1.0907,-1.0802,-1.0692,-1.0802,-1.0802,-1.0802,-1.0692,-1.0692,-1.0692,-1.0692,-1.0692,-1.0692,-1.0757,-1.0798,-1.0818,-1.0822,-1.0858,-1.0899,-1.0956,-1.0948,-1.0879,-1.0923,-1.1057,-1.1139,-1.1204,-1.1224,-1.1248,-1.1252,-0.9052,-0.9095,-0.9453,-0.9628,-0.9628,-0.9624,-0.9727,-0.9859,-1.0226,-1.0406,-1.0604,-1.1282,-1.1479,-1.1966,-1.2685,-1.3179,-1.4014,-1.5394,-1.5085,-1.4798,-1.5013,-1.5334,-1.5334,-1.5334,-1.6405,-1.7153,-1.7589,-1.7589,-1.7635,-1.7649,-1.7669,-1.7649,-1.7849,-1.8136,-1.8263,-1.8196,-1.8205,-1.8414,-1.8037,-1.7642,-1.7589,-1.7589,-1.7722,-1.7776,-1.7756,-1.7602,-1.7589,-1.7589,-1.7589,-1.7589,-1.7589,-1.7589,-1.7635,-1.7662,-1.7702,-1.7709,-1.7722,-1.7709,-1.7675,-1.7629,-1.7609,-1.7477,-1.6723,-1.6293,-1.5974,-1.5114,-1.4153,-1.3403,-1.2762,-1.2441,-1.2441,-1.2327,-1.2327,-1.2327,-1.2223,-1.2223,-1.2114,-1.1891,-1.1568,-1.1131,-1.1021,-1.0907,-1.0911,-1.0802,-1.0692,-1.0692,-1.0692,-1.0692,-1.0692,-1.0692,-1.0802,-1.0802,-1.0692,-1.0692,-1.0692,-1.0704,-1.0708,-1.0692,-1.0708,-1.081,-1.0903,-1.0952,-1.1021,-1.1118,-1.1163,-1.1143,-1.1147,-1.111,-1.1179,-1.1244,-1.1289,-1.1346,-1.1374,-1.1415,-1.1524,-0.9135,-0.9372,-0.9551,-0.9727,-0.9821,-0.9727,-0.992,-1.0542,-1.0615,-1.0797,-1.1024,-1.1349,-1.176,-1.244,-1.3177,-1.3916,-1.5056,-1.6125,-1.6262,-1.5974,-1.5761,-1.5867,-1.5974,-1.5974,-1.6723,-1.7265,-1.7589,-1.7589,-1.7589,-1.7589,-1.7589,-1.7602,-1.7602,-1.7829,-1.8043,-1.7949,-1.7963,-1.8198,-1.8003,-1.7589,-1.7589,-1.7589,-1.7595,-1.7622,-1.7615,-1.7589,-1.7589,-1.7589,-1.7589,-1.7589,-1.7609,-1.7622,-1.7689,-1.7802,-1.7889,-1.7903,-1.7909,-1.7869,-1.7822,-1.7675,-1.7622,-1.7582,-1.6935,-1.6505,-1.5974,-1.5114,-1.4261,-1.3511,-1.2866,-1.2436,-1.2436,-1.2332,-1.2332,-1.2114,-1.2005,-1.1896,-1.1678,-1.1455,-1.1236,-1.1021,-1.0911,-1.0802,-1.0802,-1.0692,-1.0692,-1.0692,-1.0692,-1.0692,-1.0692,-1.0692,-1.0696,-1.07,-1.0704,-1.0692,-1.0692,-1.0729,-1.0733,-1.0712,-1.0753,-1.0907,-1.1033,-1.111,-1.1196,-1.1317,-1.1297,-1.1248,-1.1261,-1.1338,-1.1358,-1.1411,-1.1439,-1.1476,-1.1508,-1.1553,-1.1634]},{"header":{"parameterUnit":"m.s-1","parameterCategory":1,"la1":31.0,"la2":29.5877,"lo1":-88.7671,"lo2":-86.6584,"dy":0.0162,"dx":0.0185,"nx":115,"ny":88,"refTime":"2023-05-15T06:00:00:Z","depth":0,"parameterNumber":3,"parameterNumberName":"V-component_of_WINDS"},"data":[0.0,0.0,0.0,0.0,0.0,0.0,0.0,0.0,0.0,0.0,0.0,0.0,0.0,0.0,0.0,0.0,0.0,0.0,0.0,0.0,0.0,0.0,0.0,0.0,0.0,0.0,0.0,0.0,0.0,0.0,0.0,0.0,0.0,0.0,0.0,0.0,0.0,0.0,0.0,0.0,0.0,0.0,0.0,0.0,0.0,0.0,0.0,0.0,0.0,0.0,0.0,0.0,0.0,0.0,0.0,0.0,0.0,0.0,0.0,0.0,0.0,0.0,0.0,0.0,0.0,0.0,0.0,0.0,0.0,0.0,0.0,0.0,0.0,0.0,0.0,0.0,0.0,0.0,0.0,0.0,0.0,0.0,0.0,0.0,0.0,0.0,0.0,0.0,0.0,0.0,0.0,0.0,0.0,0.0,0.0,0.0,0.0,0.0,0.0,0.0,0.0,0.0,0.0,0.0,0.0,0.0,0.0,0.0,0.0,0.0,0.0,0.0,0.0,0.0,0.0,0.0,0.0,0.0,0.0,0.0,0.0,0.0,0.0,0.0,0.0,0.0,0.0,0.0,0.0,0.0,0.0,0.0,0.0,0.0,0.0,0.0,0.0,0.0,0.0,0.0,0.0,0.0,0.0,0.0,0.0,0.0,0.0,0.0,0.0,0.0,0.0,0.0,0.0,0.0,0.0,0.0,0.0,0.0,0.0,0.0,0.0,0.0,0.0,0.0,0.0,0.0,0.0,0.0,0.0,0.0,0.0,0.0,0.0,0.0,0.0,0.0,0.0,0.0,0.0,0.0,0.0,0.0,0.0,0.0,0.0,0.0,0.0,0.0,0.0,0.0,0.0,0.0,0.0,0.0,0.0,0.0,0.0,0.0,0.0,0.0,0.0,0.0,0.0,0.0,0.0,0.0,0.0,0.0,0.0,0.0,0.0,0.0,0.0,0.0,0.0,0.0,0.0,0.0,0.0,0.0,0.0,0.0,0.0,0.0,0.0,0.0,0.0,0.0,0.0,0.0,0.0,0.0,0.0,0.0,0.0,0.0,0.0,0.0,0.0,0.0,0.0,0.0,0.0,0.0,0.0,0.0,0.0,0.0,0.0,0.0,0.0,0.0,0.0,0.0,0.0,0.0,0.0,0.0,0.0,0.0,0.0,0.0,0.0,0.0,0.0,0.0,0.0,0.0,0.0,0.0,0.0,0.0,0.0,0.0,0.0,0.0,0.0,0.0,0.0,0.0,0.0,0.0,0.0,0.0,0.0,0.0,0.0,0.0,0.0,0.0,0.0,0.0,0.0,0.0,0.0,0.0,0.0,0.0,0.0,0.0,0.0,0.0,0.0,0.0,0.0,0.0,0.0,0.0,0.0,0.0,0.0,0.0,0.0,0.0,0.0,0.0,0.0,0.0,0.0,0.0,0.0,0.0,0.0,0.0,0.0,0.0,0.0,0.0,0.0,0.0,0.0,0.0,0.0,0.0,0.0,0.0,0.0,0.0,0.0,0.0,0.0,0.0,0.0,0.0,0.0,0.0,0.0,0.0,0.0,0.0,0.0,0.0,0.0,0.0,0.0,0.0,0.0,0.0,0.0,0.0,0.0,0.0,0.0,0.0,0.0,0.0,0.0,0.0,0.0,0.0,0.0,0.0,0.0,0.0,0.0,0.0,0.0,0.0,0.0,0.0,0.0,0.0,0.0,0.0,0.0,0.0,0.0,0.0,0.0,0.0,0.0,0.0,0.0,0.0,0.0,0.0,0.0,0.0,0.0,0.0,0.0,0.0,0.0,0.0,0.0,0.0,0.0,0.0,0.0,0.0,0.0,0.0,0.0,0.0,0.0,0.0,0.0,0.0,0.0,0.0,0.0,0.0,0.0,0.0,0.0,0.0,0.0,0.0,0.0,0.0,0.0,0.0,0.0,0.0,0.0,0.0,0.0,0.0,0.0,0.0,0.0,0.0,0.0,0.0,0.0,0.0,0.0,0.0,0.0,0.0,0.0,0.0,0.0,0.0,0.0,0.0,0.0,0.0,0.0,0.0,0.0,0.0,0.0,0.0,0.0,0.0,0.0,0.0,0.0,0.0,0.0,0.0,0.0,0.0,0.0,0.0,0.0,0.0,0.0,0.0,0.0,0.0,0.0,0.0,0.0,0.0,0.0,0.0,0.0,0.0,0.0,0.0,0.0,0.0,0.0,0.0,0.0,0.0,0.0,0.0,0.0,0.0,0.0,0.0,0.0,0.0,0.0,0.0,0.0,0.0,0.0,0.0,0.0,0.0,0.0,0.0,0.0,0.0,0.0,0.0,0.0,0.0,0.0,0.0,0.0,0.0,0.0,0.0,0.0,0.0,0.0,0.0,0.0,0.0,0.0,0.0,0.0,0.0,0.0,0.0,0.0,0.0,0.0,0.0,0.0,0.0,0.0,0.0,0.0,0.0,0.0,0.0,0.0,0.0,0.0,0.0,0.0,0.0,0.0,0.0,0.0,0.0,0.0,0.0,0.0,0.0,0.0,0.0,0.0,0.0,0.0,0.0,0.0,0.0,0.0,0.0,0.0,0.0,0.0,0.0,0.0,0.0,0.0,0.0,0.0,0.0,0.0,0.0,0.0,0.0,0.0,0.0,0.0,0.0,0.0,0.0,0.0,0.0,0.0,0.0,0.0,0.0,0.0,0.0,0.0,0.0,0.0,0.0,0.0,0.0,0.0,0.0,0.0,0.0,0.0,0.0,0.0,0.0,0.0,0.0,0.0,0.0,0.0,0.0,0.0,0.0,0.0,0.0,0.0,0.0,0.0,0.0,0.0,0.0,0.0,0.0,0.0,0.0,0.0,0.0,0.0,0.0,0.0,0.0,0.0,0.0,0.0,0.0,0.0,0.0,0.0,0.0,0.0,0.0,0.0,0.0,0.0,0.0,0.0,0.0,0.0,0.0,0.0,0.0,0.0,0.0,0.0,0.0,0.0,0.0,0.0,0.0,0.0,0.0,0.0,0.0,0.0,0.0,0.0,0.0,0.0,0.0,0.0,0.0,0.0,0.0,0.0,0.0,0.0,0.0,0.0,0.0,0.0,0.0,0.0,0.0,0.0,0.0,0.0,0.0,0.0,0.0,0.0,0.0,0.0,0.0,0.0,0.0,0.0,0.0,0.0,0.0,0.0,0.0,0.0,0.0,0.0,0.0,0.0,0.0,0.0,0.0,0.0,0.0,0.0,0.0,0.0,0.0,0.0,0.0,0.0,0.0,0.0,0.0,0.0,0.0,0.0,0.0,0.0,0.0,0.0,0.0,0.0,0.0,0.0,0.0,0.0,0.0,0.0,0.0,0.0,0.0,0.0,0.0,0.0,0.0,0.0,0.0,0.0,0.0,0.0,0.0,0.0,0.0,0.0,0.0,0.0,0.0,0.0,0.0,0.0,0.0,0.0,0.0,0.0,0.0,0.0,0.0,0.0,0.0,0.0,0.0,0.0,0.0,0.0,0.0,0.0,0.0,0.0,0.0,0.0,0.0,0.0,0.0,0.0,0.0,0.0,0.0,0.0,0.0,0.0,0.0,0.0,0.0,0.0,0.0,0.0,0.0,0.0,0.0,0.0,0.0,0.0,0.0,0.0,0.0,0.0,0.0,0.0,0.0,0.0,0.0,0.0,0.0,0.0,0.0,0.0,0.0,0.0,0.0,0.0,0.0,0.0,0.0,0.0,0.0,0.0,0.0,0.0,0.0,0.0,0.0,0.0,0.0,0.0,0.0,0.0,0.0,0.0,0.0,0.0,0.0,0.0,0.0,0.0,0.0,0.0,0.0,0.0,0.0,0.0,0.0,0.0,0.0,0.0,0.0,0.0,0.0,0.0,0.0,0.0,0.0,0.0,0.0,0.0,0.0,0.0,0.0,0.0,0.0,0.0,0.0,0.0,0.0,0.0,0.0,0.0,0.0,0.0,0.0,0.0,0.0,0.0,0.0,0.0,0.0,0.0,0.0,0.0,0.0,0.0,0.0,0.0,0.0,0.0,0.0,0.0,0.0,0.0,0.0,0.0,0.0,0.0,0.0,0.0,0.0,0.0,0.0,0.0,0.0,0.0,0.0,0.0,0.0,0.0,0.0,0.0,0.0,0.0,0.0,0.0,0.0,0.0,0.0,0.0,0.0,0.0,0.0,0.0,0.0,0.0,0.0,0.0,0.0,0.0,0.0,0.0,0.0,0.0,0.0,0.0,0.0,0.0,0.0,0.0,0.0,0.0,0.0,0.0,0.0,0.0,0.0,0.0,0.0,0.0,0.0,-3.0754,0.0,0.0,0.0,0.0,0.0,0.0,0.0,0.0,0.0,0.0,0.0,0.0,0.0,0.0,0.0,0.0,0.0,0.0,0.0,0.0,0.0,0.0,0.0,0.0,0.0,0.0,0.0,0.0,0.0,0.0,0.0,0.0,0.0,0.0,0.0,0.0,0.0,0.0,0.0,0.0,0.0,0.0,0.0,0.0,0.0,0.0,0.0,0.0,0.0,0.0,0.0,0.0,0.0,0.0,0.0,0.0,0.0,0.0,0.0,0.0,0.0,0.0,0.0,0.0,0.0,0.0,0.0,0.0,0.0,0.0,0.0,0.0,0.0,0.0,0.0,0.0,0.0,0.0,0.0,0.0,0.0,0.0,0.0,0.0,0.0,0.0,0.0,0.0,0.0,0.0,0.0,0.0,0.0,0.0,0.0,0.0,0.0,0.0,0.0,0.0,0.0,0.0,0.0,0.0,0.0,0.0,0.0,0.0,0.0,0.0,-3.1534,-3.0651,-3.1455,-3.1508,-3.0703,0.0,0.0,0.0,0.0,0.0,0.0,0.0,0.0,0.0,0.0,0.0,0.0,0.0,0.0,0.0,0.0,0.0,0.0,0.0,0.0,0.0,0.0,0.0,0.0,0.0,0.0,0.0,0.0,0.0,0.0,0.0,0.0,0.0,0.0,0.0,0.0,0.0,0.0,0.0,0.0,0.0,0.0,0.0,0.0,0.0,0.0,0.0,0.0,0.0,0.0,0.0,0.0,0.0,0.0,0.0,0.0,0.0,0.0,0.0,0.0,0.0,0.0,0.0,0.0,0.0,0.0,0.0,0.0,0.0,0.0,0.0,0.0,0.0,0.0,0.0,0.0,0.0,0.0,0.0,0.0,0.0,0.0,0.0,0.0,0.0,0.0,0.0,0.0,0.0,0.0,0.0,0.0,0.0,0.0,0.0,0.0,0.0,0.0,0.0,0.0,0.0,0.0,0.0,0.0,0.0,0.0,0.0,0.0,0.0,0.0,0.0,0.0,-3.187,-3.182,-3.1177,0.0,0.0,0.0,0.0,0.0,0.0,0.0,0.0,0.0,0.0,0.0,0.0,0.0,0.0,0.0,0.0,0.0,0.0,0.0,0.0,0.0,0.0,0.0,0.0,0.0,0.0,0.0,0.0,0.0,0.0,0.0,0.0,0.0,0.0,0.0,0.0,0.0,0.0,0.0,0.0,0.0,0.0,0.0,0.0,0.0,0.0,0.0,0.0,0.0,0.0,0.0,0.0,0.0,0.0,0.0,0.0,0.0,0.0,0.0,0.0,0.0,0.0,0.0,0.0,0.0,0.0,0.0,0.0,0.0,0.0,0.0,0.0,0.0,0.0,0.0,0.0,0.0,0.0,0.0,0.0,0.0,0.0,0.0,0.0,0.0,0.0,0.0,0.0,0.0,0.0,0.0,0.0,0.0,0.0,0.0,0.0,0.0,0.0,0.0,0.0,0.0,0.0,0.0,0.0,0.0,0.0,0.0,0.0,0.0,0.0,-3.166,-3.3795,-3.3173,0.0,-3.2752,0.0,0.0,0.0,0.0,0.0,0.0,0.0,0.0,0.0,0.0,0.0,0.0,0.0,0.0,0.0,0.0,0.0,0.0,0.0,0.0,0.0,0.0,0.0,0.0,0.0,0.0,0.0,0.0,0.0,0.0,0.0,0.0,0.0,0.0,0.0,0.0,0.0,0.0,0.0,0.0,0.0,0.0,0.0,0.0,0.0,0.0,0.0,0.0,0.0,0.0,0.0,0.0,0.0,0.0,0.0,0.0,0.0,0.0,0.0,0.0,0.0,0.0,0.0,0.0,0.0,0.0,0.0,0.0,0.0,0.0,0.0,0.0,0.0,0.0,0.0,0.0,0.0,0.0,0.0,0.0,0.0,0.0,0.0,0.0,0.0,0.0,0.0,0.0,0.0,0.0,0.0,0.0,0.0,0.0,0.0,0.0,0.0,0.0,0.0,0.0,0.0,0.0,0.0,0.0,0.0,0.0,0.0,0.0,0.0,0.0,-3.1884,-3.3396,-3.3089,-3.266,0.0,0.0,0.0,0.0,0.0,0.0,0.0,0.0,0.0,0.0,0.0,0.0,0.0,0.0,0.0,0.0,0.0,0.0,0.0,0.0,0.0,0.0,0.0,0.0,0.0,0.0,0.0,0.0,0.0,0.0,0.0,0.0,0.0,0.0,0.0,0.0,0.0,0.0,0.0,0.0,0.0,0.0,0.0,0.0,0.0,0.0,0.0,0.0,0.0,0.0,0.0,0.0,0.0,0.0,0.0,0.0,0.0,0.0,0.0,0.0,0.0,0.0,0.0,0.0,0.0,0.0,0.0,0.0,0.0,0.0,0.0,0.0,0.0,0.0,0.0,0.0,0.0,0.0,0.0,0.0,0.0,0.0,0.0,0.0,0.0,0.0,0.0,0.0,0.0,0.0,0.0,0.0,0.0,0.0,0.0,0.0,0.0,0.0,0.0,0.0,0.0,0.0,0.0,0.0,0.0,0.0,0.0,0.0,0.0,0.0,-3.196,-3.2459,-3.3456,-3.3105,-3.2588,-3.1966,0.0,0.0,0.0,0.0,0.0,0.0,0.0,0.0,0.0,0.0,0.0,0.0,0.0,0.0,0.0,0.0,0.0,0.0,0.0,0.0,0.0,0.0,0.0,0.0,0.0,0.0,0.0,0.0,0.0,0.0,0.0,0.0,0.0,0.0,0.0,0.0,0.0,0.0,0.0,0.0,0.0,0.0,0.0,0.0,0.0,0.0,0.0,0.0,0.0,0.0,0.0,0.0,0.0,0.0,0.0,0.0,0.0,0.0,0.0,0.0,0.0,0.0,0.0,0.0,0.0,0.0,0.0,0.0,0.0,0.0,0.0,0.0,0.0,0.0,0.0,0.0,0.0,0.0,0.0,0.0,0.0,0.0,0.0,0.0,0.0,0.0,0.0,0.0,0.0,0.0,0.0,0.0,0.0,0.0,0.0,0.0,0.0,0.0,0.0,0.0,0.0,0.0,0.0,0.0,0.0,0.0,0.0,0.0,-3.5944,-3.3918,-3.3525,-3.504,-3.3627,-3.2785,0.0,0.0,0.0,0.0,0.0,0.0,0.0,0.0,0.0,0.0,0.0,0.0,0.0,0.0,0.0,0.0,0.0,0.0,0.0,0.0,0.0,0.0,0.0,0.0,0.0,0.0,0.0,0.0,0.0,0.0,0.0,0.0,0.0,0.0,0.0,0.0,0.0,0.0,0.0,0.0,0.0,0.0,0.0,0.0,0.0,0.0,0.0,0.0,0.0,0.0,0.0,0.0,0.0,0.0,0.0,0.0,0.0,0.0,0.0,0.0,0.0,0.0,0.0,0.0,0.0,0.0,0.0,0.0,0.0,0.0,0.0,0.0,0.0,0.0,0.0,0.0,0.0,0.0,0.0,0.0,0.0,0.0,0.0,0.0,0.0,0.0,0.0,0.0,0.0,0.0,0.0,0.0,0.0,0.0,0.0,0.0,0.0,0.0,0.0,0.0,0.0,0.0,0.0,0.0,0.0,0.0,0.0,0.0,0.0,-3.2422,-3.2676,-3.3511,-3.4867,-3.357,-3.2955,0.0,0.0,0.0,0.0,0.0,0.0,0.0,0.0,0.0,0.0,0.0,0.0,0.0,0.0,0.0,0.0,0.0,0.0,0.0,0.0,0.0,0.0,0.0,0.0,0.0,0.0,0.0,0.0,0.0,0.0,0.0,0.0,0.0,0.0,0.0,0.0,0.0,0.0,0.0,0.0,0.0,0.0,0.0,0.0,0.0,0.0,0.0,0.0,0.0,0.0,0.0,0.0,0.0,0.0,0.0,0.0,0.0,0.0,0.0,0.0,0.0,0.0,0.0,0.0,0.0,0.0,0.0,0.0,0.0,0.0,0.0,0.0,0.0,0.0,0.0,0.0,0.0,0.0,0.0,0.0,0.0,0.0,0.0,0.0,0.0,0.0,0.0,0.0,0.0,0.0,0.0,0.0,0.0,0.0,0.0,0.0,0.0,0.0,0.0,0.0,0.0,0.0,0.0,0.0,0.0,0.0,0.0,0.0,0.0,-3.1699,0.0,-3.4339,-3.466,-3.3648,-3.2861,0.0,0.0,0.0,0.0,0.0,0.0,0.0,0.0,0.0,0.0,0.0,0.0,0.0,0.0,0.0,0.0,0.0,0.0,0.0,0.0,0.0,0.0,0.0,0.0,0.0,0.0,0.0,0.0,0.0,0.0,0.0,0.0,0.0,0.0,0.0,0.0,0.0,0.0,0.0,0.0,0.0,0.0,0.0,0.0,0.0,0.0,0.0,0.0,0.0,0.0,0.0,0.0,0.0,0.0,0.0,0.0,0.0,0.0,0.0,0.0,0.0,0.0,0.0,0.0,0.0,0.0,0.0,0.0,0.0,0.0,0.0,0.0,0.0,0.0,0.0,0.0,0.0,0.0,0.0,0.0,0.0,0.0,0.0,0.0,0.0,0.0,0.0,0.0,0.0,0.0,0.0,0.0,0.0,0.0,0.0,0.0,0.0,0.0,0.0,0.0,0.0,0.0,0.0,0.0,0.0,0.0,0.0,0.0,-3.1691,-3.4586,-3.6071,-3.6061,-3.4687,-3.3923,-3.2496,0.0,0.0,0.0,0.0,0.0,0.0,0.0,0.0,0.0,0.0,0.0,0.0,0.0,0.0,0.0,0.0,0.0,0.0,0.0,0.0,0.0,0.0,0.0,0.0,0.0,0.0,0.0,0.0,0.0,0.0,0.0,0.0,0.0,0.0,0.0,0.0,0.0,0.0,0.0,0.0,0.0,0.0,0.0,0.0,0.0,0.0,0.0,0.0,0.0,0.0,0.0,0.0,0.0,0.0,0.0,0.0,0.0,0.0,0.0,0.0,0.0,0.0,0.0,0.0,0.0,0.0,0.0,0.0,0.0,0.0,0.0,0.0,0.0,0.0,0.0,0.0,0.0,0.0,0.0,0.0,0.0,0.0,0.0,0.0,0.0,0.0,0.0,0.0,0.0,0.0,0.0,0.0,0.0,0.0,0.0,0.0,0.0,0.0,0.0,0.0,0.0,0.0,0.0,0.0,0.0,0.0,0.0,0.0,0.0,-3.2438,-3.4285,-3.5544,-3.6021,-3.3838,-3.3033,0.0,0.0,0.0,0.0,0.0,0.0,0.0,0.0,0.0,0.0,0.0,0.0,0.0,0.0,0.0,0.0,0.0,0.0,0.0,0.0,0.0,0.0,0.0,0.0,0.0,0.0,0.0,0.0,0.0,0.0,0.0,0.0,0.0,0.0,0.0,0.0,0.0,0.0,0.0,0.0,0.0,0.0,0.0,0.0,0.0,0.0,0.0,0.0,0.0,0.0,0.0,0.0,0.0,0.0,0.0,0.0,0.0,0.0,0.0,0.0,0.0,0.0,0.0,0.0,0.0,0.0,0.0,0.0,0.0,0.0,0.0,0.0,0.0,0.0,0.0,0.0,0.0,0.0,0.0,0.0,0.0,0.0,0.0,0.0,0.0,0.0,0.0,0.0,0.0,0.0,0.0,0.0,0.0,0.0,0.0,0.0,0.0,0.0,0.0,0.0,0.0,0.0,0.0,0.0,0.0,0.0,0.0,0.0,0.0,-3.3091,-3.5333,-3.6756,-3.7158,-3.4753,-3.3714,-3.4211,0.0,0.0,0.0,0.0,0.0,0.0,0.0,0.0,0.0,0.0,0.0,0.0,0.0,0.0,0.0,0.0,0.0,0.0,0.0,0.0,0.0,0.0,0.0,0.0,0.0,0.0,0.0,0.0,0.0,0.0,0.0,0.0,0.0,0.0,0.0,0.0,0.0,0.0,0.0,0.0,0.0,0.0,0.0,0.0,0.0,0.0,0.0,0.0,0.0,0.0,0.0,0.0,0.0,0.0,0.0,0.0,0.0,0.0,0.0,0.0,0.0,0.0,0.0,0.0,0.0,0.0,0.0,0.0,0.0,0.0,0.0,0.0,0.0,0.0,0.0,0.0,0.0,0.0,0.0,0.0,0.0,0.0,0.0,0.0,0.0,0.0,0.0,0.0,0.0,0.0,0.0,0.0,0.0,0.0,0.0,0.0,0.0,0.0,0.0,0.0,0.0,0.0,0.0,0.0,0.0,0.0,0.0,0.0,-3.5848,-3.8723,-3.9519,-3.8063,-3.6435,-3.4585,0.0,0.0,0.0,0.0,0.0,0.0,0.0,0.0,0.0,0.0,0.0,0.0,0.0,0.0,0.0,0.0,0.0,0.0,0.0,0.0,0.0,0.0,0.0,0.0,0.0,0.0,0.0,0.0,0.0,0.0,0.0,0.0,0.0,0.0,0.0,0.0,0.0,0.0,0.0,0.0,0.0,0.0,0.0,0.0,0.0,0.0,0.0,0.0,0.0,0.0,0.0,0.0,0.0,0.0,0.0,0.0,0.0,0.0,0.0,0.0,0.0,0.0,0.0,0.0,0.0,0.0,0.0,0.0,0.0,0.0,0.0,0.0,0.0,0.0,0.0,0.0,0.0,0.0,0.0,0.0,0.0,0.0,0.0,0.0,0.0,0.0,0.0,0.0,0.0,0.0,0.0,0.0,0.0,0.0,0.0,0.0,0.0,0.0,0.0,0.0,0.0,0.0,0.0,0.0,0.0,0.0,0.0,0.0,0.0,-3.7436,-4.0486,-4.1605,-4.0577,-3.7296,-3.5546,0.0,0.0,0.0,0.0,0.0,0.0,0.0,0.0,0.0,0.0,0.0,0.0,0.0,0.0,0.0,0.0,0.0,0.0,0.0,0.0,0.0,0.0,0.0,0.0,0.0,0.0,0.0,0.0,0.0,0.0,0.0,0.0,0.0,0.0,0.0,0.0,0.0,0.0,0.0,0.0,0.0,0.0,0.0,0.0,0.0,0.0,0.0,0.0,0.0,0.0,0.0,0.0,0.0,0.0,0.0,0.0,0.0,0.0,0.0,0.0,0.0,0.0,0.0,0.0,0.0,0.0,0.0,0.0,0.0,0.0,0.0,0.0,0.0,0.0,0.0,0.0,0.0,0.0,0.0,0.0,0.0,0.0,0.0,0.0,0.0,0.0,0.0,0.0,0.0,0.0,0.0,0.0,0.0,0.0,0.0,0.0,0.0,0.0,0.0,0.0,0.0,0.0,0.0,0.0,0.0,0.0,0.0,0.0,-3.7065,-3.8503,-4.1664,-4.3101,-4.2612,-3.9333,-3.7154,0.0,0.0,0.0,0.0,0.0,0.0,0.0,0.0,0.0,0.0,0.0,0.0,0.0,0.0,0.0,0.0,0.0,0.0,0.0,0.0,0.0,0.0,0.0,0.0,0.0,0.0,0.0,0.0,0.0,0.0,0.0,0.0,0.0,0.0,0.0,0.0,0.0,0.0,0.0,0.0,0.0,0.0,0.0,0.0,0.0,0.0,0.0,0.0,0.0,0.0,0.0,0.0,0.0,0.0,0.0,0.0,0.0,0.0,0.0,0.0,0.0,0.0,0.0,0.0,0.0,0.0,0.0,0.0,0.0,0.0,0.0,0.0,0.0,0.0,0.0,0.0,0.0,0.0,0.0,0.0,0.0,0.0,0.0,0.0,0.0,0.0,0.0,0.0,0.0,0.0,0.0,0.0,0.0,0.0,0.0,0.0,0.0,0.0,0.0,0.0,0.0,0.0,0.0,0.0,0.0,0.0,0.0,0.0,-3.7819,-3.9341,-4.2382,-4.4005,-4.3931,-4.1601,-3.8904,0.0,0.0,0.0,0.0,0.0,0.0,0.0,0.0,0.0,0.0,0.0,0.0,0.0,0.0,0.0,0.0,0.0,0.0,0.0,0.0,0.0,0.0,0.0,0.0,0.0,0.0,0.0,0.0,0.0,0.0,0.0,0.0,0.0,0.0,0.0,0.0,0.0,0.0,0.0,0.0,0.0,0.0,0.0,0.0,0.0,0.0,0.0,0.0,0.0,0.0,0.0,0.0,0.0,0.0,0.0,0.0,0.0,0.0,0.0,0.0,0.0,0.0,0.0,0.0,0.0,0.0,0.0,0.0,0.0,0.0,0.0,0.0,0.0,0.0,0.0,0.0,0.0,0.0,0.0,0.0,0.0,0.0,0.0,0.0,0.0,0.0,0.0,0.0,0.0,0.0,0.0,0.0,0.0,0.0,0.0,0.0,0.0,0.0,0.0,0.0,0.0,0.0,0.0,0.0,0.0,0.0,0.0,0.0,-3.8022,-4.0216,-4.2698,-4.4005,-4.3986,-4.111,-3.891,0.0,0.0,0.0,0.0,0.0,0.0,0.0,0.0,0.0,0.0,0.0,0.0,0.0,0.0,0.0,0.0,0.0,0.0,0.0,0.0,0.0,0.0,0.0,0.0,0.0,0.0,0.0,0.0,0.0,0.0,0.0,0.0,0.0,0.0,0.0,0.0,0.0,0.0,0.0,0.0,0.0,0.0,0.0,0.0,0.0,0.0,0.0,0.0,-3.7198,0.0,0.0,0.0,0.0,0.0,0.0,0.0,0.0,0.0,0.0,0.0,0.0,0.0,0.0,0.0,0.0,0.0,0.0,0.0,0.0,0.0,0.0,0.0,0.0,0.0,0.0,0.0,0.0,0.0,0.0,0.0,0.0,0.0,0.0,0.0,0.0,0.0,0.0,0.0,0.0,0.0,0.0,0.0,0.0,0.0,0.0,0.0,0.0,0.0,0.0,0.0,0.0,0.0,0.0,0.0,0.0,0.0,0.0,0.0,-3.87,-4.1164,-4.3127,-4.4221,-4.4242,-4.2355,-4.0146,0.0,0.0,0.0,0.0,0.0,0.0,0.0,0.0,0.0,0.0,0.0,0.0,0.0,0.0,0.0,0.0,0.0,0.0,0.0,0.0,0.0,0.0,0.0,0.0,0.0,0.0,0.0,0.0,0.0,0.0,0.0,0.0,0.0,0.0,0.0,0.0,0.0,0.0,0.0,0.0,0.0,0.0,0.0,0.0,0.0,0.0,0.0,0.0,0.0,0.0,0.0,0.0,0.0,0.0,0.0,0.0,0.0,0.0,0.0,0.0,0.0,0.0,0.0,0.0,0.0,0.0,0.0,0.0,0.0,0.0,0.0,0.0,0.0,0.0,0.0,0.0,0.0,0.0,0.0,0.0,0.0,0.0,0.0,0.0,0.0,0.0,0.0,0.0,0.0,0.0,0.0,0.0,0.0,0.0,0.0,0.0,0.0,0.0,0.0,0.0,0.0,0.0,0.0,0.0,0.0,0.0,0.0,-3.7079,-3.9502,-4.2145,-4.363,-4.4455,-4.47,-4.4018,-4.1673,-3.7621,0.0,0.0,0.0,0.0,0.0,0.0,0.0,0.0,0.0,0.0,0.0,0.0,0.0,0.0,0.0,0.0,0.0,0.0,0.0,0.0,0.0,0.0,0.0,0.0,0.0,0.0,0.0,0.0,0.0,0.0,0.0,0.0,0.0,0.0,0.0,0.0,0.0,0.0,-3.7566,-3.8577,0.0,0.0,0.0,0.0,0.0,0.0,0.0,0.0,-3.8773,0.0,0.0,0.0,0.0,0.0,0.0,0.0,0.0,0.0,0.0,0.0,0.0,0.0,0.0,0.0,0.0,0.0,0.0,0.0,0.0,0.0,0.0,0.0,0.0,0.0,0.0,0.0,0.0,0.0,0.0,0.0,0.0,0.0,0.0,0.0,0.0,0.0,0.0,0.0,0.0,0.0,0.0,0.0,0.0,0.0,0.0,0.0,0.0,0.0,0.0,0.0,0.0,0.0,0.0,0.0,0.0,-3.671,-3.7969,-4.011,-4.3183,-4.4159,-4.4676,-4.4757,-4.4189,-4.2238,-3.8936,0.0,0.0,0.0,0.0,0.0,0.0,0.0,0.0,0.0,0.0,0.0,0.0,0.0,0.0,0.0,0.0,0.0,0.0,0.0,0.0,0.0,0.0,0.0,0.0,0.0,0.0,0.0,0.0,0.0,0.0,0.0,0.0,0.0,0.0,0.0,0.0,0.0,0.0,0.0,-4.2679,-4.2824,0.0,0.0,0.0,0.0,0.0,0.0,0.0,0.0,-3.9382,0.0,0.0,0.0,0.0,0.0,0.0,0.0,0.0,0.0,0.0,0.0,0.0,0.0,0.0,0.0,0.0,0.0,0.0,0.0,0.0,0.0,0.0,0.0,0.0,0.0,0.0,0.0,0.0,0.0,0.0,0.0,0.0,0.0,0.0,0.0,0.0,0.0,0.0,0.0,0.0,0.0,0.0,0.0,0.0,0.0,0.0,0.0,0.0,0.0,0.0,0.0,0.0,0.0,0.0,0.0,-3.7217,-3.9039,-4.1377,-4.4227,-4.4706,-4.4966,-4.5058,-4.4019,-4.2293,0.0,0.0,0.0,0.0,0.0,0.0,0.0,0.0,0.0,0.0,0.0,0.0,0.0,0.0,0.0,0.0,0.0,0.0,0.0,0.0,0.0,0.0,0.0,0.0,0.0,0.0,0.0,0.0,0.0,0.0,0.0,0.0,0.0,0.0,0.0,0.0,0.0,0.0,0.0,0.0,-4.3379,-4.3457,-4.4125,0.0,0.0,0.0,0.0,0.0,0.0,-3.9219,-3.9284,0.0,0.0,0.0,0.0,0.0,0.0,0.0,0.0,0.0,0.0,0.0,0.0,0.0,0.0,0.0,0.0,0.0,0.0,0.0,0.0,0.0,0.0,0.0,0.0,0.0,0.0,0.0,0.0,0.0,0.0,0.0,0.0,0.0,0.0,0.0,0.0,0.0,0.0,0.0,0.0,0.0,0.0,0.0,0.0,0.0,0.0,0.0,0.0,0.0,0.0,0.0,0.0,0.0,0.0,0.0,-3.7719,-4.0038,-4.2495,-4.5039,-4.5199,-4.5282,-4.5438,-4.3895,-4.2268,0.0,0.0,0.0,0.0,0.0,0.0,0.0,0.0,0.0,0.0,0.0,0.0,0.0,0.0,0.0,0.0,0.0,0.0,0.0,0.0,0.0,0.0,0.0,0.0,0.0,0.0,0.0,0.0,0.0,0.0,0.0,0.0,0.0,0.0,0.0,0.0,0.0,0.0,0.0,0.0,0.0,-4.3889,-4.5838,-4.4187,0.0,0.0,0.0,0.0,-3.9202,-3.9884,0.0,0.0,0.0,0.0,0.0,0.0,0.0,0.0,0.0,0.0,0.0,0.0,0.0,0.0,0.0,0.0,0.0,0.0,0.0,0.0,0.0,0.0,0.0,0.0,0.0,0.0,0.0,0.0,0.0,0.0,0.0,0.0,0.0,0.0,0.0,0.0,0.0,0.0,0.0,0.0,0.0,0.0,0.0,0.0,0.0,0.0,0.0,0.0,0.0,0.0,0.0,0.0,0.0,0.0,0.0,0.0,-3.8827,-4.0703,-4.2887,-4.5304,-4.5513,-4.5586,-4.5657,-4.406,-4.2372,0.0,0.0,0.0,0.0,0.0,0.0,0.0,0.0,0.0,0.0,0.0,0.0,0.0,0.0,0.0,0.0,0.0,0.0,0.0,0.0,0.0,0.0,0.0,0.0,0.0,0.0,0.0,0.0,0.0,0.0,0.0,0.0,0.0,0.0,0.0,0.0,0.0,0.0,0.0,0.0,0.0,-4.5787,-4.503,-4.3667,-4.2464,0.0,0.0,-4.2056,-4.3748,-4.4572,0.0,0.0,0.0,0.0,0.0,0.0,0.0,0.0,0.0,0.0,0.0,0.0,0.0,0.0,0.0,0.0,0.0,0.0,0.0,0.0,0.0,0.0,0.0,0.0,0.0,0.0,0.0,0.0,0.0,0.0,0.0,0.0,0.0,0.0,0.0,0.0,0.0,0.0,0.0,0.0,0.0,0.0,0.0,0.0,0.0,0.0,0.0,0.0,0.0,0.0,0.0,0.0,0.0,0.0,0.0,-3.6375,-3.9176,-4.1377,-4.3475,-4.5472,-4.5637,-4.5687,-4.5684,-4.3641,-4.1977,0.0,0.0,0.0,0.0,0.0,0.0,0.0,0.0,0.0,0.0,0.0,0.0,0.0,0.0,0.0,0.0,0.0,0.0,0.0,0.0,0.0,0.0,0.0,0.0,0.0,0.0,0.0,0.0,0.0,0.0,0.0,0.0,0.0,0.0,0.0,0.0,0.0,0.0,0.0,0.0,0.0,0.0,-4.5496,-4.4607,0.0,0.0,0.0,-4.3678,-4.426,0.0,0.0,0.0,0.0,0.0,0.0,0.0,0.0,0.0,0.0,0.0,0.0,0.0,0.0,0.0,0.0,0.0,0.0,0.0,0.0,0.0,0.0,0.0,0.0,0.0,0.0,0.0,0.0,0.0,0.0,0.0,0.0,0.0,0.0,0.0,0.0,0.0,0.0,0.0,0.0,0.0,0.0,0.0,0.0,0.0,0.0,0.0,0.0,0.0,0.0,0.0,0.0,0.0,0.0,0.0,0.0,0.0,-3.9623,-4.1917,-4.3907,-4.556,-4.5684,-4.5715,-4.5677,-4.3529,0.0,0.0,0.0,0.0,0.0,0.0,0.0,0.0,0.0,0.0,0.0,0.0,0.0,0.0,0.0,0.0,0.0,0.0,0.0,0.0,0.0,0.0,0.0,0.0,0.0,0.0,0.0,-3.7727,0.0,0.0,0.0,0.0,0.0,0.0,0.0,0.0,0.0,0.0,0.0,0.0,0.0,0.0,-4.5735,-4.6038,-4.5795,-4.6082,0.0,0.0,-4.5435,-4.532,-4.6418,-4.6143,0.0,0.0,0.0,0.0,0.0,0.0,0.0,0.0,0.0,0.0,0.0,0.0,0.0,0.0,0.0,0.0,0.0,0.0,0.0,0.0,0.0,0.0,0.0,0.0,0.0,0.0,0.0,0.0,0.0,0.0,0.0,0.0,0.0,0.0,0.0,0.0,0.0,0.0,0.0,0.0,0.0,0.0,0.0,0.0,0.0,0.0,0.0,0.0,0.0,0.0,0.0,0.0,0.0,0.0,0.0,-4.0546,-4.2251,-4.3933,-4.5615,-4.5765,-4.58,-4.5761,-4.4109,-4.2454,0.0,0.0,0.0,0.0,0.0,0.0,0.0,0.0,0.0,0.0,0.0,0.0,0.0,0.0,0.0,0.0,0.0,0.0,0.0,0.0,0.0,0.0,0.0,0.0,0.0,0.0,0.0,0.0,0.0,0.0,0.0,0.0,0.0,0.0,0.0,0.0,0.0,0.0,0.0,0.0,0.0,-4.6631,-4.6178,-4.6917,-4.8269,0.0,0.0,-4.75,-4.8907,-5.0595,-5.0135,-4.5162,0.0,0.0,0.0,0.0,0.0,0.0,0.0,0.0,0.0,0.0,0.0,0.0,0.0,0.0,0.0,0.0,0.0,0.0,0.0,0.0,0.0,0.0,0.0,0.0,0.0,0.0,0.0,0.0,0.0,0.0,0.0,0.0,0.0,0.0,0.0,0.0,0.0,0.0,0.0,0.0,0.0,0.0,0.0,0.0,0.0,0.0,0.0,0.0,0.0,0.0,0.0,0.0,0.0,-3.8124,-4.0609,-4.2304,-4.3989,-4.5636,-4.5766,-4.5805,-4.5805,-4.4711,-4.306,0.0,0.0,0.0,0.0,0.0,0.0,0.0,0.0,0.0,0.0,0.0,0.0,0.0,0.0,0.0,0.0,0.0,0.0,0.0,0.0,0.0,0.0,0.0,0.0,0.0,0.0,0.0,0.0,-4.017,-4.022,-4.0602,0.0,0.0,0.0,0.0,0.0,0.0,0.0,0.0,0.0,0.0,-4.6867,-4.6951,-4.8187,0.0,0.0,-5.0231,-4.9615,-5.0594,-5.0057,-4.8612,-4.572,-4.4198,0.0,0.0,0.0,0.0,0.0,0.0,0.0,0.0,0.0,0.0,0.0,0.0,0.0,0.0,0.0,0.0,0.0,0.0,0.0,0.0,0.0,0.0,0.0,0.0,0.0,0.0,0.0,0.0,0.0,0.0,0.0,0.0,0.0,0.0,0.0,0.0,0.0,0.0,0.0,0.0,0.0,0.0,0.0,0.0,0.0,0.0,0.0,0.0,0.0,0.0,0.0,0.0,-3.8388,-4.0609,-4.2344,-4.4032,-4.5675,-4.578,-4.58,-4.578,-4.5015,-4.3505,0.0,0.0,0.0,0.0,0.0,0.0,0.0,0.0,0.0,0.0,0.0,0.0,0.0,0.0,0.0,0.0,0.0,0.0,0.0,0.0,0.0,0.0,0.0,0.0,0.0,0.0,0.0,0.0,-4.1357,-4.1038,-4.1026,0.0,0.0,0.0,0.0,0.0,0.0,0.0,0.0,0.0,0.0,-4.8031,-4.7631,-4.916,-5.0496,-5.1141,-5.0488,-5.0076,-5.0588,-4.9287,-4.764,-4.5727,0.0,0.0,0.0,0.0,0.0,0.0,0.0,0.0,0.0,0.0,0.0,0.0,0.0,0.0,0.0,0.0,0.0,0.0,0.0,0.0,0.0,0.0,0.0,0.0,0.0,0.0,0.0,0.0,0.0,0.0,0.0,0.0,0.0,0.0,0.0,0.0,0.0,0.0,0.0,0.0,0.0,0.0,0.0,0.0,0.0,0.0,0.0,0.0,0.0,0.0,0.0,0.0,0.0,-3.8994,-4.0693,-4.2427,-4.4109,-4.5727,-4.581,-4.58,-4.578,-4.5026,-4.3788,-4.199,0.0,0.0,0.0,0.0,0.0,0.0,0.0,0.0,0.0,0.0,0.0,0.0,0.0,0.0,0.0,0.0,0.0,0.0,0.0,0.0,0.0,0.0,0.0,0.0,0.0,0.0,-4.3175,-4.2333,-4.1045,0.0,0.0,0.0,0.0,0.0,0.0,0.0,0.0,0.0,0.0,-4.7939,-5.0416,-4.8035,-4.9648,-5.0821,-5.02,-4.9169,-4.8538,-4.874,-4.895,-4.8192,0.0,0.0,0.0,0.0,0.0,0.0,0.0,0.0,0.0,0.0,0.0,0.0,0.0,0.0,0.0,0.0,0.0,0.0,0.0,0.0,0.0,0.0,0.0,0.0,0.0,0.0,0.0,-3.7764,-3.819,0.0,0.0,0.0,0.0,0.0,0.0,0.0,0.0,0.0,0.0,0.0,-3.9889,-4.0404,0.0,0.0,0.0,0.0,0.0,0.0,0.0,0.0,0.0,0.0,0.0,0.0,-3.9193,-4.1306,-4.2604,-4.4032,-4.5607,-4.5757,-4.58,-4.58,-4.5548,-4.433,-4.2067,0.0,0.0,0.0,0.0,0.0,0.0,0.0,0.0,0.0,0.0,0.0,0.0,0.0,0.0,0.0,0.0,0.0,0.0,0.0,0.0,0.0,0.0,0.0,0.0,0.0,-4.2133,0.0,0.0,0.0,0.0,0.0,0.0,0.0,0.0,0.0,0.0,0.0,-4.3883,-4.4732,-4.7002,-4.8557,-4.8411,-4.9562,-5.0383,0.0,0.0,0.0,0.0,0.0,0.0,0.0,0.0,0.0,0.0,0.0,0.0,0.0,0.0,-4.9032,-4.8031,-4.6935,-4.6332,-4.6876,0.0,0.0,0.0,0.0,0.0,0.0,0.0,0.0,0.0,0.0,0.0,0.0,0.0,0.0,0.0,0.0,-3.9247,0.0,0.0,0.0,0.0,0.0,0.0,0.0,0.0,-4.1486,-4.1865,-4.1552,-4.2068,-4.2025,0.0,-4.1509,-4.0974,0.0,0.0,0.0,0.0,0.0,0.0,0.0,0.0,-3.9946,-4.1764,-4.3033,-4.4307,-4.5568,-4.5742,-4.5771,-4.5771,-4.5462,-4.4404,-4.2491,-4.1081,-3.9805,0.0,0.0,0.0,0.0,0.0,0.0,0.0,0.0,0.0,0.0,0.0,0.0,0.0,0.0,0.0,0.0,0.0,0.0,0.0,0.0,0.0,0.0,0.0,-4.2089,0.0,0.0,0.0,0.0,0.0,0.0,0.0,0.0,0.0,-4.3059,-4.3888,-4.497,-4.6389,-4.7606,-4.8399,-4.8411,0.0,0.0,0.0,0.0,0.0,0.0,0.0,-4.6994,-4.7347,-4.6144,-4.5439,-4.6418,-4.8146,-4.9464,-4.9654,0.0,0.0,-4.9821,-4.8858,-4.8339,-4.8901,-4.8496,-4.806,-4.8173,-4.7579,-4.6978,0.0,0.0,0.0,0.0,0.0,0.0,0.0,0.0,-4.0765,-4.0391,0.0,-4.0468,0.0,0.0,0.0,0.0,0.0,0.0,0.0,0.0,-4.3535,-4.3888,-4.3208,-4.3188,-4.3176,-4.3165,-4.3227,-4.3227,-4.3013,-4.0662,0.0,0.0,0.0,0.0,0.0,0.0,-4.115,-4.2116,-4.3661,-4.4877,-4.5654,-4.575,-4.577,-4.5692,-4.4909,-4.4099,-4.3254,-4.242,-4.121,-3.9609,-3.9496,0.0,0.0,0.0,0.0,0.0,0.0,0.0,0.0,0.0,0.0,0.0,0.0,0.0,0.0,0.0,0.0,0.0,0.0,0.0,0.0,-4.2455,0.0,0.0,0.0,0.0,0.0,0.0,0.0,0.0,0.0,0.0,-4.4191,-4.5983,-4.7644,-4.8205,0.0,0.0,0.0,0.0,-4.8303,-4.6975,-4.6522,-4.6759,-4.7679,-4.8146,-4.8145,-4.7717,0.0,0.0,-4.7815,-4.8407,-4.909,-4.9041,-5.0044,-5.1208,-5.2826,-5.0895,-4.9713,-5.1056,-5.0221,-4.939,-4.9757,-4.9289,-4.8686,-4.178,0.0,0.0,0.0,0.0,-3.9822,-4.0757,-4.2478,-4.2498,-4.2666,-4.297,-4.2628,0.0,0.0,0.0,0.0,0.0,0.0,-4.3119,-4.3686,-4.4174,-4.4562,-4.4872,-4.4872,-4.4857,-4.4822,-4.482,-4.4803,-4.469,-4.3407,-4.2172,-4.1089,0.0,0.0,0.0,0.0,-4.1489,-4.3489,-4.4028,-4.4718,-4.5618,-4.5687,-4.5719,-4.5696,-4.5449,-4.4928,-4.4083,-4.3813,-4.3196,-4.2155,-4.1514,0.0,0.0,0.0,0.0,0.0,0.0,0.0,0.0,0.0,0.0,0.0,0.0,0.0,0.0,0.0,0.0,0.0,0.0,0.0,-4.1642,-4.2858,-4.3107,0.0,0.0,0.0,0.0,0.0,0.0,0.0,0.0,0.0,-4.7181,-4.7052,-4.7109,0.0,0.0,-4.8159,-4.7062,-4.7545,-4.8023,-4.8014,0.0,0.0,0.0,-4.8409,-4.8225,-4.9143,-4.9897,-5.0283,-4.9931,-5.08,-5.1506,-5.1529,-5.1865,-5.2365,-5.2802,-5.2246,-5.1601,-5.187,-5.1618,-5.1365,-5.1405,-5.0753,-5.0067,-4.4662,-4.2086,-4.0992,-4.1073,-4.1807,-4.1447,-4.2345,-4.4049,-4.4119,-4.4193,-4.4275,-4.4193,-4.3223,-4.1668,-4.1142,0.0,0.0,0.0,-4.4129,-4.4889,-4.4889,-4.5158,-4.5566,-4.5568,-4.5532,-4.5495,-4.5476,-4.5438,-4.5376,-4.4882,-4.4,-4.2746,0.0,0.0,-4.2287,-4.2069,-4.2708,-4.4187,-4.4552,-4.5009,-4.5522,-4.5565,-4.5584,-4.5599,-4.5635,-4.5384,-4.49,-4.4881,-4.4495,-4.3651,-4.2819,-4.1967,0.0,0.0,0.0,0.0,0.0,0.0,0.0,0.0,0.0,0.0,0.0,-4.037,-4.0211,0.0,0.0,0.0,-4.1092,-4.1683,-4.2451,-4.3107,0.0,0.0,0.0,0.0,0.0,0.0,0.0,-4.5274,-4.6287,-4.7448,-4.85,-4.8228,-4.8117,-4.8435,-4.8303,-4.7976,-4.7545,0.0,-4.8264,-4.8655,-4.8781,-4.904,-4.9722,-4.9326,-4.9258,-5.0135,-5.0574,-5.0772,-5.0748,-5.1269,-5.1835,-5.214,-5.2094,-5.218,-5.2713,-5.2676,-5.2508,-5.2275,-5.2069,-5.1899,-5.173,-5.0987,-5.0365,-4.7226,-4.5391,-4.2815,-4.2679,-4.4059,-4.3293,-4.3829,-4.5284,-4.5475,-4.5071,-4.4288,-4.5204,-4.4737,-4.3288,-4.3288,0.0,0.0,-4.4463,-4.4889,-4.5586,-4.5586,-4.5586,-4.5568,-4.5513,-4.5495,-4.5476,-4.5419,-4.54,-4.5379,-4.5438,-4.5036,-4.4192,-4.352,-4.3186,-4.3233,-4.3912,-4.4338,-4.4397,-4.5107,-4.5505,-4.5491,-4.5436,-4.5438,-4.5495,-4.5495,-4.5532,-4.5586,-4.5586,-4.5182,-4.4335,-4.3638,-4.2864,-4.194,0.0,0.0,0.0,0.0,0.0,0.0,0.0,0.0,0.0,0.0,0.0,0.0,0.0,0.0,0.0,-4.2108,0.0,-4.4027,-4.3471,0.0,0.0,0.0,-4.4287,-4.4814,-4.5678,-4.6139,-4.5993,0.0,0.0,-4.8684,0.0,-5.0044,-5.0646,-4.966,-4.8929,-4.8877,-4.8855,-4.8924,-4.8902,-4.8924,-4.9183,-4.989,-5.0187,-5.0368,-5.0513,-5.0678,-5.0569,-5.0422,-5.048,-5.0734,-5.1422,-5.1083,-5.103,-5.217,-5.2309,-5.24,-5.2335,-5.191,-5.1484,-5.1329,-5.0749,-5.0153,-4.7348,-4.6333,-4.5097,-4.4606,-4.4602,-4.4364,-4.4661,-4.5302,-4.5342,-4.5323,-4.5243,-4.549,-4.5026,-4.4045,-4.4047,-4.4143,-4.4352,-4.4953,-4.5339,-4.5513,-4.5457,-4.5381,-4.5302,-4.54,-4.5361,-4.5298,-4.536,-4.5379,-4.5317,-4.5319,-4.5265,-4.5093,-4.4921,-4.4556,-4.3961,-4.4133,-4.4536,-4.5131,-4.5381,-4.5534,-4.5563,-4.5458,-4.5438,-4.5495,-4.5495,-4.5513,-4.5532,-4.5568,-4.5182,-4.4374,-4.4703,-4.428,-4.2874,-4.2376,0.0,0.0,0.0,0.0,0.0,0.0,0.0,0.0,0.0,-4.0648,-3.9739,0.0,-4.1333,0.0,-4.3305,-4.4874,-4.5656,-4.5537,0.0,0.0,-4.5645,-4.5681,-4.5789,-4.6524,-4.6985,-4.6838,-4.7535,-4.8559,-4.9989,-4.9934,-5.0279,-5.1468,-5.0788,-4.9948,-4.9425,-4.9582,-4.9717,-4.97,-4.9683,-4.9786,-4.9924,-4.9556,-4.943,-4.9698,-4.9788,-4.9674,-4.9309,-4.9968,-5.0432,-5.0158,-5.0171,-5.0552,-5.1293,-5.104,-5.0941,-5.1357,-5.1855,-5.2236,-5.2162,-5.1806,-5.1358,-4.7015,-4.6594,-4.5835,-4.5161,-4.4605,-4.4796,-4.4995,-4.5218,-4.5282,-4.5362,-4.5457,-4.5568,-4.5336,-4.4874,-4.4876,-4.4876,-4.4858,-4.5282,-4.5687,-4.6014,-4.5592,-4.5572,-4.5857,-4.5553,-4.5551,-4.5831,-4.5874,-4.6084,-4.6405,-4.6424,-4.6407,-4.6451,-4.6451,-4.6261,-4.5821,-4.5151,-4.4978,-4.54,-4.5438,-4.5611,-4.5975,-4.5915,-4.5935,-4.6033,-4.6033,-4.5879,-4.555,-4.5605,-4.5374,-4.4913,-4.4934,-4.4741,-4.422,-4.3475,-4.3013,0.0,0.0,0.0,0.0,0.0,0.0,0.0,0.0,0.0,0.0,0.0,-4.2545,0.0,-4.4624,0.0,-4.6184,-4.6181,-4.6295,-4.6561,-4.6635,-4.678,-4.7059,-4.7481,-4.7701,-4.7645,-4.8031,-4.8744,-4.997,-4.9828,-5.0177,-5.171,-5.1231,-5.0488,-5.0134,-5.0303,-5.0453,-5.0302,-5.0397,-5.0564,-5.0564,-5.0198,-4.9816,-4.9714,-4.9697,-4.9607,-4.9181,-4.9365,-4.9636,-4.9766,-4.9782,-4.9973,-5.0675,-5.0591,-5.0471,-5.0871,-5.1282,-5.1357,-5.0977,-5.0552,-5.0073,-4.6527,-4.6499,-4.573,-4.499,-4.4344,-4.4846,-4.5057,-4.5038,-4.5178,-4.5263,-4.5322,-4.5495,-4.5568,-4.5568,-4.5701,-4.5646,-4.5514,-4.5591,-4.5956,-4.6473,-4.5841,-4.5956,-4.6645,-4.5991,-4.6066,-4.6674,-4.665,-4.701,-4.7735,-4.7754,-4.7796,-4.7818,-4.7818,-4.784,-4.7848,-4.6513,-4.5745,-4.5592,-4.5554,-4.5898,-4.6502,-4.6431,-4.6415,-4.6531,-4.6531,-4.6244,-4.5643,-4.5586,-4.5528,-4.5413,-4.4816,-4.4759,-4.5355,-4.4145,-4.3686,0.0,-4.3613,0.0,0.0,0.0,0.0,0.0,0.0,0.0,0.0,-4.2265,-4.3738,-4.5286,-4.5946,-4.6356,-4.6396,-4.6431,-4.6653,-4.7186,-4.7368,-4.7661,-4.8233,-4.8324,-4.8324,-4.8324,-4.8324,-4.8618,-4.9462,-4.9493,-4.9998,-5.1451,-5.133,-5.0838,-5.0717,-5.0894,-5.0999,-5.0749,-5.0858,-5.0822,-5.0681,-5.0662,-5.0326,-4.988,-4.9735,-4.9675,-4.9285,-4.8884,-4.882,-4.9517,-4.9343,-4.9341,-5.0209,-5.0263,-5.0291,-5.0437,-5.03,-4.9974,-4.9477,-4.9029,-4.8179,-4.6494,-4.6452,-4.5698,-4.4929,-4.4274,-4.4738,-4.4827,-4.4636,-4.4857,-4.5132,-4.5381,-4.54,-4.5438,-4.5515,-4.6186,-4.6071,-4.5458,-4.6089,-4.6107,-4.5667,-4.6084,-4.6326,-4.6507,-4.707,-4.7285,-4.7176,-4.7251,-4.739,-4.7566,-4.7566,-4.7662,-4.7884,-4.7884,-4.7905,-4.7947,0.0,0.0,0.0,-4.6436,-4.6493,-4.6704,-4.5995,-4.5649,-4.5726,-4.5706,0.0,-4.5532,-4.5568,-4.5259,-4.4605,-4.5012,0.0,0.0,0.0,0.0,0.0,0.0,0.0,0.0,0.0,0.0,0.0,-4.3144,-4.3008,-4.2414,-4.3698,-4.526,-4.6812,-4.7038,-4.7353,-4.7979,-4.7959,-4.7958,-4.8067,-4.8084,-4.8157,-4.8306,-4.8324,-4.8324,-4.8324,-4.8324,-4.8636,-4.9389,-4.9493,-4.9998,-5.1425,-5.1602,-5.1312,-5.0958,-5.1108,-5.1192,-5.107,-5.0661,-5.0024,-4.9354,-4.8873,-4.8804,-4.8597,-4.8737,-4.8668,-4.843,-4.8792,-4.8714,-4.8454,-4.8216,-4.8421,-4.8974,-4.8756,-4.8798,-4.9222,-4.8981,-4.8912,-4.9883,-4.9925,-4.9567,-4.6735,0.0,-4.5853,-4.5108,0.0,-4.4655,-4.453,-4.4448,-4.4857,-4.5151,-4.532,-4.5362,-4.54,-4.5458,-4.632,-4.6454,-4.6032,-4.6853,-4.7233,-4.7212,-4.7171,-4.7354,-4.7728,-4.7681,-4.7824,-4.8175,-4.8106,-4.8384,-4.8862,-4.8881,-4.8948,-4.9086,-4.9105,-4.9086,-4.9108,-4.9149,-4.8558,-4.7356,-4.7277,-4.7488,-4.789,-4.7465,-4.7256,-4.7279,0.0,0.0,0.0,0.0,0.0,0.0,0.0,0.0,0.0,0.0,0.0,-4.4522,-4.4284,-4.4046,-4.3782,-4.323,-4.3185,-4.3886,-4.4591,-4.502,-4.5016,-4.5709,-4.6616,-4.7813,-4.7831,-4.7959,-4.8364,-4.8363,-4.8324,-4.8324,-4.8324,-4.8324,-4.8324,-4.8324,-4.8324,-4.8324,-4.8324,-4.8489,-4.8875,-4.8909,-4.9365,-5.0483,-5.062,-5.0599,-5.0846,-5.1509,-5.1886,-5.1425,-5.0706,-5.0078,-4.9665,-4.9305,-4.8848,-4.888,-4.884,-4.8617,-4.8079,-4.8379,-4.8525,-4.8061,-4.805,-4.8236,-4.8407,-4.8306,-4.8279,-4.8528,-4.8443,-4.8428,-4.923,-4.9314,-4.9122,-4.7088,-4.7571,-4.6271,-4.5639,-4.5486,-4.498,-4.4853,-4.4944,0.0,0.0,0.0,-4.5706,-4.5803,-4.5898,-4.6739,-4.7004,-4.6889,-4.7731,-4.8398,-4.8831,-4.8296,-4.8411,-4.906,-4.8343,-4.8438,-4.9243,-4.9017,-4.9359,-5.0236,-5.0255,-5.0278,-5.0302,-5.0302,-5.0302,-5.0302,-5.0302,-4.9656,-4.8381,-4.8171,-4.8439,-4.9083,-4.8965,-4.8911,-4.8881,-4.8769,-4.8062,-4.6761,-4.655,-4.6129,-4.5458,-4.5376,-4.5451,-4.5592,-4.5456,-4.509,-4.4611,-4.4811,-4.487,-4.4608,-4.4325,-4.4482,-4.5216,-4.593,-4.6616,-4.7314,-4.7445,-4.7758,-4.8402,-4.8363,-4.8306,-4.8324,-4.8324,-4.8324,-4.8324,-4.8324,-4.8324,-4.8324,-4.8324,-4.8324,-4.8324,-4.8324,-4.8324,-4.8343,-4.8361,-4.8636,-4.937,-4.9621,-4.9746,-5.0547,-5.1517,-5.1861,-5.1096,-5.0416,-5.0101,-4.9937,-4.9786,-4.9706,-4.9031,-4.8958,-4.8798,-4.8291,-4.813,-4.8187,-4.8148,-4.8247,-4.8286,-4.8267,-4.8247,-4.8324,-4.8324,-4.8324,-4.8324,-4.8324,-4.8324,-4.8281,-4.7608,-4.7683,-4.746,-4.6958,-4.6359,-4.6599,-4.6928,-4.7224,-4.643,-4.6153,-4.6366,-4.712,-4.7465,-4.7515,-4.8378,-4.8359,-4.7704,-4.8548,-4.8582,0.0,-4.8621,-4.8965,-4.9117,-4.9648,-4.9877,-4.9867,-4.9834,-4.9898,-5.0038,-5.0057,-5.0114,-5.0278,-5.0302,-5.0302,-5.0302,-5.0302,-5.0187,-4.9962,-4.9299,-4.8996,-4.9089,-4.8482,-4.8158,-4.8121,-4.747,-4.6933,-4.6704,-4.6033,-4.5534,-4.5419,-4.609,-4.6472,-4.6431,-4.7021,-4.7335,-4.6977,-4.6209,-4.563,-4.5335,-4.4507,-4.4513,-4.584,-4.6689,-4.7169,-4.7316,-4.7849,-4.8196,-4.8324,-4.8306,-4.8324,-4.8324,-4.8324,-4.8324,-4.8324,-4.8324,-4.8324,-4.8324,-4.8324,-4.8324,-4.8324,-4.8324,-4.8324,-4.8324,-4.8324,-4.86,-4.9334,-4.9444,-4.9829,-5.0373,-5.0725,-5.0399,-4.976,-4.9469,-4.9086,-4.8725,-4.8356,-4.8433,-4.8331,-4.8425,-4.8407,-4.8284,-4.8286,-4.8247,-4.809,-4.8208,-4.8229,-4.8111,-4.819,-4.8286,-4.8324,-4.8324,-4.8324,-4.8324,-4.8306,-4.8229,-4.8351,-4.833,-4.8035,-4.7708,-4.7367,-4.7334,-4.7485,-4.7796,-4.7804,-4.756,-4.7245,-4.7633,-4.7783,-4.7876,-4.8716,-4.8907,-4.8544,-4.9366,-4.9538,-4.9213,-4.9576,-4.9748,-4.9786,-5.0011,-5.0139,-5.0158,-5.0057,-5.0057,-5.0139,-5.0158,-5.0207,-5.0302,-5.0302,-5.0302,-5.0302,-5.0302,-5.0302,-5.0302,-4.9924,-4.9755,-4.9736,-4.9433,-4.9242,-4.9242,-4.884,-4.8439,-4.802,-4.7618,-4.7197,-4.6698,-4.6517,-4.6647,-4.721,-4.6445,-4.6133,-4.6516,-4.5866,-4.5382,-4.5231,-4.4753,-4.4697,-4.5312,-4.6084,-4.6746,-4.715,-4.7865,-4.8306,-4.8324,-4.8324,-4.8324,-4.8324,-4.8324,-4.8324,-4.8324,-4.8324,-4.8324,-4.8324,-4.8324,-4.8324,-4.8324,-4.8324,-4.8324,-4.8324,-4.8324,-4.8416,-4.8838,-4.8893,-4.9077,-4.9426,-4.9383,-4.934,-4.9362,-4.9029,-4.8608,-4.8224,-4.8132,-4.819,-4.8247,-4.8265,-4.8286,-4.8306,-4.8324,-4.8286,-4.8208,-4.8247,-4.8267,-4.819,-4.8247,-4.8324,-4.8324,-4.8324,-4.8324,-4.8306,-4.8267,-4.8208,-4.9042,-4.9019,-4.8615,-4.8476,-4.851,-4.8185,-4.8191,-4.843,-4.9079,-4.8984,-4.843,-4.8372,-4.8372,-4.8449,-4.9095,-4.9362,-4.9442,-5.0015,-5.0302,-5.0302,-5.0302,-5.0302,-5.0278,-5.0114,-5.0158,-5.0278,-5.0158,-5.0158,-5.0278,-5.0302,-5.0302,-5.0302,-5.0302,-5.0302,-5.0302,-5.0302,-5.0302,-5.0302,-5.0302,-5.0302,-5.0302,-5.0302,-5.0302,-5.0302,-5.0087,-4.9706,-4.9117,-4.8671,-4.8251,-4.7777,-4.6901,-4.682,-4.7594,-4.6142,-4.5453,-4.597,-4.5506,-4.5008,-4.4746,-4.4644,-4.4741,-4.5038,-4.5535,-4.6305,-4.7278,-4.7939,-4.8324,-4.8324,-4.8324,-4.8324,-4.8324,-4.8324,-4.8324,-4.8324,-4.8324,-4.8324,-4.8324,-4.8324,-4.8324,-4.8324,-4.8324,-4.8324,-4.8324,-4.8324,-4.8343,-4.8343,-4.8324,-4.8324,-4.8324,-4.8324,-4.8618,-4.893,-4.8728,-4.8379,-4.8324,-4.8324,-4.8306,-4.8324,-4.8324,-4.8306,-4.8324,-4.8324,-4.8324,-4.8286,-4.8324,-4.8306,-4.8324,-4.8324,-4.8324,-4.8324,-4.8324,-4.8324,-4.8324,-4.8247,-4.8148,-4.951,-4.9539,-4.9475,-4.9589,-4.9781,-4.9758,-4.9828,-4.9992,-5.0149,-5.0168,-4.9977,-5.0054,-5.0015,-5.0092,-5.013,-5.0149,-5.0168,-5.0264,-5.0302,-5.0302,-5.0302,-5.0302,-5.0302,-5.0278,-5.0278,-5.0302,-5.0278,-5.0278,-5.0302,-5.0302,-5.0302,-5.0302,-5.0302,-5.0302,-5.0302,-5.0302,-5.0302,-5.0302,-5.0302,-5.0302,-5.0302,-5.0302,-5.0302,-5.0302,-4.9525,-4.9105,-4.9098,-4.7362,-4.6863,-4.7655,-4.7315,-4.7148,-4.7498,-4.7691,-4.756,-4.6826,-4.584,-4.491,-4.4059,-4.3729,-4.4356,-4.5752,-4.592,-4.6562,-4.7957,-4.8233,-4.8324,-4.8324,-4.8324,-4.8324,-4.8324,-4.8324,-4.8324,-4.8324,-4.8324,-4.8324,-4.8324,-4.8324,-4.8324,-4.8324,-4.8324,-4.8324,-4.8324,-4.8324,-4.8324,-4.8324,-4.8324,-4.8324,-4.8324,-4.8324,-4.8324,-4.8453,-4.8324,-4.8324,-4.8324,-4.8324,-4.8324,-4.8324,-4.8324,-4.8324,-4.8324,-4.8324,-4.8324,-4.8324,-4.8324,-4.8324,-4.8324,-4.8324,-4.8324,-4.8324,-4.8324,-4.8324,-4.8306,-4.8247,-4.8148,-4.9598,-4.9617,-4.9778,-4.9986,-5.0182,-5.0182,-5.0212,-5.0302,-5.0302,-5.0302,-5.0302,-5.0302,-5.0302,-5.0302,-5.0302,-5.0302,-5.0302,-5.0302,-5.0302,-5.0302,-5.0302,-5.0302,-5.0302,-5.0302,-5.0302,-5.0302,-5.0302,-5.0302,-5.0302,-5.0302,-5.0302,-5.0302,-5.0302,-5.0302,-5.0302,-5.0302,-5.0302,-5.0302,-5.0264,-5.024,-5.0236,-5.0278,-5.0278,-5.0217,-4.993,-4.9759,-4.9701,-4.8962,-4.8519,-4.8324,-4.7701,-4.7333,-4.7307,-4.6431,-4.591,-4.5889,-4.4896,-4.4269,-4.4318,-4.4248,-4.4709,-4.5919,-4.6397,-4.6929,-4.7535,-4.8012,-4.8324,-4.8324,-4.8324,-4.8324,-4.8324,-4.8324,-4.8324,-4.8324,-4.8324,-4.8324,-4.8324,-4.8324,-4.8324,-4.8324,-4.8324,-4.8324,-4.8324,-4.8324,-4.8324,-4.8324,-4.8324,-4.8324,-4.8324,-4.8324,-4.8324,-4.8324,-4.8324,-4.8324,-4.8324,-4.8324,-4.8324,-4.8324,-4.8324,-4.8324,-4.8324,-4.8324,-4.8324,-4.8324,-4.8324,-4.8324,-4.8324,-4.8324,-4.8324,-4.8324,-4.8306,-4.8267,-4.8247,-4.8247,-4.8148,-4.9795,-4.9814,-4.9993,-5.0182,-5.0302,-5.0302,-5.0302,-5.0302,-5.0302,-5.0302,-5.0302,-5.0302,-5.0302,-5.0302,-5.0302,-5.0302,-5.0302,-5.0302,-5.0302,-5.0302,-5.0302,-5.0302,-5.0302,-5.0302,-5.0302,-5.0302,-5.0302,-5.0302,-5.0302,-5.0302,-5.0302,-5.0302,-5.0302,-5.0302,-5.0259,-5.0302,-5.0278,-5.0236,-5.0202,-5.0197,-5.0188,-5.0207,-5.0207,-5.0182,-5.0207,-5.0207,-5.0163,-4.9885,-4.941,-4.8694,-4.7761,-4.706,-4.6704,-4.526,-4.4532,-4.4697,-4.3996,-4.3771,-4.443,-4.4616,-4.5057,-4.5937,-4.6691,-4.7205,-4.7498,-4.7976,-4.8288,-4.8324,-4.8324,-4.8324,-4.8324,-4.8324,-4.8324,-4.8324,-4.8324,-4.8324,-4.8324,-4.8324,-4.8324,-4.8324,-4.8324,-4.8324,-4.8324,-4.8324,-4.8324,-4.8324,-4.8324,-4.8324,-4.8324,-4.8324,-4.8324,-4.8324,-4.8324,-4.8324,-4.8324,-4.8324,-4.8324,-4.8324,-4.8324,-4.8324,-4.8324,-4.8324,-4.8324,-4.8324,-4.8324,-4.8324,-4.8324,-4.8324,-4.8324,-4.8324,-4.8306,-4.8267,-4.8247,-4.8286,-4.8208,-5.0259,-5.024,-5.0278,-5.024,-5.0283,-5.0225,-5.0245,-5.0111,-5.0206,-5.0245,-5.0225,-5.0245,-5.0283,-5.0302,-5.0302,-5.0302,-5.0302,-5.0302,-5.0302,-5.0302,-5.0302,-5.0302,-5.0302,-5.0302,-5.0302,-5.0302,-5.0302,-5.0302,-5.0302,-5.0302,-5.0302,-5.0302,-5.0302,-5.0259,-5.0231,-5.0278,-5.0231,-5.0158,-5.0155,-5.0155,-5.0089,-5.012,-5.0095,-5.0101,-5.0057,-5.0057,-4.9981,-4.8975,-4.8419,-4.8617,-4.732,-4.6315,-4.5698,-4.5212,-4.4598,-4.3821,-4.3569,-4.3603,-4.3907,-4.4448,-4.5167,-4.61,-4.6838,-4.7443,-4.8067,-4.8251,-4.8306,-4.8324,-4.8324,-4.8324,-4.8324,-4.8324,-4.8324,-4.8324,-4.8324,-4.8324,-4.8324,-4.8324,-4.8324,-4.8324,-4.8324,-4.8324,-4.8324,-4.8324,-4.8324,-4.8324,-4.8324,-4.8324,-4.8324,-4.8324,-4.8324,-4.8324,-4.8324,-4.8324,-4.8324,-4.8324,-4.8324,-4.8324,-4.8324,-4.8324,-4.8324,-4.8324,-4.8324,-4.8324,-4.8324,-4.8324,-4.8324,-4.8324,-4.8324,-4.8324,-4.8324,-4.8286,-4.8286,-4.8286,-4.8247,-4.9519,-4.9519,-4.9519,-4.9519,-4.948,-4.8945,-4.8716,-4.8716,-4.8716,-4.9041,-4.948,-4.9534,-4.9801,-5.0302,-5.0302,-5.0302,-5.0302,-5.0302,-5.0302,-5.0302,-5.0302,-5.0302,-5.0302,-5.0302,-5.0302,-5.0302,-5.0302,-5.0302,-5.0302,-5.0302,-5.0302,-5.0302,-5.0302,-5.0278,-5.0278,-5.0236,-5.0207,-5.0163,-5.0125,-5.0057,-5.0038,-4.9978,-4.9971,-4.9978,-5.0031,-5.0005,-4.9898,-4.9568,-4.9124,-4.8466,-4.7485,-4.6853,-4.6416,-4.5618,-4.4872,-4.4303,-4.3773,-4.3752,-4.4338,-4.5056,-4.5865,-4.6709,-4.7463,-4.7939,-4.8233,-4.8324,-4.8324,-4.8324,-4.8324,-4.8324,-4.8324,-4.8324,-4.8324,-4.8324,-4.8324,-4.8324,-4.8324,-4.8324,-4.8324,-4.8324,-4.8324,-4.8324,-4.8324,-4.8324,-4.8324,-4.8324,-4.8324,-4.8324,-4.8324,-4.8324,-4.8324,-4.8324,-4.8324,-4.8324,-4.8324,-4.8324,-4.8324,-4.8324,-4.8324,-4.8324,-4.8324,-4.8324,-4.8324,-4.8324,-4.8324,-4.8324,-4.8324,-4.8324,-4.8324,-4.8324,-4.8324,-4.8324,-4.8324,-4.8324,-4.8286,-4.8678,-4.8678,-4.8678,-4.8697,-4.8602,-4.8048,-4.7799,-4.7837,-4.8105,-4.8563,-4.906,-4.9362,-4.9667,-4.9882,-4.9901,-4.9729,-4.9595,-5.0015,-5.0302,-5.0302,-5.0302,-5.0302,-5.0302,-5.0302,-5.0302,-5.0302,-5.0302,-5.0302,-5.0302,-5.0302,-5.0302,-5.0278,-5.0278,-5.0255,-5.0207,-5.0182,-5.0139,-5.0114,-5.0032,-4.9981,-4.9959,-4.9925,-4.9879,-4.9925,-4.9986,-4.9978,-4.9862,-4.9925,-4.9473,-4.8419,-4.7777,-4.7237,-4.6694,-4.59,-4.5337,-4.5056,-4.4599,-4.4342,-4.4818,-4.57,-4.6397,-4.6783,-4.7719,-4.8324,-4.8324,-4.8324,-4.8324,-4.8324,-4.8324,-4.8324,-4.8324,-4.8324,-4.8324,-4.8324,-4.8324,-4.8324,-4.8324,-4.8324,-4.8324,-4.8324,-4.8324,-4.8324,-4.8324,-4.8324,-4.8324,-4.8324,-4.8324,-4.8324,-4.8324,-4.8324,-4.8324,-4.8324,-4.8324,-4.8324,-4.8324,-4.8324,-4.8324,-4.8324,-4.8324,-4.8324,-4.8324,-4.8324,-4.8324,-4.8324,-4.8324,-4.8324,-4.8324,-4.8324,-4.8324,-4.8324,-4.8324,-4.8324,-4.8324,-4.8324,-4.8286,-4.7818,-4.7799,-4.7818,-4.7799,-4.7761,-4.7608,-4.7704,-4.7723,-4.8487,-4.8774,-4.8984,-4.9805,-4.9729,-4.927,-4.9255,-4.872,-4.8372,-4.9423,-5.0092,-5.0168,-5.0264,-5.0302,-5.0302,-5.0302,-5.0302,-5.0302,-5.0302,-5.0302,-5.0302,-5.0302,-5.0278,-5.0212,-5.0212,-5.0158,-5.0031,-5.0082,-5.0057,-4.9959,-4.9955,-4.9955,-4.9887,-4.9879,-4.9879,-4.9879,-4.9906,-4.9925,-4.9898,-4.9788,-4.9344,-4.8522,-4.8047,-4.7293,-4.6443,-4.6009,-4.5901,-4.5883,-4.5828,-4.5497,-4.5109,-4.6214,-4.6728,-4.6618,-4.7499,-4.8324,-4.8324,-4.8324,-4.8324,-4.8324,-4.8324,-4.8324,-4.8306,-4.8214,-4.8233,-4.8324,-4.8324,-4.8324,-4.8324,-4.8324,-4.8324,-4.8324,-4.8324,-4.8324,-4.8324,-4.8324,-4.8324,-4.8324,-4.8324,-4.8324,-4.8324,-4.8324,-4.8324,-4.8324,-4.8324,-4.8324,-4.8324,-4.8324,-4.8324,-4.8324,-4.8324,-4.8324,-4.8324,-4.8324,-4.8324,-4.8324,-4.8324,-4.8324,-4.8324,-4.8324,-4.8324,-4.8324,-4.8324,-4.8324,-4.8324,-4.8324,-4.8324,-4.7455,-4.692,-4.6901,-4.6901,-4.6825,-4.6309,-4.608,-4.6175,-4.6959,-4.7627,-4.8296,-4.9098,-4.9328,-4.9137,-4.9102,-4.8602,-4.7895,-4.8391,-4.8888,-4.9442,-5.0015,-5.0264,-5.0283,-5.0302,-5.0302,-5.0302,-5.0302,-5.0302,-5.0302,-5.0302,-5.0259,-5.0212,-5.0188,-5.0139,-5.0057,-5.0057,-5.0005,-4.9967,-4.994,-4.9914,-4.9906,-4.9879,-4.9879,-4.9879,-4.9879,-4.9879,-4.9879,-4.9871,-4.957,-4.9032,-4.8446,-4.7796,-4.712,-4.6498,-4.6375,-4.6636,-4.6177,-4.5828,-4.5736,-4.6452,-4.704,-4.7003,-4.7719,-4.8233,-4.8324,-4.8324,-4.8324,-4.8324,-4.8324,-4.8324,-4.8233,-4.7774,-4.7755,-4.8251,-4.8324,-4.8288,-4.8324,-4.8324,-4.8324,-4.8324,-4.8324,-4.8324,-4.8324,-4.8324,-4.8324,-4.8324,-4.8324,-4.8324,-4.8324,-4.8324,-4.8324,-4.8324,-4.8324,-4.8324,-4.8324,-4.8324,-4.8324,-4.8324,-4.8324,-4.8324,-4.8324,-4.8324,-4.8324,-4.8324,-4.8324,-4.8324,-4.8324,-4.8324,-4.8324,-4.8324,-4.8324,-4.8324,-4.8324,-4.8324,-4.8324,-4.6557,-4.608,-4.6061,-4.6061,-4.6003,-4.5488,-4.5297,-4.5411,-4.6137,-4.6825,-4.7494,-4.8582,-4.8907,-4.8678,-4.8643,-4.8146,-4.7417,-4.7668,-4.7955,-4.8334,-4.9385,-4.9824,-4.992,-5.0187,-5.0302,-5.0302,-5.0302,-5.0302,-5.0302,-5.0302,-5.0255,-5.0182,-5.0163,-5.0089,-5.0031,-4.9978,-4.9978,-4.9959,-4.9925,-4.9879,-4.9879,-4.9879,-4.9879,-4.9879,-4.9805,-4.975,-4.975,-4.9665,-4.9529,-4.929,-4.8778,-4.8245,-4.7774,-4.7314,-4.7187,-4.7352,-4.7113,-4.6709,-4.6507,-4.7131,-4.7407,-4.7333,-4.7847,-4.8306,-4.8324,-4.8324,-4.8324,-4.8324,-4.8012,-4.7976,-4.8122,-4.759,-4.7407,-4.7755,-4.7829,-4.7994,-4.8196,-4.8324,-4.8324,-4.8324,-4.8324,-4.8324,-4.8324,-4.8324,-4.8324,-4.8324,-4.8324,-4.8324,-4.8324,-4.8324,-4.8324,-4.8324,-4.8324,-4.8324,-4.8324,-4.8324,-4.8324,-4.8324,-4.8324,-4.8324,-4.8324,-4.8324,-4.8324,-4.8324,-4.8324,-4.8324,-4.8324,-4.8324,-4.8324,-4.8324,-4.8324,-4.8324,-4.8324,-4.8324,-4.8324,-4.5316,-4.5277,-4.5297,-4.5354,-4.5354,-4.5297,-4.5277,-4.5411,-4.6156,-4.6538,-4.692,-4.8239,-4.8487,-4.7898,-4.7805,-4.7327,-4.6694,-4.7155,-4.7136,-4.7171,-4.8143,-4.9117,-4.948,-5.0034,-5.0283,-5.0302,-5.0302,-5.0302,-5.0278,-5.0278,-5.0212,-5.0089,-5.0063,-5.0031,-4.9952,-4.9879,-4.9906,-4.9906,-4.9879,-4.9879,-4.9879,-4.9852,-4.9852,-4.9824,-4.9617,-4.948,-4.945,-4.9265,-4.9214,-4.9327,-4.8803,-4.8346,-4.829,-4.8269,-4.8031,-4.8159,-4.8269,-4.781,-4.748,-4.7755,-4.7957,-4.7462,-4.7902,-4.8324,-4.8324,-4.8324,-4.8324,-4.8288,-4.7755,-4.759,-4.8012,-4.759,-4.7186,-4.7114,-4.7223,-4.7535,-4.8177,-4.8324,-4.8324,-4.8324,-4.8324,-4.8324,-4.8324,-4.8324,-4.8324,-4.8324,-4.8324,-4.8324,-4.8324,-4.8324,-4.8324,-4.8324,-4.8324,-4.8324,-4.8324,-4.8324,-4.8324,-4.8324,-4.8324,-4.8324,-4.8324,-4.8324,-4.8324,-4.8324,-4.8324,-4.8324,-4.8324,-4.8324,-4.8324,-4.8324,-4.8324,-4.8324,-4.8324,-4.8324,-4.8324,-4.5277,-4.5277,-4.5277,-4.5277,-4.5277,-4.5277,-4.5277,-4.5392,-4.6156,-4.6443,-4.6748,-4.7646,-4.7707,-4.6985,-4.6946,-4.6508,-4.6068,-4.6049,-4.5971,-4.5927,-4.736,-4.885,-4.9786,-5.0168,-5.0302,-5.0302,-5.0302,-5.0274,-5.0239,-5.0226,-5.0158,-5.0031,-5.0012,-5.0005,-4.9925,-4.9879,-4.9879,-4.9879,-4.9879,-4.9898,-4.9871,-4.9692,-4.9634,-4.9558,-4.9358,-4.9201,-4.915,-4.8937,-4.8834,-4.8813,-4.7995,-4.7794,-4.8196,-4.7829,-4.7792,-4.8233,-4.8306,-4.8251,-4.8086,-4.8177,-4.8177,-4.8049,-4.8159,-4.8306,-4.8324,-4.8324,-4.8324,-4.8288,-4.8067,-4.8032,-4.8106,-4.7573,-4.715,-4.7095,-4.7131,-4.7425,-4.8104,-4.8324,-4.8324,-4.8324,-4.8324,-4.8324,-4.8324,-4.8324,-4.8324,-4.8324,-4.8324,-4.8324,-4.8324,-4.8324,-4.8324,-4.8324,-4.8324,-4.8324,-4.8324,-4.8324,-4.8324,-4.8324,-4.8324,-4.8324,-4.8324,-4.8324,-4.8324,-4.8324,-4.8324,-4.8324,-4.8324,-4.8324,-4.8324,-4.8324,-4.8324,-4.8324,-4.8324,-4.8324,-4.8324,-4.5277,-4.5277,-4.5277,-4.5277,-4.5277,-4.5277,-4.5277,-4.5373,-4.5755,-4.6003,-4.6194,-4.6882,-4.6999,-4.6642,-4.6643,-4.6434,-4.5993,-4.5955,-4.5763,-4.5644,-4.7073,-4.8697,-4.9939,-5.0302,-5.0302,-5.0302,-5.0302,-5.0269,-5.0209,-5.0201,-5.0133,-5.0012,-4.9986,-4.9959,-4.9925,-4.9879,-4.9879,-4.9879,-4.9879,-4.9871,-4.9721,-4.9612,-4.9452,-4.9315,-4.9071,-4.8903,-4.8765,-4.8605,-4.8532,-4.8421,-4.7959,-4.7829,-4.8196,-4.7884,-4.7847,-4.8306,-4.8324,-4.8324,-4.8324,-4.8324,-4.8324,-4.8306,-4.8324,-4.8324,-4.8324,-4.8324,-4.8324,-4.8306,-4.8049,-4.7995,-4.8106,-4.7573,-4.7352,-4.7535,-4.7315,-4.748,-4.8214,-4.8324,-4.8324,-4.8324,-4.8324,-4.8324,-4.8324,-4.8324,-4.8324,-4.8324,-4.8324,-4.8324,-4.8324,-4.8324,-4.8324,-4.8324,-4.8324,-4.8324,-4.8324,-4.8324,-4.8324,-4.8324,-4.8324,-4.8324,-4.8324,-4.8324,-4.8324,-4.8324,-4.8324,-4.8324,-4.8324,-4.8324,-4.8324,-4.8324,-4.8324,-4.8324,-4.8324,-4.8324,-4.8324,-4.5451,-4.5432,-4.5337,-4.5317,-4.5298,-4.5317,-4.5298,-4.5317,-4.5356,-4.5375,-4.5507,-4.608,-4.6371,-4.647,-4.6357,-4.6512,-4.6455,-4.6282,-4.6089,-4.6105,-4.6999,-4.843,-4.9901,-5.0221,-5.0259,-5.0259,-5.0278,-5.0226,-5.0171,-5.0158,-5.0108,-5.0005,-4.9959,-4.9933,-4.9852,-4.9852,-4.9898,-4.9852,-4.9822,-4.9721,-4.9529,-4.9415,-4.9239,-4.9052,-4.88,-4.8569,-4.8402,-4.8344,-4.8344,-4.8324,-4.8324,-4.8269,-4.8306,-4.8288,-4.8288,-4.8288,-4.8324,-4.8324,-4.8324,-4.8324,-4.8324,-4.8324,-4.8324,-4.8324,-4.8324,-4.8324,-4.8324,-4.8324,-4.7645,-4.7774,-4.8049,-4.7664,-4.7645,-4.7976,-4.7627,-4.7682,-4.8104,-4.8324,-4.8324,-4.8324,-4.8324,-4.8324,-4.8324,-4.8324,-4.8324,-4.8324,-4.8324,-4.8324,-4.8324,-4.8324,-4.8324,-4.8324,-4.8324,-4.8324,-4.8324,-4.8324,-4.8324,-4.8324,-4.8324,-4.8324,-4.8324,-4.8324,-4.8324,-4.8324,-4.8324,-4.8324,-4.8324,-4.8324,-4.8324,-4.8324,-4.8324,-4.8324,-4.8324,-4.8324,-4.8324,-4.6396,-4.6338,-4.5687,-4.5381,-4.5381,-4.538,-4.538,-4.5398,-4.538,-4.5341,-4.5376,-4.5568,-4.5685,-4.5705,-4.5802,-4.5669,-4.5822,-4.586,-4.5821,-4.6369,-4.65,-4.778,-4.9213,-4.9911,-5.0217,-5.0217,-5.0163,-5.0114,-5.007,-5.0038,-5.0005,-4.999,-4.9917,-4.9843,-4.9702,-4.9835,-4.9778,-4.9627,-4.9607,-4.9559,-4.9428,-4.9108,-4.8881,-4.876,-4.855,-4.8382,-4.8344,-4.8324,-4.8324,-4.8324,-4.8324,-4.8324,-4.8324,-4.8324,-4.8324,-4.8324,-4.8324,-4.8324,-4.8324,-4.8324,-4.8324,-4.8324,-4.8324,-4.8324,-4.8324,-4.8324,-4.8324,-4.8306,-4.8159,-4.8104,-4.8233,-4.8177,-4.8122,-4.8196,-4.8122,-4.8049,-4.8269,-4.8324,-4.8324,-4.8324,-4.8324,-4.8324,-4.8324,-4.8324,-4.8324,-4.8324,-4.8324,-4.8324,-4.8324,-4.8324,-4.8324,-4.8324,-4.8324,-4.8324,-4.8324,-4.8324,-4.8324,-4.8324,-4.8324,-4.8324,-4.8324,-4.8324,-4.8324,-4.8324,-4.8324,-4.8324,-4.8324,-4.8324,-4.8324,-4.8324,-4.8324,-4.8324,-4.8324,-4.8324,-4.8324,-4.7068,-4.6666,-4.6205,-4.5764,-4.5438,-4.54,-4.54,-4.5419,-4.5419,-4.5381,-4.5361,-4.538,-4.54,-4.5457,-4.586,-4.6071,-4.6052,-4.6033,-4.6434,-4.7002,-4.721,-4.7857,-4.8942,-4.9749,-5.0182,-5.0182,-5.0133,-5.0063,-5.0012,-5.0024,-5.0187,-5.041,-5.0005,-4.9967,-4.9962,-4.9872,-4.9636,-4.9531,-4.9495,-4.9437,-4.9276,-4.8917,-4.862,-4.8549,-4.8383,-4.8324,-4.8324,-4.8324,-4.8324,-4.8324,-4.8324,-4.8324,-4.8324,-4.8324,-4.8324,-4.8324,-4.8324,-4.8324,-4.8324,-4.8324,-4.8324,-4.8324,-4.8324,-4.8324,-4.8324,-4.8324,-4.8324,-4.8324,-4.8306,-4.8306,-4.8324,-4.8306,-4.8324,-4.8324,-4.8324,-4.8324,-4.8324,-4.8324,-4.8324,-4.8324,-4.8324,-4.8324,-4.8324,-4.8324,-4.8324,-4.8324,-4.8324,-4.8324,-4.8324,-4.8324,-4.8324,-4.8324,-4.8324,-4.8324,-4.8324,-4.8324,-4.8324,-4.8324,-4.8324,-4.8324,-4.8324,-4.8324,-4.8324,-4.8344,-4.8344,-4.8324,-4.8324,-4.8324,-4.8344,-4.8306,-4.8306,-4.8324,-4.8324,-4.8363,-4.8363,-4.7702,-4.6896,-4.6781,-4.6225,-4.5515,-4.5438,-4.5438,-4.5419,-4.5419,-4.5419,-4.5458,-4.5515,-4.5745,-4.5822,-4.6609,-4.6954,-4.6954,-4.6934,-4.7237,-4.7614,-4.7646,-4.8197,-4.9014,-4.9548,-4.9955,-5.0146,-5.0076,-5.0005,-4.9997,-5.0028,-5.035,-5.0818,-5.0032,-4.9932,-5.0334,-4.9951,-4.9499,-4.9431,-4.9391,-4.9325,-4.909,-4.8807,-4.8513,-4.8383,-4.8344,-4.8324,-4.8324,-4.8324,-4.8324,-4.8324,-4.8324,-4.8324,-4.8324,-4.8324,-4.8324,-4.8324,-4.8324,-4.8324,-4.8324,-4.8324,-4.8324,-4.8324,-4.8324,-4.8324,-4.8324,-4.8324,-4.8324,-4.8324,-4.8324,-4.8324,-4.8324,-4.8324,-4.8324,-4.8324,-4.8324,-4.8324,-4.8324,-4.8324,-4.8324,-4.8324,-4.8324,-4.8324,-4.8324,-4.8324,-4.8324,-4.8324,-4.8324,-4.8324,-4.8324,-4.8324,-4.8324,-4.8324,-4.8324,-4.8324,-4.8324,-4.8439,-4.8458,-4.8439,-4.842,-4.8439,-4.8439,-4.855,-4.8605,-4.8439,-4.8402,-4.842,-4.8439,-4.8476,-4.8476,-4.842,-4.842,-4.8458,-4.8458,-4.842,-4.842,-4.8664,-4.7818,-4.7145,-4.6376,-4.5645,-4.5587,-4.5589,-4.5495,-4.5569,-4.5514,-4.5554,-4.6225,-4.6513,-4.6664,-4.7394,-4.7738,-4.7832,-4.7792,-4.7786,-4.793,-4.7968,-4.8327,-4.9015,-4.9289,-4.9588,-4.9898,-4.9959,-4.9959,-4.9978,-4.999,-5.0407,-5.0854,-5.008,-4.9859,-5.0153,-4.9828,-4.9358,-4.919,-4.9192,-4.9135,-4.8982,-4.8657,-4.8383,-4.8324,-4.8324,-4.8324,-4.8324,-4.8324,-4.8324,-4.8324,-4.8324,-4.8324,-4.8324,-4.8324,-4.8324,-4.8324,-4.8324,-4.8324,-4.8324,-4.8324,-4.8324,-4.8324,-4.8324,-4.8324,-4.8324,-4.8324,-4.8324,-4.8324,-4.8324,-4.8324,-4.8324,-4.8324,-4.8324,-4.8324,-4.8324,-4.8324,-4.8324,-4.8324,-4.8324,-4.8324,-4.8324,-4.8324,-4.8324,-4.8324,-4.8324,-4.8324,-4.8324,-4.8324,-4.8324,-4.8324,-4.8324,-4.8324,-4.8324,-4.8324,-4.8324,-4.8514,-4.8641,-4.8677,-4.8658,-4.8765,-4.88,-4.8937,-4.8937,-4.88,-4.8694,-4.8694,-4.873,-4.8713,-4.873,-4.873,-4.8677,-4.8642,-4.866,-4.8695,-4.8714,-4.9567,-4.8759,-4.8336,-4.7432,-4.6394,-4.6259,-4.5972,-4.5664,-4.603,-4.6241,-4.6435,-4.7012,-4.7395,-4.7566,-4.8217,-4.8811,-4.9058,-4.8671,-4.8761,-4.8904,-4.8709,-4.8815,-4.9423,-4.9474,-4.9676,-4.991,-4.9952,-4.9906,-4.9952,-4.9906,-5.0418,-5.0714,-4.9962,-4.9664,-5.0067,-4.9682,-4.9211,-4.9011,-4.9017,-4.8993,-4.8884,-4.8495,-4.8344,-4.8324,-4.8324,-4.8324,-4.8324,-4.8324,-4.8324,-4.8324,-4.8324,-4.8324,-4.8324,-4.8324,-4.8324,-4.8324,-4.8324,-4.8324,-4.8324,-4.8324,-4.8324,-4.8324,-4.8324,-4.8324,-4.8324,-4.8324,-4.8324,-4.8324,-4.8324,-4.8324,-4.8324,-4.8324,-4.8324,-4.8324,-4.8324,-4.8324,-4.8324,-4.8324,-4.8324,-4.8324,-4.8324,-4.8324,-4.8324,-4.8324,-4.8324,-4.8324,-4.8324,-4.8324,-4.8324,-4.8324,-4.8324,-4.8344,-4.8344,-4.8439,-4.8476,-4.8677,-4.8869,-4.8903,-4.8919,-4.8986,-4.9052,-4.9169,-4.9233,-4.9169,-4.9118,-4.9019,-4.8971,-4.8937,-4.9019,-4.9052,-4.8971,-4.8922,-4.8956,-4.9008,-4.8993,-5.0163,-4.9413,-4.9413,-4.8529,-4.7278,-4.7144,-4.6778,-4.6336,-4.6836,-4.7144,-4.7241,-4.7895,-4.824,-4.8449,-4.9041,-4.9767,-5.038,-4.9589,-4.9675,-4.9854,-4.9544,-4.9567,-4.9867,-5.0031,-4.9967,-4.994,-4.9925,-4.9906,-4.9933,-4.9906,-5.0458,-5.0856,-5.004,-4.9743,-5.025,-4.9806,-4.9203,-4.8841,-4.8884,-4.8863,-4.8639,-4.844,-4.8324,-4.8324,-4.8324,-4.8324,-4.8324,-4.8324,-4.8324,-4.8324,-4.8324,-4.8324,-4.8324,-4.8324,-4.8324,-4.8324,-4.8324,-4.8324,-4.8324,-4.8324,-4.8324,-4.8324,-4.8324,-4.8324,-4.8324,-4.8324,-4.8324,-4.8324,-4.8324,-4.8324,-4.8324,-4.8324,-4.8324,-4.8324,-4.8324,-4.8324,-4.8324,-4.8324,-4.8324,-4.8324,-4.8324,-4.8324,-4.8324,-4.8324,-4.8324,-4.8324,-4.8324,-4.8324,-4.8324,-4.8324,-4.8324,-4.8382,-4.8439,-4.8569,-4.8694,-4.8869,-4.9038,-4.915,-4.9182,-4.9246,-4.9277,-4.9358,-4.9389,-4.948,-4.9469,-4.9358,-4.9265,-4.9233,-4.9296,-4.9296,-4.9233,-4.9201,-4.9334,-4.9321,-4.9257,-5.0182,-4.9413,-4.9413,-4.8836,-4.8048,-4.7971,-4.7913,-4.7759,-4.7875,-4.7971,-4.8029,-4.876,-4.9122,-4.9233,-4.9778,-5.0172,-5.023,-5.0149,-5.0026,-5.01,-4.9992,-4.9879,-4.994,-5.0005,-4.9933,-4.9925,-4.9879,-4.9933,-4.9906,-4.9879,-5.0572,-5.1266,-5.0721,-5.0405,-5.0655,-5.0043,-4.9434,-4.8857,-4.8725,-4.8639,-4.8403,-4.8326,-4.8306,-4.8324,-4.8324,-4.8324,-4.8324,-4.8324,-4.8324,-4.8324,-4.8324,-4.8324,-4.8324,-4.8324,-4.8324,-4.8324,-4.8324,-4.8324,-4.8324,-4.8324,-4.8324,-4.8324,-4.8324,-4.8324,-4.8324,-4.8324,-4.8324,-4.8324,-4.8324,-4.8324,-4.8324,-4.8324,-4.8324,-4.8324,-4.8324,-4.8324,-4.8324,-4.8324,-4.8324,-4.8324,-4.8324,-4.8324,-4.8324,-4.8324,-4.8324,-4.8324,-4.8324,-4.8324,-4.8344,-4.8382,-4.8382,-4.8439,-4.8587,-4.8694,-4.8919,-4.9085,-4.9265,-4.942,-4.945,-4.948,-4.9539,-4.9588,-4.9722,-4.975,-4.9722,-4.9693,-4.9636,-4.9607,-4.9607,-4.9558,-4.9499,-4.9577,-4.9702,-4.9644,-4.9525,-5.0582,-5.0199,-5.0163,-4.9663,-4.8931,-4.8893,-4.8566,-4.8279,-4.8625,-4.8836,-4.899,-4.9642,-4.9923,-4.9915,-5.021,-5.0283,-5.0302,-5.0278,-5.0207,-5.0089,-5.0089,-5.0012,-4.9933,-4.9906,-4.9879,-4.975,-4.9797,-4.9778,-4.9805,-4.9938,-5.0478,-5.1061,-5.0712,-5.024,-5.0639,-5.0139,-4.9363,-4.8735,-4.8458,-4.8403,-4.8364,-4.8324,-4.8324,-4.8324,-4.8324,-4.8324,-4.8324,-4.8324,-4.8324,-4.8324,-4.8324,-4.8324,-4.8324,-4.8324,-4.8324,-4.8324,-4.8324,-4.8324,-4.8324,-4.8324,-4.8324,-4.8324,-4.8324,-4.8324,-4.8324,-4.8324,-4.8324,-4.8324,-4.8324,-4.8324,-4.8324,-4.8324,-4.8324,-4.8324,-4.8324,-4.8324,-4.8324,-4.8324,-4.8324,-4.8324,-4.8324,-4.8324,-4.8344,-4.8344,-4.8344,-4.8324,-4.8382,-4.8439,-4.8514,-4.8569,-4.8569,-4.8587,-4.8713,-4.8869,-4.9118,-4.9358,-4.9499,-4.9617,-4.9693,-4.975,-4.9778,-4.9879,-4.9879,-4.9879,-4.9824,-4.9824,-4.9898,-4.9852,-4.975,-4.975,-4.9769,-4.9797,-4.9843,-4.9807,-4.9673,-5.0846,-5.0829,-5.0739,-5.0354,-4.9815,-4.9797,-4.9432,-4.8894,-4.9452,-4.974,-4.9856,-5.0256,-5.0396,-5.0325,-5.0283,-5.0302,-5.0302,-5.0212,-5.0182,-5.0108,-5.0031,-4.9978,-4.9906,-4.9879,-4.975,-4.9499,-4.9693,-4.9617,-4.9604,-4.9849,-5.0357,-5.0879,-5.0788,-5.0488,-5.0213,-5.0101,-4.9637,-4.8456,-4.8326,-4.8326,-4.8324,-4.8324,-4.8324,-4.8324,-4.8324,-4.8324,-4.8324,-4.8324,-4.8324,-4.8324,-4.8324,-4.8324,-4.8324,-4.8324,-4.8324,-4.8324,-4.8324,-4.8324,-4.8324,-4.8324,-4.8324,-4.8324,-4.8324,-4.8324,-4.8324,-4.8324,-4.8324,-4.8324,-4.8324,-4.8324,-4.8324,-4.8324,-4.8324,-4.8324,-4.8324,-4.8324,-4.8324,-4.8306,-4.8382,-4.8439,-4.8439,-4.8382,-4.842,-4.8402,-4.842,-4.8344,-4.842,-4.8569,-4.8677,-4.8765,-4.8765,-4.8783,-4.8869,-4.9038,-4.9296,-4.9529,-4.9693,-4.9797,-4.9852,-4.9879,-4.9879,-4.9879,-4.9879,-4.9879,-4.9906,-4.9925,-4.9952,-4.9925,-4.9879,-4.9852,-4.9852,-4.9879,-4.9879,-4.9871,-4.9862,-5.0846,-5.0883,-5.0738,-5.0663,-5.0566,-5.0625,-5.0548,-5.0279,-5.0471,-5.0491,-5.0317,-5.0467,-5.0301,-5.0172,-5.0015,-5.0073,-5.0245,-5.0212,-5.012,-5.0063,-5.0031,-4.9952,-4.9925,-4.9852,-4.9769,-4.9529,-4.9577,-4.9439,-4.9351,-4.973,-5.052,-5.133,-5.1284,-5.1007,-5.063,-5.0278,-4.9559,-4.8563,-4.8324,-4.8324,-4.8324,-4.8324,-4.8324,-4.8324,-4.8324,-4.8324,-4.8324,-4.8324,-4.8324,-4.8324,-4.8324,-4.8324,-4.8324,-4.8324,-4.8324,-4.8324,-4.8324,-4.8324,-4.8324,-4.8324,-4.8324,-4.8324,-4.8324,-4.8324,-4.8324,-4.8324,-4.8324,-4.8324,-4.8324,-4.8324,-4.8324,-4.8324,-4.8324,-4.8324,-4.8324,-4.8324,-4.8306,-4.8382,-4.8439,-4.8569,-4.8605,-4.8605,-4.8677,-4.8748,-4.8569,-4.8514,-4.8818,-4.8971,-4.8903,-4.8937,-4.8971,-4.9005,-4.9052,-4.9233,-4.945,-4.9646,-4.9797,-4.9852,-4.9879,-4.9879,-4.9879,-4.9879,-4.9906,-4.9952,-4.9952,-4.9978,-5.0005,-4.9959,-4.9933,-4.9952,-4.9952,-4.9959,-4.9986,-4.9978,-5.0005,-5.0877,-5.0899,-5.0793,-5.0738,-5.0701,-5.0702,-5.0702,-5.0683,-5.0683,-5.0317,-4.9777,-4.9656,-4.9321,-4.8949,-4.8812,-4.9075,-4.943,-4.9439,-4.967,-4.9943,-4.9959,-4.9925,-4.9879,-4.9824,-4.9674,-4.9389,-4.9408,-4.9715,-4.9959,-4.9756,-5.0778,-5.1562,-5.1918,-5.1431,-5.0901,-4.9939,-4.8985,-4.8636,-4.8324,-4.8324,-4.8324,-4.8324,-4.8324,-4.8324,-4.8324,-4.8324,-4.8324,-4.8324,-4.8324,-4.8324,-4.8324,-4.8324,-4.8324,-4.8324,-4.8324,-4.8324,-4.8324,-4.8324,-4.8324,-4.8324,-4.8324,-4.8324,-4.8324,-4.8324,-4.8324,-4.8324,-4.8324,-4.8324,-4.8324,-4.8324,-4.8324,-4.8324,-4.8324,-4.8324,-4.8324,-4.8343,-4.8363,-4.842,-4.8532,-4.8713,-4.8834,-4.8903,-4.9005,-4.9104,-4.8869,-4.8694,-4.9038,-4.9296,-4.9233,-4.9169,-4.9201,-4.9233,-4.9296,-4.942,-4.9646,-4.9778,-4.9879,-4.9879,-4.9906,-4.9906,-4.9906,-4.9933,-4.9959,-4.9978,-5.0005,-5.0057,-5.0057,-5.0012,-5.0012,-5.0005,-5.0031,-5.0057,-5.0082,-5.0108,-5.0108,-5.0897,-5.0863,-5.0775,-5.072,-5.0682,-5.0702,-5.0683,-5.0625,-5.0356,-4.972,-4.883,-4.8733,-4.8419,-4.7974,-4.8181,-4.8232,-4.8796,-4.9086,-4.9398,-4.9606,-4.9762,-4.9868,-4.9898,-4.9769,-4.951,-4.9214,-4.9174,-4.944,-4.9522,-4.9399,-5.0435,-5.1639,-5.2434,-5.19,-5.0662,-4.9242,-4.8343,-4.8324,-4.8324,-4.8324,-4.8324,-4.8324,-4.8324,-4.8324,-4.8324,-4.8324,-4.8324,-4.8324,-4.8324,-4.8324,-4.8324,-4.8324,-4.8324,-4.8324,-4.8324,-4.8324,-4.8324,-4.8324,-4.8324,-4.8324,-4.8324,-4.8324,-4.8324,-4.8324,-4.8324,-4.8324,-4.8324,-4.8324,-4.8324,-4.8324,-4.8324,-4.8324,-4.8324,-4.8324,-4.8453,-4.851,-4.8494,-4.855,-4.8695,-4.8834,-4.8971,-4.9071,-4.9233,-4.9327,-4.9327,-4.9118,-4.9233,-4.9469,-4.9548,-4.9469,-4.9469,-4.9499,-4.9499,-4.9665,-4.9824,-4.9879,-4.9906,-4.9925,-4.9925,-4.9952,-4.9952,-4.9986,-5.0012,-5.0038,-5.0082,-5.0108,-5.0133,-5.0133,-5.0133,-5.0108,-5.0108,-5.0133,-5.0182,-5.0207,-5.0182,-5.0825,-5.0793,-5.0663,-5.0587,-5.0529,-5.0644,-5.0606,-5.0334,-4.9662,-4.8873,-4.8118,-4.802,-4.7979,-4.7952,-4.8411,-4.8461,-4.841,-4.9251,-4.9638,-4.9333,-4.9679,-4.9868,-4.9824,-4.9646,-4.942,-4.9104,-4.8974,-4.8822,-4.8734,-4.9653,-5.0609,-5.1382,-5.225,-5.2183,-5.0765,-4.9169,-4.8379,-4.8324,-4.8324,-4.8343,-4.8471,-4.8416,-4.8324,-4.8526,-4.8361,-4.8324,-4.8324,-4.8324,-4.8324,-4.8324,-4.8324,-4.8324,-4.8324,-4.8324,-4.8324,-4.8324,-4.8324,-4.8324,-4.8324,-4.8324,-4.8324,-4.8324,-4.8324,-4.8324,-4.8324,-4.8324,-4.8324,-4.8324,-4.8324,-4.8324,-4.8324,-4.8306,-4.8344,-4.8381,-4.8491,-4.8623,-4.8624,-4.882,-4.899,-4.9104,-4.9137,-4.9201,-4.9358,-4.9529,-4.9646,-4.9617,-4.9558,-4.9617,-4.9712,-4.9741,-4.9693,-4.9693,-4.9693,-4.9722,-4.9852,-4.9879,-4.9906,-4.9925,-4.9952,-4.9978,-5.0031,-5.0038,-5.0063,-5.0089,-5.0133,-5.0207,-5.0231,-5.0255,-5.0207,-5.0182,-5.0182,-5.0207,-5.0255,-5.0278,-5.0255,-4.998,-4.9929,-5.0394,-5.0201,-4.9677,-4.966,-4.9699,-4.9505,-4.8774,-4.8177,-4.7924,-4.7862,-4.7821,-4.793,-4.8094,-4.8334,-4.8629,-4.8713,-4.9036,-4.9572,-4.9792,-4.9868,-4.9824,-4.9617,-4.9358,-4.9085,-4.8853,-4.901,-4.9547,-5.0057,-5.0888,-5.174,-5.2187,-5.1738,-5.082,-4.9646,-4.8985,-4.8434,-4.8361,-4.8526,-4.8967,-4.8636,-4.8526,-4.8985,-4.8563,-4.8324,-4.8324,-4.8324,-4.8324,-4.8324,-4.8324,-4.8324,-4.8324,-4.8324,-4.8324,-4.8324,-4.8324,-4.8324,-4.8324,-4.8324,-4.8324,-4.8324,-4.8324,-4.8324,-4.8324,-4.8324,-4.8324,-4.8324,-4.8324,-4.8324,-4.8324,-4.8495,-4.8532,-4.8439,-4.8532,-4.8732,-4.8818,-4.9155,-4.9377,-4.942,-4.948,-4.9558,-4.9693,-4.9693,-4.9778,-4.9805,-4.975,-4.975,-4.9824,-4.9824,-4.9824,-4.9824,-4.9824,-4.9852,-4.9879,-4.9933,-4.9978,-4.9978,-5.0031,-5.0057,-5.0108,-5.0133,-5.0158,-5.0182,-5.0231,-5.0278,-5.0278,-5.0278,-5.0278,-5.0236,-5.0255,-5.0255,-5.0278,-5.0302,-5.0278,-4.9363,-4.9083,-4.9817,-4.9584,-4.8826,-4.9041,-4.8909,-4.8294,-4.7697,-4.7446,-4.7365,-4.7319,-4.7506,-4.7732,-4.8067,-4.7976,-4.8542,-4.9081,-4.8972,-4.9603,-4.9803,-4.986,-4.9797,-4.9558,-4.9265,-4.9019,-4.8802,-4.8827,-4.9252,-4.9818,-5.1014,-5.2195,-5.2467,-5.1871,-5.093,-4.9958,-4.9114,-4.8545,-4.8361,-4.8508,-4.8728,-4.8673,-4.8563,-4.8746,-4.8618,-4.8324,-4.8324,-4.8324,-4.8324,-4.8324,-4.8324,-4.8324,-4.8324,-4.8324,-4.8324,-4.8324,-4.8324,-4.8324,-4.8324,-4.8324,-4.8324,-4.8324,-4.8324,-4.8324,-4.8324,-4.8324,-4.8324,-4.8324,-4.8324,-4.8382,-4.8476,-4.8658,-4.8711,-4.8623,-4.8839,-4.9012,-4.9038,-4.9346,-4.9529,-4.9617,-4.9722,-4.9824,-4.9906,-4.9879,-4.9879,-4.9906,-4.9906,-4.9906,-4.9906,-4.9906,-4.9952,-4.9925,-4.9952,-4.9978,-4.9978,-4.9986,-5.0031,-5.005,-5.0082,-5.0133,-5.0158,-5.0207,-5.0231,-5.0255,-5.0278,-5.0278,-5.0302,-5.0302,-5.0278,-5.0278,-5.0278,-5.0278,-5.0302,-5.0302,-5.0302,-4.8977,-4.8332,-4.8971,-4.8718,-4.806,-4.8505,-4.7986,-4.6642,-4.6585,-4.6581,-4.6653,-4.6682,-4.7251,-4.7971,-4.8629,-4.8555,-4.8239,-4.9352,-4.9364,-4.9254,-4.9606,-4.9757,-4.9693,-4.9408,-4.9118,-4.8903,-4.866,-4.8475,-4.8583,-4.9866,-5.1485,-5.2789,-5.2986,-5.2215,-5.1169,-5.0233,-4.9315,-4.8618,-4.8343,-4.8526,-4.8746,-4.8489,-4.8526,-4.8618,-4.8508,-4.8343,-4.8324,-4.8324,-4.8324,-4.8324,-4.8324,-4.8324,-4.8324,-4.8324,-4.8324,-4.8324,-4.8324,-4.8324,-4.8324,-4.8324,-4.8324,-4.8324,-4.8324,-4.8324,-4.8324,-4.8344,-4.8402,-4.8439,-4.8476,-4.8587,-4.8713,-4.8816,-4.89,-4.9061,-4.9305,-4.9332,-4.9252,-4.9389,-4.9617,-4.9722,-4.9797,-4.9879,-4.9925,-4.9906,-4.9906,-4.9959,-5.0005,-4.9978,-4.9978,-5.0005,-5.0005,-5.0005,-5.0031,-5.0082,-5.0082,-5.0082,-5.0089,-5.0108,-5.0158,-5.0188,-5.0231,-5.0255,-5.0255,-5.0278,-5.0278,-5.0302,-5.0302,-5.0302,-5.0302,-5.0302,-5.0302,-5.0302,-5.0302,-5.0302,-5.0302,-4.7484,-4.7278,-4.7989,-4.7773,-4.6925,-4.6562,-4.6103,-4.57,-4.5681,-4.6235,-4.7417,-4.735,-4.8033,-4.9444,-4.9626,-4.9442,-4.9394,-4.9503,-4.9616,-4.9626,-4.9552,-4.9608,-4.9499,-4.9265,-4.9019,-4.8765,-4.8495,-4.8343,-4.8673,-4.9976,-5.1573,-5.2949,-5.3041,-5.238,-5.161,-5.0839,-4.9646,-4.871,-4.8416,-4.8636,-4.8765,-4.86,-4.8728,-4.8875,-4.8526,-4.8398,-4.8324,-4.8324,-4.8324,-4.8324,-4.8324,-4.8324,-4.8324,-4.8324,-4.8324,-4.8324,-4.8324,-4.8324,-4.8324,-4.8324,-4.8324,-4.8324,-4.8324,-4.8324,-4.8344,-4.8439,-4.8532,-4.8569,-4.8677,-4.8853,-4.8971,-4.9085,-4.9132,-4.9302,-4.9521,-4.9593,-4.9529,-4.9588,-4.9778,-4.9824,-4.9898,-4.9906,-4.9952,-4.9952,-4.9959,-5.0031,-5.0057,-5.0031,-5.0031,-5.0057,-5.0082,-5.0057,-5.0082,-5.0152,-5.0133,-5.0133,-5.0139,-5.0163,-5.0212,-5.0236,-5.0278,-5.0278,-5.0302,-5.0302,-5.0302,-5.0302,-5.0302,-5.0302,-5.0302,-5.0321,-5.0321,-5.0302,-5.0302,-5.0302,-5.0302,-4.6642,-4.6397,-4.7086,-4.687,-4.6023,-4.5507,-4.5277,-4.5335,-4.5621,-4.6577,-4.772,-4.8071,-4.8729,-4.9472,-4.9746,-4.9705,-4.9364,-4.9467,-4.9608,-4.974,-4.9617,-4.9558,-4.942,-4.9233,-4.8952,-4.8694,-4.8476,-4.8324,-4.8691,-4.9572,-5.1041,-5.2068,-5.2472,-5.2215,-5.1536,-5.0839,-5.0123,-4.9169,-4.8673,-4.8912,-4.8912,-4.8783,-4.8967,-4.9187,-4.8673,-4.8398,-4.8324,-4.8324,-4.8324,-4.8324,-4.8324,-4.8324,-4.8324,-4.8324,-4.8324,-4.8324,-4.8324,-4.8324,-4.8324,-4.8324,-4.8324,-4.8324,-4.8324,-4.8324,-4.842,-4.8514,-4.8605,-4.8713,-4.8937,-4.9137,-4.9265,-4.9389,-4.9389,-4.942,-4.9636,-4.9797,-4.9824,-4.9824,-4.9879,-4.9925,-4.9978,-4.9959,-4.9986,-4.9959,-4.9986,-5.0089,-5.0114,-5.0133,-5.0133,-5.0114,-5.0133,-5.0133,-5.0158,-5.0226,-5.0207,-5.0207,-5.0231,-5.0212,-5.0255,-5.0278,-5.0302,-5.0302,-5.0302,-5.0302,-5.0302,-5.0302,-5.0302,-5.0302,-5.0302,-5.0378,-5.0531,-5.0627,-5.0531,-5.0302,-5.0302,-4.6223,-4.5591,-4.6204,-4.6065,-4.5354,-4.5297,-4.5297,-4.5411,-4.6192,-4.6975,-4.7697,-4.8519,-4.8871,-4.9169,-4.9618,-4.9538,-4.9315,-4.9332,-4.9529,-4.9824,-4.9529,-4.942,-4.9358,-4.9201,-4.8885,-4.8658,-4.8495,-4.8416,-4.8655,-4.9389,-5.0233,-5.082,-5.1536,-5.1646,-5.1334,-5.071,-5.016,-4.9771,-4.893,-4.8618,-4.8948,-4.8838,-4.8636,-4.9077,-4.8746,-4.8324,-4.8324,-4.8324,-4.8324,-4.8324,-4.8324,-4.8324,-4.8324,-4.8324,-4.8324,-4.8324,-4.8324,-4.8324,-4.8324,-4.8324,-4.8324,-4.8324,-4.8324,-4.8344,-4.8476,-4.8677,-4.88,-4.8903,-4.9137,-4.9408,-4.9529,-4.9588,-4.9617,-4.9646,-4.9778,-4.9852,-4.9852,-4.9879,-4.9925,-4.9978,-5.0005,-5.0012,-5.0063,-5.0063,-5.0082,-5.0163,-5.0188,-5.0163,-5.0188,-5.0188,-5.0188,-5.0182,-5.0231,-5.0255,-5.0255,-5.0255,-5.0278,-5.0302,-5.0302,-5.0302,-5.0302,-5.0302,-5.0302,-5.0302,-5.0302,-5.0302,-5.0302,-5.0321,-5.0455,-5.0741,-5.0894,-5.1009,-5.0894,-5.0741,-5.0684,-4.563,-4.5458,-4.5589,-4.5489,-4.5316,-4.5277,-4.5275,-4.5366,-4.6816,-4.714,-4.7118,-4.8153,-4.8789,-4.8739,-4.9432,-4.9456,-4.9248,-4.9096,-4.9352,-4.9469,-4.9358,-4.9265,-4.9233,-4.9137,-4.8834,-4.8495,-4.8418,-4.8583,-4.8969,-4.9446,-4.9921,-5.0655,-5.1077,-5.1059,-5.1389,-5.071,-5.0031,-5.023,-4.9074,-4.8453,-4.8581,-4.8577,-4.8464,-4.8598,-4.8343,-4.8324,-4.8324,-4.8324,-4.8324,-4.8324,-4.8324,-4.8324,-4.8324,-4.8324,-4.8324,-4.8324,-4.8324,-4.8324,-4.8324,-4.8324,-4.8324,-4.8306,-4.8344,-4.8439,-4.8605,-4.8869,-4.9038,-4.9169,-4.9346,-4.9607,-4.975,-4.9778,-4.9778,-4.9852,-4.9879,-4.9879,-4.9906,-4.9952,-4.9978,-5.0031,-5.0057,-5.0089,-5.0139,-5.0163,-5.0182,-5.0207,-5.0188,-5.0212,-5.0255,-5.0255,-5.0231,-5.0231,-5.0255,-5.0278,-5.0302,-5.0302,-5.0302,-5.0302,-5.0302,-5.0302,-5.034,-5.0493,-5.0608,-5.0378,-5.0302,-5.0608,-5.0722,-5.0397,-5.0588,-5.1123,-5.1563,-5.1811,-5.1945,-5.1849,-5.1639,-4.4825,-4.4863,-4.5185,-4.5277,-4.5277,-4.5277,-4.5275,-4.5502,-4.6603,-4.6675,-4.6291,-4.7762,-4.8454,-4.8055,-4.8726,-4.8909,-4.8657,-4.8842,-4.9139,-4.9327,-4.9233,-4.9137,-4.9104,-4.9071,-4.873,-4.8439,-4.8363,-4.8601,-4.9062,-4.9024,-4.9279,-4.9774,-5.0031,-5.06,-5.1169,-5.0306,-4.9936,-5.0666,-4.9111,-4.8453,-4.8324,-4.8302,-4.8595,-4.8655,-4.8563,-4.8434,-4.8324,-4.8324,-4.8324,-4.8324,-4.8324,-4.8324,-4.8324,-4.8324,-4.8324,-4.8324,-4.8324,-4.8324,-4.8343,-4.8343,-4.8324,-4.8306,-4.8439,-4.8569,-4.8694,-4.8952,-4.9265,-4.9389,-4.9607,-4.9824,-4.9824,-4.9852,-4.9852,-4.9879,-4.9925,-4.9925,-4.9952,-4.9978,-5.0057,-5.0133,-5.0158,-5.0163,-5.0212,-5.0231,-5.0255,-5.0255,-5.0255,-5.0236,-5.0278,-5.0302,-5.0278,-5.0278,-5.0278,-5.0302,-5.0302,-5.0302,-5.0302,-5.0302,-5.0302,-5.0608,-5.0799,-5.0894,-5.0913,-5.1085,-5.1276,-5.1544,-5.1505,-5.1181,-5.1391,-5.2021,-5.2403,-5.2709,-5.2805,-5.2919,-5.2938,-4.4,-4.4211,-4.4954,-4.5297,-4.5297,-4.5277,-4.5275,-4.5407,-4.6126,-4.5986,-4.5479,-4.7447,-4.7359,-4.7117,-4.7758,-4.7523,-4.7691,-4.8453,-4.8959,-4.9169,-4.9104,-4.9005,-4.9005,-4.9005,-4.8677,-4.8439,-4.8324,-4.8324,-4.8453,-4.8489,-4.8545,-4.8489,-4.904,-4.9829,-5.0178,-4.9994,-4.968,-4.9915,-4.9221,-4.8471,-4.8324,-4.8324,-4.8691,-4.8838,-4.8783,-4.8361,-4.8324,-4.8324,-4.8324,-4.8324,-4.8324,-4.8324,-4.8453,-4.8526,-4.8636,-4.8655,-4.8691,-4.8655,-4.8563,-4.8434,-4.8379,-4.8344,-4.8569,-4.8694,-4.88,-4.9052,-4.9358,-4.9588,-4.9797,-4.9898,-4.9898,-4.9906,-4.9906,-4.9906,-4.9952,-4.9952,-4.9978,-5.0012,-5.0108,-5.0207,-5.0231,-5.0236,-5.0255,-5.0278,-5.0302,-5.0302,-5.0302,-5.0302,-5.0302,-5.0302,-5.0278,-5.0278,-5.0302,-5.0302,-5.0302,-5.0359,-5.0378,-5.0302,-5.0378,-5.0856,-5.1295,-5.1525,-5.1849,-5.2308,-5.2518,-5.2422,-5.2442,-5.227,-5.2594,-5.29,-5.311,-5.3378,-5.3511,-5.3702,-5.4218,-4.3444,-4.4093,-4.4934,-4.5275,-4.5235,-4.5275,-4.5213,-4.5213,-4.5978,-4.5855,-4.548,-4.5943,-4.6303,-4.6024,-4.8333,-4.8532,-4.7392,-4.8194,-4.8601,-4.88,-4.8869,-4.8834,-4.88,-4.88,-4.8569,-4.842,-4.8324,-4.8324,-4.8324,-4.8324,-4.8324,-4.8361,-4.8361,-4.8985,-4.9572,-4.9315,-4.9019,-4.9328,-4.9129,-4.8324,-4.8324,-4.8324,-4.8343,-4.8416,-4.8398,-4.8324,-4.8324,-4.8324,-4.8324,-4.8324,-4.8379,-4.8416,-4.86,-4.8912,-4.915,-4.9187,-4.9205,-4.9095,-4.8967,-4.8563,-4.8416,-4.8306,-4.8495,-4.8623,-4.88,-4.9052,-4.9327,-4.9558,-4.975,-4.9879,-4.9879,-4.9925,-4.9925,-4.9978,-5.0005,-5.0031,-5.0082,-5.0114,-5.0163,-5.0231,-5.0255,-5.0278,-5.0278,-5.0302,-5.0302,-5.0302,-5.0302,-5.0302,-5.0302,-5.0302,-5.0321,-5.034,-5.0359,-5.0302,-5.0302,-5.0474,-5.0493,-5.0397,-5.0588,-5.1314,-5.1907,-5.227,-5.2671,-5.3244,-5.3148,-5.2919,-5.2977,-5.3339,-5.3435,-5.3683,-5.3817,-5.3989,-5.4142,-5.4352,-5.4734]}]]